<?xml version="1.0" encoding="UTF-8" standalone="no" ?>
<gpx xmlns="http://www.topografix.com/GPX/1/1" xmlns:xsi="http://www.w3.org/2001/XMLSchema-instance" xsi:schemaLocation="http://www.topografix.com/GPX/1/1 http://www.topografix.com/GPX/1/1/gpx.xsd" version="1.1" creator="VisuGPX - https://www.visugpx.com">
  <metadata>
    <name>Radepont 13Km7</name>
    <desc><![CDATA[Boucle A-R au départ de Radepont]]></desc>
  </metadata>
  <trk>
    <name><![CDATA[Radepont 13Km7_1]]></name>
    <trkseg>
      <trkpt lat="49.35559" lon="1.3251">
        <ele>37</ele>
        <time>2017-05-23T14:06:41Z</time>
      </trkpt>
      <trkpt lat="49.35559" lon="1.32506">
        <ele>37</ele>
        <time>2017-05-23T14:06:41Z</time>
      </trkpt>
      <trkpt lat="49.35558" lon="1.32502">
        <ele>37</ele>
        <time>2017-05-23T14:06:41Z</time>
      </trkpt>
      <trkpt lat="49.35557" lon="1.32501">
        <ele>37</ele>
        <time>2017-05-23T14:06:41Z</time>
      </trkpt>
      <trkpt lat="49.35557" lon="1.32501">
        <ele>37</ele>
        <time>2017-05-23T14:06:41Z</time>
      </trkpt>
      <trkpt lat="49.35553" lon="1.32494">
        <ele>37</ele>
        <time>2017-05-23T14:06:57Z</time>
      </trkpt>
      <trkpt lat="49.35551" lon="1.32489">
        <ele>37</ele>
        <time>2017-05-23T14:06:57Z</time>
      </trkpt>
      <trkpt lat="49.35547" lon="1.32483">
        <ele>37</ele>
        <time>2017-05-23T14:06:57Z</time>
      </trkpt>
      <trkpt lat="49.35544" lon="1.32479">
        <ele>37</ele>
        <time>2017-05-23T14:06:57Z</time>
      </trkpt>
      <trkpt lat="49.35539" lon="1.32476">
        <ele>30</ele>
        <time>2017-05-23T14:07:13Z</time>
      </trkpt>
      <trkpt lat="49.35535" lon="1.32474">
        <ele>30</ele>
        <time>2017-05-23T14:07:13Z</time>
      </trkpt>
      <trkpt lat="49.3553" lon="1.32475">
        <ele>30</ele>
        <time>2017-05-23T14:07:13Z</time>
      </trkpt>
      <trkpt lat="49.35526" lon="1.32477">
        <ele>30</ele>
        <time>2017-05-23T14:07:13Z</time>
      </trkpt>
      <trkpt lat="49.35522" lon="1.32479">
        <ele>30</ele>
        <time>2017-05-23T14:07:29Z</time>
      </trkpt>
      <trkpt lat="49.35518" lon="1.3248">
        <ele>30</ele>
        <time>2017-05-23T14:07:29Z</time>
      </trkpt>
      <trkpt lat="49.35513" lon="1.32482">
        <ele>30</ele>
        <time>2017-05-23T14:07:29Z</time>
      </trkpt>
      <trkpt lat="49.35509" lon="1.32482">
        <ele>30</ele>
        <time>2017-05-23T14:07:29Z</time>
      </trkpt>
      <trkpt lat="49.35505" lon="1.32486">
        <ele>30</ele>
        <time>2017-05-23T14:07:45Z</time>
      </trkpt>
      <trkpt lat="49.35501" lon="1.32489">
        <ele>30</ele>
        <time>2017-05-23T14:07:45Z</time>
      </trkpt>
      <trkpt lat="49.35497" lon="1.32492">
        <ele>30</ele>
        <time>2017-05-23T14:07:45Z</time>
      </trkpt>
      <trkpt lat="49.35492" lon="1.32495">
        <ele>30</ele>
        <time>2017-05-23T14:07:45Z</time>
      </trkpt>
      <trkpt lat="49.35487" lon="1.325">
        <ele>30</ele>
        <time>2017-05-23T14:08:01Z</time>
      </trkpt>
      <trkpt lat="49.35483" lon="1.32504">
        <ele>30</ele>
        <time>2017-05-23T14:08:01Z</time>
      </trkpt>
      <trkpt lat="49.35479" lon="1.32507">
        <ele>30</ele>
        <time>2017-05-23T14:08:01Z</time>
      </trkpt>
      <trkpt lat="49.35475" lon="1.32511">
        <ele>30</ele>
        <time>2017-05-23T14:08:01Z</time>
      </trkpt>
      <trkpt lat="49.35471" lon="1.32513">
        <ele>30</ele>
        <time>2017-05-23T14:08:17Z</time>
      </trkpt>
      <trkpt lat="49.35466" lon="1.32517">
        <ele>30</ele>
        <time>2017-05-23T14:08:17Z</time>
      </trkpt>
      <trkpt lat="49.35462" lon="1.32522">
        <ele>30</ele>
        <time>2017-05-23T14:08:17Z</time>
      </trkpt>
      <trkpt lat="49.35456" lon="1.32529">
        <ele>29</ele>
        <time>2017-05-23T14:08:17Z</time>
      </trkpt>
      <trkpt lat="49.35453" lon="1.3253">
        <ele>29</ele>
        <time>2017-05-23T14:08:33Z</time>
      </trkpt>
      <trkpt lat="49.35449" lon="1.32533">
        <ele>29</ele>
        <time>2017-05-23T14:08:33Z</time>
      </trkpt>
      <trkpt lat="49.35445" lon="1.3254">
        <ele>29</ele>
        <time>2017-05-23T14:08:34Z</time>
      </trkpt>
      <trkpt lat="49.3544" lon="1.32545">
        <ele>25</ele>
        <time>2017-05-23T14:08:34Z</time>
      </trkpt>
      <trkpt lat="49.35432" lon="1.32553">
        <ele>25</ele>
        <time>2017-05-23T14:09:01Z</time>
      </trkpt>
      <trkpt lat="49.35428" lon="1.32558">
        <ele>25</ele>
        <time>2017-05-23T14:09:01Z</time>
      </trkpt>
      <trkpt lat="49.35424" lon="1.32565">
        <ele>25</ele>
        <time>2017-05-23T14:09:01Z</time>
      </trkpt>
      <trkpt lat="49.35418" lon="1.32572">
        <ele>25</ele>
        <time>2017-05-23T14:09:01Z</time>
      </trkpt>
      <trkpt lat="49.35413" lon="1.32578">
        <ele>25</ele>
        <time>2017-05-23T14:09:01Z</time>
      </trkpt>
      <trkpt lat="49.35404" lon="1.32584">
        <ele>25</ele>
        <time>2017-05-23T14:09:33Z</time>
      </trkpt>
      <trkpt lat="49.35404" lon="1.32585">
        <ele>25</ele>
        <time>2017-05-23T14:09:33Z</time>
      </trkpt>
      <trkpt lat="49.354" lon="1.32588">
        <ele>25</ele>
        <time>2017-05-23T14:09:33Z</time>
      </trkpt>
      <trkpt lat="49.35395" lon="1.32593">
        <ele>25</ele>
        <time>2017-05-23T14:09:33Z</time>
      </trkpt>
      <trkpt lat="49.35391" lon="1.32598">
        <ele>25</ele>
        <time>2017-05-23T14:09:33Z</time>
      </trkpt>
      <trkpt lat="49.35387" lon="1.326">
        <ele>25</ele>
        <time>2017-05-23T14:10:21Z</time>
      </trkpt>
      <trkpt lat="49.35387" lon="1.32603">
        <ele>25</ele>
        <time>2017-05-23T14:10:21Z</time>
      </trkpt>
      <trkpt lat="49.35383" lon="1.32605">
        <ele>25</ele>
        <time>2017-05-23T14:10:21Z</time>
      </trkpt>
      <trkpt lat="49.35379" lon="1.32609">
        <ele>25</ele>
        <time>2017-05-23T14:10:21Z</time>
      </trkpt>
      <trkpt lat="49.35374" lon="1.32613">
        <ele>25</ele>
        <time>2017-05-23T14:10:21Z</time>
      </trkpt>
      <trkpt lat="49.3537" lon="1.32616">
        <ele>25</ele>
        <time>2017-05-23T14:10:37Z</time>
      </trkpt>
      <trkpt lat="49.35366" lon="1.32617">
        <ele>25</ele>
        <time>2017-05-23T14:10:37Z</time>
      </trkpt>
      <trkpt lat="49.3536" lon="1.32623">
        <ele>25</ele>
        <time>2017-05-23T14:10:37Z</time>
      </trkpt>
      <trkpt lat="49.35355" lon="1.32629">
        <ele>23</ele>
        <time>2017-05-23T14:10:37Z</time>
      </trkpt>
      <trkpt lat="49.3535" lon="1.32633">
        <ele>23</ele>
        <time>2017-05-23T14:10:53Z</time>
      </trkpt>
      <trkpt lat="49.35345" lon="1.32634">
        <ele>23</ele>
        <time>2017-05-23T14:10:53Z</time>
      </trkpt>
      <trkpt lat="49.3534" lon="1.32637">
        <ele>23</ele>
        <time>2017-05-23T14:10:53Z</time>
      </trkpt>
      <trkpt lat="49.35335" lon="1.3264">
        <ele>23</ele>
        <time>2017-05-23T14:10:53Z</time>
      </trkpt>
      <trkpt lat="49.35331" lon="1.32644">
        <ele>23</ele>
        <time>2017-05-23T14:11:09Z</time>
      </trkpt>
      <trkpt lat="49.35324" lon="1.32651">
        <ele>23</ele>
        <time>2017-05-23T14:11:09Z</time>
      </trkpt>
      <trkpt lat="49.3532" lon="1.32654">
        <ele>23</ele>
        <time>2017-05-23T14:11:09Z</time>
      </trkpt>
      <trkpt lat="49.35316" lon="1.32656">
        <ele>23</ele>
        <time>2017-05-23T14:11:09Z</time>
      </trkpt>
      <trkpt lat="49.35311" lon="1.3266">
        <ele>23</ele>
        <time>2017-05-23T14:11:25Z</time>
      </trkpt>
      <trkpt lat="49.35307" lon="1.32662">
        <ele>23</ele>
        <time>2017-05-23T14:11:25Z</time>
      </trkpt>
      <trkpt lat="49.35301" lon="1.32665">
        <ele>23</ele>
        <time>2017-05-23T14:11:25Z</time>
      </trkpt>
      <trkpt lat="49.35299" lon="1.32668">
        <ele>23</ele>
        <time>2017-05-23T14:11:25Z</time>
      </trkpt>
      <trkpt lat="49.35295" lon="1.3267">
        <ele>23</ele>
        <time>2017-05-23T14:11:41Z</time>
      </trkpt>
      <trkpt lat="49.3529" lon="1.32671">
        <ele>24</ele>
        <time>2017-05-23T14:11:41Z</time>
      </trkpt>
      <trkpt lat="49.35287" lon="1.32672">
        <ele>24</ele>
        <time>2017-05-23T14:11:41Z</time>
      </trkpt>
      <trkpt lat="49.35283" lon="1.32675">
        <ele>24</ele>
        <time>2017-05-23T14:11:41Z</time>
      </trkpt>
      <trkpt lat="49.35278" lon="1.32679">
        <ele>24</ele>
        <time>2017-05-23T14:11:57Z</time>
      </trkpt>
      <trkpt lat="49.35273" lon="1.32682">
        <ele>24</ele>
        <time>2017-05-23T14:11:57Z</time>
      </trkpt>
      <trkpt lat="49.35268" lon="1.32685">
        <ele>24</ele>
        <time>2017-05-23T14:11:57Z</time>
      </trkpt>
      <trkpt lat="49.35264" lon="1.32688">
        <ele>24</ele>
        <time>2017-05-23T14:11:57Z</time>
      </trkpt>
      <trkpt lat="49.3526" lon="1.3269">
        <ele>24</ele>
        <time>2017-05-23T14:12:13Z</time>
      </trkpt>
      <trkpt lat="49.35255" lon="1.32693">
        <ele>24</ele>
        <time>2017-05-23T14:12:13Z</time>
      </trkpt>
      <trkpt lat="49.35251" lon="1.32693">
        <ele>24</ele>
        <time>2017-05-23T14:12:13Z</time>
      </trkpt>
      <trkpt lat="49.35245" lon="1.32698">
        <ele>24</ele>
        <time>2017-05-23T14:12:13Z</time>
      </trkpt>
      <trkpt lat="49.35241" lon="1.32701">
        <ele>24</ele>
        <time>2017-05-23T14:12:29Z</time>
      </trkpt>
      <trkpt lat="49.35235" lon="1.32705">
        <ele>24</ele>
        <time>2017-05-23T14:12:29Z</time>
      </trkpt>
      <trkpt lat="49.35229" lon="1.32707">
        <ele>24</ele>
        <time>2017-05-23T14:12:29Z</time>
      </trkpt>
      <trkpt lat="49.35225" lon="1.32712">
        <ele>24</ele>
        <time>2017-05-23T14:12:29Z</time>
      </trkpt>
      <trkpt lat="49.35219" lon="1.32718">
        <ele>24</ele>
        <time>2017-05-23T14:12:45Z</time>
      </trkpt>
      <trkpt lat="49.35214" lon="1.32721">
        <ele>24</ele>
        <time>2017-05-23T14:12:45Z</time>
      </trkpt>
      <trkpt lat="49.3521" lon="1.32722">
        <ele>24</ele>
        <time>2017-05-23T14:12:45Z</time>
      </trkpt>
      <trkpt lat="49.35205" lon="1.32726">
        <ele>24</ele>
        <time>2017-05-23T14:12:45Z</time>
      </trkpt>
      <trkpt lat="49.352" lon="1.3273">
        <ele>24</ele>
        <time>2017-05-23T14:13:01Z</time>
      </trkpt>
      <trkpt lat="49.35195" lon="1.32734">
        <ele>24</ele>
        <time>2017-05-23T14:13:01Z</time>
      </trkpt>
      <trkpt lat="49.35191" lon="1.32737">
        <ele>24</ele>
        <time>2017-05-23T14:13:01Z</time>
      </trkpt>
      <trkpt lat="49.35186" lon="1.32742">
        <ele>24</ele>
        <time>2017-05-23T14:13:01Z</time>
      </trkpt>
      <trkpt lat="49.35182" lon="1.32743">
        <ele>24</ele>
        <time>2017-05-23T14:13:17Z</time>
      </trkpt>
      <trkpt lat="49.3518" lon="1.32744">
        <ele>24</ele>
        <time>2017-05-23T14:13:17Z</time>
      </trkpt>
      <trkpt lat="49.35176" lon="1.32745">
        <ele>24</ele>
        <time>2017-05-23T14:13:17Z</time>
      </trkpt>
      <trkpt lat="49.35172" lon="1.32747">
        <ele>24</ele>
        <time>2017-05-23T14:13:17Z</time>
      </trkpt>
      <trkpt lat="49.35166" lon="1.32752">
        <ele>24</ele>
        <time>2017-05-23T14:13:33Z</time>
      </trkpt>
      <trkpt lat="49.35161" lon="1.32755">
        <ele>24</ele>
        <time>2017-05-23T14:13:33Z</time>
      </trkpt>
      <trkpt lat="49.35157" lon="1.32756">
        <ele>24</ele>
        <time>2017-05-23T14:13:33Z</time>
      </trkpt>
      <trkpt lat="49.35152" lon="1.32763">
        <ele>24</ele>
        <time>2017-05-23T14:13:33Z</time>
      </trkpt>
      <trkpt lat="49.3515" lon="1.32764">
        <ele>24</ele>
        <time>2017-05-23T14:13:49Z</time>
      </trkpt>
      <trkpt lat="49.35145" lon="1.32767">
        <ele>24</ele>
        <time>2017-05-23T14:13:49Z</time>
      </trkpt>
      <trkpt lat="49.3514" lon="1.3277">
        <ele>24</ele>
        <time>2017-05-23T14:13:49Z</time>
      </trkpt>
      <trkpt lat="49.35136" lon="1.32775">
        <ele>24</ele>
        <time>2017-05-23T14:13:49Z</time>
      </trkpt>
      <trkpt lat="49.35132" lon="1.32777">
        <ele>24</ele>
        <time>2017-05-23T14:14:05Z</time>
      </trkpt>
      <trkpt lat="49.3513" lon="1.32776">
        <ele>24</ele>
        <time>2017-05-23T14:14:05Z</time>
      </trkpt>
      <trkpt lat="49.35126" lon="1.3278">
        <ele>24</ele>
        <time>2017-05-23T14:14:05Z</time>
      </trkpt>
      <trkpt lat="49.35121" lon="1.32785">
        <ele>26</ele>
        <time>2017-05-23T14:14:05Z</time>
      </trkpt>
      <trkpt lat="49.35117" lon="1.32787">
        <ele>26</ele>
        <time>2017-05-23T14:14:21Z</time>
      </trkpt>
      <trkpt lat="49.35113" lon="1.32791">
        <ele>26</ele>
        <time>2017-05-23T14:14:21Z</time>
      </trkpt>
      <trkpt lat="49.3511" lon="1.32794">
        <ele>28</ele>
        <time>2017-05-23T14:14:21Z</time>
      </trkpt>
      <trkpt lat="49.35106" lon="1.32795">
        <ele>28</ele>
        <time>2017-05-23T14:14:21Z</time>
      </trkpt>
      <trkpt lat="49.35102" lon="1.32799">
        <ele>28</ele>
        <time>2017-05-23T14:14:38Z</time>
      </trkpt>
      <trkpt lat="49.35096" lon="1.32802">
        <ele>28</ele>
        <time>2017-05-23T14:14:38Z</time>
      </trkpt>
      <trkpt lat="49.35091" lon="1.32806">
        <ele>28</ele>
        <time>2017-05-23T14:14:38Z</time>
      </trkpt>
      <trkpt lat="49.35086" lon="1.32812">
        <ele>28</ele>
        <time>2017-05-23T14:14:38Z</time>
      </trkpt>
      <trkpt lat="49.35083" lon="1.32813">
        <ele>28</ele>
        <time>2017-05-23T14:14:53Z</time>
      </trkpt>
      <trkpt lat="49.35078" lon="1.32817">
        <ele>28</ele>
        <time>2017-05-23T14:14:53Z</time>
      </trkpt>
      <trkpt lat="49.35073" lon="1.32821">
        <ele>28</ele>
        <time>2017-05-23T14:14:53Z</time>
      </trkpt>
      <trkpt lat="49.35069" lon="1.32824">
        <ele>28</ele>
        <time>2017-05-23T14:14:53Z</time>
      </trkpt>
      <trkpt lat="49.35068" lon="1.32829">
        <ele>28</ele>
        <time>2017-05-23T14:15:09Z</time>
      </trkpt>
      <trkpt lat="49.35067" lon="1.3284">
        <ele>28</ele>
        <time>2017-05-23T14:15:09Z</time>
      </trkpt>
      <trkpt lat="49.35068" lon="1.32846">
        <ele>28</ele>
        <time>2017-05-23T14:15:09Z</time>
      </trkpt>
      <trkpt lat="49.35069" lon="1.32851">
        <ele>28</ele>
        <time>2017-05-23T14:15:09Z</time>
      </trkpt>
      <trkpt lat="49.35066" lon="1.32855">
        <ele>28</ele>
        <time>2017-05-23T14:15:29Z</time>
      </trkpt>
      <trkpt lat="49.35064" lon="1.32853">
        <ele>28</ele>
        <time>2017-05-23T14:15:29Z</time>
      </trkpt>
      <trkpt lat="49.35061" lon="1.32849">
        <ele>28</ele>
        <time>2017-05-23T14:15:29Z</time>
      </trkpt>
      <trkpt lat="49.35059" lon="1.32849">
        <ele>28</ele>
        <time>2017-05-23T14:15:29Z</time>
      </trkpt>
      <trkpt lat="49.35056" lon="1.32848">
        <ele>28</ele>
        <time>2017-05-23T14:15:29Z</time>
      </trkpt>
      <trkpt lat="49.35051" lon="1.32851">
        <ele>28</ele>
        <time>2017-05-23T14:16:09Z</time>
      </trkpt>
      <trkpt lat="49.3505" lon="1.32853">
        <ele>28</ele>
        <time>2017-05-23T14:16:09Z</time>
      </trkpt>
      <trkpt lat="49.35047" lon="1.32854">
        <ele>28</ele>
        <time>2017-05-23T14:16:09Z</time>
      </trkpt>
      <trkpt lat="49.35043" lon="1.32853">
        <ele>28</ele>
        <time>2017-05-23T14:16:09Z</time>
      </trkpt>
      <trkpt lat="49.35039" lon="1.32848">
        <ele>35</ele>
        <time>2017-05-23T14:16:09Z</time>
      </trkpt>
      <trkpt lat="49.35036" lon="1.32843">
        <ele>35</ele>
        <time>2017-05-23T14:16:25Z</time>
      </trkpt>
      <trkpt lat="49.35033" lon="1.32836">
        <ele>35</ele>
        <time>2017-05-23T14:16:26Z</time>
      </trkpt>
      <trkpt lat="49.3503" lon="1.32829">
        <ele>35</ele>
        <time>2017-05-23T14:16:26Z</time>
      </trkpt>
      <trkpt lat="49.35027" lon="1.32823">
        <ele>35</ele>
        <time>2017-05-23T14:16:26Z</time>
      </trkpt>
      <trkpt lat="49.35024" lon="1.32817">
        <ele>35</ele>
        <time>2017-05-23T14:16:41Z</time>
      </trkpt>
      <trkpt lat="49.35021" lon="1.32811">
        <ele>35</ele>
        <time>2017-05-23T14:16:41Z</time>
      </trkpt>
      <trkpt lat="49.35017" lon="1.32809">
        <ele>35</ele>
        <time>2017-05-23T14:16:41Z</time>
      </trkpt>
      <trkpt lat="49.35017" lon="1.3281">
        <ele>35</ele>
        <time>2017-05-23T14:16:41Z</time>
      </trkpt>
      <trkpt lat="49.35016" lon="1.3281">
        <ele>35</ele>
        <time>2017-05-23T14:17:01Z</time>
      </trkpt>
      <trkpt lat="49.35015" lon="1.3281">
        <ele>35</ele>
        <time>2017-05-23T14:17:01Z</time>
      </trkpt>
      <trkpt lat="49.35013" lon="1.3281">
        <ele>35</ele>
        <time>2017-05-23T14:17:01Z</time>
      </trkpt>
      <trkpt lat="49.35009" lon="1.32812">
        <ele>35</ele>
        <time>2017-05-23T14:17:01Z</time>
      </trkpt>
      <trkpt lat="49.35004" lon="1.32816">
        <ele>35</ele>
        <time>2017-05-23T14:17:01Z</time>
      </trkpt>
      <trkpt lat="49.35" lon="1.32818">
        <ele>35</ele>
        <time>2017-05-23T14:17:17Z</time>
      </trkpt>
      <trkpt lat="49.34996" lon="1.3282">
        <ele>35</ele>
        <time>2017-05-23T14:17:17Z</time>
      </trkpt>
      <trkpt lat="49.34992" lon="1.32822">
        <ele>35</ele>
        <time>2017-05-23T14:17:17Z</time>
      </trkpt>
      <trkpt lat="49.34989" lon="1.32821">
        <ele>35</ele>
        <time>2017-05-23T14:17:17Z</time>
      </trkpt>
      <trkpt lat="49.34985" lon="1.32823">
        <ele>35</ele>
        <time>2017-05-23T14:17:33Z</time>
      </trkpt>
      <trkpt lat="49.34981" lon="1.32822">
        <ele>35</ele>
        <time>2017-05-23T14:17:33Z</time>
      </trkpt>
      <trkpt lat="49.34975" lon="1.32821">
        <ele>35</ele>
        <time>2017-05-23T14:17:33Z</time>
      </trkpt>
      <trkpt lat="49.34973" lon="1.32816">
        <ele>35</ele>
        <time>2017-05-23T14:17:33Z</time>
      </trkpt>
      <trkpt lat="49.3497" lon="1.32814">
        <ele>35</ele>
        <time>2017-05-23T14:17:49Z</time>
      </trkpt>
      <trkpt lat="49.34966" lon="1.32811">
        <ele>35</ele>
        <time>2017-05-23T14:17:49Z</time>
      </trkpt>
      <trkpt lat="49.34964" lon="1.3281">
        <ele>35</ele>
        <time>2017-05-23T14:17:49Z</time>
      </trkpt>
      <trkpt lat="49.3496" lon="1.32808">
        <ele>35</ele>
        <time>2017-05-23T14:17:49Z</time>
      </trkpt>
      <trkpt lat="49.34957" lon="1.32807">
        <ele>47</ele>
        <time>2017-05-23T14:18:05Z</time>
      </trkpt>
      <trkpt lat="49.34953" lon="1.32804">
        <ele>47</ele>
        <time>2017-05-23T14:18:05Z</time>
      </trkpt>
      <trkpt lat="49.3495" lon="1.32803">
        <ele>47</ele>
        <time>2017-05-23T14:18:05Z</time>
      </trkpt>
      <trkpt lat="49.34946" lon="1.32802">
        <ele>47</ele>
        <time>2017-05-23T14:18:05Z</time>
      </trkpt>
      <trkpt lat="49.34942" lon="1.32801">
        <ele>47</ele>
        <time>2017-05-23T14:18:21Z</time>
      </trkpt>
      <trkpt lat="49.34937" lon="1.32801">
        <ele>47</ele>
        <time>2017-05-23T14:18:21Z</time>
      </trkpt>
      <trkpt lat="49.34933" lon="1.32799">
        <ele>47</ele>
        <time>2017-05-23T14:18:21Z</time>
      </trkpt>
      <trkpt lat="49.34929" lon="1.328">
        <ele>47</ele>
        <time>2017-05-23T14:18:21Z</time>
      </trkpt>
      <trkpt lat="49.34926" lon="1.32798">
        <ele>47</ele>
        <time>2017-05-23T14:18:41Z</time>
      </trkpt>
      <trkpt lat="49.34923" lon="1.32797">
        <ele>47</ele>
        <time>2017-05-23T14:18:41Z</time>
      </trkpt>
      <trkpt lat="49.3492" lon="1.32796">
        <ele>47</ele>
        <time>2017-05-23T14:18:41Z</time>
      </trkpt>
      <trkpt lat="49.34918" lon="1.32797">
        <ele>47</ele>
        <time>2017-05-23T14:18:41Z</time>
      </trkpt>
      <trkpt lat="49.34915" lon="1.32794">
        <ele>47</ele>
        <time>2017-05-23T14:18:41Z</time>
      </trkpt>
      <trkpt lat="49.34915" lon="1.32794">
        <ele>47</ele>
        <time>2017-05-23T14:18:57Z</time>
      </trkpt>
      <trkpt lat="49.3491" lon="1.32792">
        <ele>47</ele>
        <time>2017-05-23T14:18:57Z</time>
      </trkpt>
      <trkpt lat="49.34907" lon="1.3279">
        <ele>49</ele>
        <time>2017-05-23T14:18:57Z</time>
      </trkpt>
      <trkpt lat="49.34902" lon="1.32791">
        <ele>49</ele>
        <time>2017-05-23T14:18:57Z</time>
      </trkpt>
      <trkpt lat="49.34896" lon="1.32789">
        <ele>49</ele>
        <time>2017-05-23T14:19:17Z</time>
      </trkpt>
      <trkpt lat="49.34892" lon="1.32788">
        <ele>49</ele>
        <time>2017-05-23T14:19:17Z</time>
      </trkpt>
      <trkpt lat="49.3489" lon="1.32786">
        <ele>49</ele>
        <time>2017-05-23T14:19:17Z</time>
      </trkpt>
      <trkpt lat="49.34888" lon="1.32788">
        <ele>49</ele>
        <time>2017-05-23T14:19:17Z</time>
      </trkpt>
      <trkpt lat="49.34886" lon="1.32786">
        <ele>49</ele>
        <time>2017-05-23T14:19:17Z</time>
      </trkpt>
      <trkpt lat="49.34882" lon="1.32784">
        <ele>49</ele>
        <time>2017-05-23T14:19:33Z</time>
      </trkpt>
      <trkpt lat="49.34878" lon="1.32782">
        <ele>49</ele>
        <time>2017-05-23T14:19:33Z</time>
      </trkpt>
      <trkpt lat="49.34874" lon="1.32781">
        <ele>63</ele>
        <time>2017-05-23T14:19:33Z</time>
      </trkpt>
      <trkpt lat="49.3487" lon="1.3278">
        <ele>63</ele>
        <time>2017-05-23T14:19:33Z</time>
      </trkpt>
      <trkpt lat="49.34866" lon="1.3278">
        <ele>63</ele>
        <time>2017-05-23T14:19:49Z</time>
      </trkpt>
      <trkpt lat="49.34862" lon="1.32777">
        <ele>63</ele>
        <time>2017-05-23T14:19:49Z</time>
      </trkpt>
      <trkpt lat="49.34856" lon="1.32777">
        <ele>63</ele>
        <time>2017-05-23T14:19:49Z</time>
      </trkpt>
      <trkpt lat="49.34852" lon="1.32777">
        <ele>63</ele>
        <time>2017-05-23T14:19:49Z</time>
      </trkpt>
      <trkpt lat="49.34851" lon="1.32776">
        <ele>63</ele>
        <time>2017-05-23T14:20:05Z</time>
      </trkpt>
      <trkpt lat="49.3485" lon="1.32776">
        <ele>63</ele>
        <time>2017-05-23T14:20:05Z</time>
      </trkpt>
      <trkpt lat="49.34845" lon="1.32774">
        <ele>63</ele>
        <time>2017-05-23T14:20:05Z</time>
      </trkpt>
      <trkpt lat="49.34841" lon="1.32773">
        <ele>63</ele>
        <time>2017-05-23T14:20:05Z</time>
      </trkpt>
      <trkpt lat="49.34831" lon="1.32769">
        <ele>63</ele>
        <time>2017-05-23T14:20:33Z</time>
      </trkpt>
      <trkpt lat="49.34831" lon="1.32768">
        <ele>63</ele>
        <time>2017-05-23T14:20:33Z</time>
      </trkpt>
      <trkpt lat="49.34828" lon="1.32767">
        <ele>63</ele>
        <time>2017-05-23T14:20:33Z</time>
      </trkpt>
      <trkpt lat="49.34825" lon="1.32764">
        <ele>63</ele>
        <time>2017-05-23T14:20:33Z</time>
      </trkpt>
      <trkpt lat="49.34822" lon="1.32767">
        <ele>63</ele>
        <time>2017-05-23T14:20:33Z</time>
      </trkpt>
      <trkpt lat="49.34817" lon="1.32764">
        <ele>63</ele>
        <time>2017-05-23T14:20:53Z</time>
      </trkpt>
      <trkpt lat="49.34816" lon="1.32763">
        <ele>63</ele>
        <time>2017-05-23T14:20:53Z</time>
      </trkpt>
      <trkpt lat="49.34814" lon="1.32763">
        <ele>63</ele>
        <time>2017-05-23T14:20:53Z</time>
      </trkpt>
      <trkpt lat="49.34813" lon="1.32763">
        <ele>63</ele>
        <time>2017-05-23T14:20:53Z</time>
      </trkpt>
      <trkpt lat="49.34807" lon="1.32764">
        <ele>63</ele>
        <time>2017-05-23T14:20:53Z</time>
      </trkpt>
      <trkpt lat="49.348" lon="1.3276">
        <ele>63</ele>
        <time>2017-05-23T14:21:09Z</time>
      </trkpt>
      <trkpt lat="49.34798" lon="1.32751">
        <ele>63</ele>
        <time>2017-05-23T14:21:09Z</time>
      </trkpt>
      <trkpt lat="49.3479" lon="1.32763">
        <ele>75</ele>
        <time>2017-05-23T14:21:09Z</time>
      </trkpt>
      <trkpt lat="49.34783" lon="1.32766">
        <ele>75</ele>
        <time>2017-05-23T14:21:09Z</time>
      </trkpt>
      <trkpt lat="49.34779" lon="1.32761">
        <ele>75</ele>
        <time>2017-05-23T14:21:25Z</time>
      </trkpt>
      <trkpt lat="49.34776" lon="1.32759">
        <ele>75</ele>
        <time>2017-05-23T14:21:25Z</time>
      </trkpt>
      <trkpt lat="49.34771" lon="1.3275">
        <ele>75</ele>
        <time>2017-05-23T14:21:25Z</time>
      </trkpt>
      <trkpt lat="49.34765" lon="1.32748">
        <ele>75</ele>
        <time>2017-05-23T14:21:25Z</time>
      </trkpt>
      <trkpt lat="49.34762" lon="1.32745">
        <ele>75</ele>
        <time>2017-05-23T14:21:41Z</time>
      </trkpt>
      <trkpt lat="49.34758" lon="1.32746">
        <ele>75</ele>
        <time>2017-05-23T14:21:41Z</time>
      </trkpt>
      <trkpt lat="49.34755" lon="1.32748">
        <ele>75</ele>
        <time>2017-05-23T14:21:41Z</time>
      </trkpt>
      <trkpt lat="49.3475" lon="1.3275">
        <ele>75</ele>
        <time>2017-05-23T14:21:41Z</time>
      </trkpt>
      <trkpt lat="49.34743" lon="1.32752">
        <ele>75</ele>
        <time>2017-05-23T14:22:05Z</time>
      </trkpt>
      <trkpt lat="49.34743" lon="1.32754">
        <ele>75</ele>
        <time>2017-05-23T14:22:05Z</time>
      </trkpt>
      <trkpt lat="49.34742" lon="1.32754">
        <ele>75</ele>
        <time>2017-05-23T14:22:05Z</time>
      </trkpt>
      <trkpt lat="49.34741" lon="1.32755">
        <ele>75</ele>
        <time>2017-05-23T14:22:05Z</time>
      </trkpt>
      <trkpt lat="49.34735" lon="1.32758">
        <ele>75</ele>
        <time>2017-05-23T14:22:06Z</time>
      </trkpt>
      <trkpt lat="49.34729" lon="1.32761">
        <ele>75</ele>
        <time>2017-05-23T14:22:21Z</time>
      </trkpt>
      <trkpt lat="49.34723" lon="1.32766">
        <ele>75</ele>
        <time>2017-05-23T14:22:21Z</time>
      </trkpt>
      <trkpt lat="49.34719" lon="1.32767">
        <ele>75</ele>
        <time>2017-05-23T14:22:21Z</time>
      </trkpt>
      <trkpt lat="49.34716" lon="1.32765">
        <ele>75</ele>
        <time>2017-05-23T14:22:21Z</time>
      </trkpt>
      <trkpt lat="49.34711" lon="1.32767">
        <ele>75</ele>
        <time>2017-05-23T14:22:37Z</time>
      </trkpt>
      <trkpt lat="49.34708" lon="1.32769">
        <ele>73</ele>
        <time>2017-05-23T14:22:38Z</time>
      </trkpt>
      <trkpt lat="49.34704" lon="1.32771">
        <ele>73</ele>
        <time>2017-05-23T14:22:38Z</time>
      </trkpt>
      <trkpt lat="49.347" lon="1.32774">
        <ele>73</ele>
        <time>2017-05-23T14:22:38Z</time>
      </trkpt>
      <trkpt lat="49.34685" lon="1.32777">
        <ele>73</ele>
        <time>2017-05-23T14:23:09Z</time>
      </trkpt>
      <trkpt lat="49.34684" lon="1.32777">
        <ele>73</ele>
        <time>2017-05-23T14:23:09Z</time>
      </trkpt>
      <trkpt lat="49.34679" lon="1.32781">
        <ele>73</ele>
        <time>2017-05-23T14:23:09Z</time>
      </trkpt>
      <trkpt lat="49.34674" lon="1.32781">
        <ele>73</ele>
        <time>2017-05-23T14:23:09Z</time>
      </trkpt>
      <trkpt lat="49.34671" lon="1.32785">
        <ele>73</ele>
        <time>2017-05-23T14:23:09Z</time>
      </trkpt>
      <trkpt lat="49.34666" lon="1.32798">
        <ele>79</ele>
        <time>2017-05-23T14:30:13Z</time>
      </trkpt>
      <trkpt lat="49.34666" lon="1.32799">
        <ele>79</ele>
        <time>2017-05-23T14:30:13Z</time>
      </trkpt>
      <trkpt lat="49.34666" lon="1.328">
        <ele>79</ele>
        <time>2017-05-23T14:30:13Z</time>
      </trkpt>
      <trkpt lat="49.34665" lon="1.328">
        <ele>79</ele>
        <time>2017-05-23T14:30:13Z</time>
      </trkpt>
      <trkpt lat="49.34664" lon="1.328">
        <ele>79</ele>
        <time>2017-05-23T14:30:13Z</time>
      </trkpt>
      <trkpt lat="49.34652" lon="1.32807">
        <ele>79</ele>
        <time>2017-05-23T14:30:29Z</time>
      </trkpt>
      <trkpt lat="49.34645" lon="1.32812">
        <ele>79</ele>
        <time>2017-05-23T14:30:29Z</time>
      </trkpt>
      <trkpt lat="49.34637" lon="1.32819">
        <ele>79</ele>
        <time>2017-05-23T14:30:29Z</time>
      </trkpt>
      <trkpt lat="49.34631" lon="1.32825">
        <ele>79</ele>
        <time>2017-05-23T14:30:29Z</time>
      </trkpt>
      <trkpt lat="49.3463" lon="1.32824">
        <ele>79</ele>
        <time>2017-05-23T14:30:45Z</time>
      </trkpt>
      <trkpt lat="49.34626" lon="1.32827">
        <ele>79</ele>
        <time>2017-05-23T14:30:45Z</time>
      </trkpt>
      <trkpt lat="49.34623" lon="1.32829">
        <ele>62</ele>
        <time>2017-05-23T14:30:45Z</time>
      </trkpt>
      <trkpt lat="49.3462" lon="1.32833">
        <ele>62</ele>
        <time>2017-05-23T14:30:45Z</time>
      </trkpt>
      <trkpt lat="49.34617" lon="1.32836">
        <ele>62</ele>
        <time>2017-05-23T14:31:01Z</time>
      </trkpt>
      <trkpt lat="49.34612" lon="1.3284">
        <ele>62</ele>
        <time>2017-05-23T14:31:01Z</time>
      </trkpt>
      <trkpt lat="49.34608" lon="1.32845">
        <ele>62</ele>
        <time>2017-05-23T14:31:01Z</time>
      </trkpt>
      <trkpt lat="49.34603" lon="1.3285">
        <ele>62</ele>
        <time>2017-05-23T14:31:01Z</time>
      </trkpt>
      <trkpt lat="49.34599" lon="1.32856">
        <ele>62</ele>
        <time>2017-05-23T14:31:17Z</time>
      </trkpt>
      <trkpt lat="49.34595" lon="1.3286">
        <ele>62</ele>
        <time>2017-05-23T14:31:17Z</time>
      </trkpt>
      <trkpt lat="49.3459" lon="1.32863">
        <ele>62</ele>
        <time>2017-05-23T14:31:17Z</time>
      </trkpt>
      <trkpt lat="49.34587" lon="1.32865">
        <ele>62</ele>
        <time>2017-05-23T14:31:17Z</time>
      </trkpt>
      <trkpt lat="49.34584" lon="1.32873">
        <ele>62</ele>
        <time>2017-05-23T14:31:33Z</time>
      </trkpt>
      <trkpt lat="49.3458" lon="1.32879">
        <ele>70</ele>
        <time>2017-05-23T14:31:33Z</time>
      </trkpt>
      <trkpt lat="49.34575" lon="1.32884">
        <ele>70</ele>
        <time>2017-05-23T14:31:33Z</time>
      </trkpt>
      <trkpt lat="49.34573" lon="1.32887">
        <ele>70</ele>
        <time>2017-05-23T14:31:33Z</time>
      </trkpt>
      <trkpt lat="49.3457" lon="1.32892">
        <ele>70</ele>
        <time>2017-05-23T14:31:49Z</time>
      </trkpt>
      <trkpt lat="49.34566" lon="1.32897">
        <ele>70</ele>
        <time>2017-05-23T14:31:49Z</time>
      </trkpt>
      <trkpt lat="49.34564" lon="1.329">
        <ele>70</ele>
        <time>2017-05-23T14:31:49Z</time>
      </trkpt>
      <trkpt lat="49.34561" lon="1.32904">
        <ele>70</ele>
        <time>2017-05-23T14:31:49Z</time>
      </trkpt>
      <trkpt lat="49.34559" lon="1.32904">
        <ele>70</ele>
        <time>2017-05-23T14:32:05Z</time>
      </trkpt>
      <trkpt lat="49.34555" lon="1.32908">
        <ele>70</ele>
        <time>2017-05-23T14:32:05Z</time>
      </trkpt>
      <trkpt lat="49.34549" lon="1.32914">
        <ele>70</ele>
        <time>2017-05-23T14:32:05Z</time>
      </trkpt>
      <trkpt lat="49.34544" lon="1.3292">
        <ele>70</ele>
        <time>2017-05-23T14:32:05Z</time>
      </trkpt>
      <trkpt lat="49.34539" lon="1.32923">
        <ele>53</ele>
        <time>2017-05-23T14:32:21Z</time>
      </trkpt>
      <trkpt lat="49.34537" lon="1.32923">
        <ele>53</ele>
        <time>2017-05-23T14:32:21Z</time>
      </trkpt>
      <trkpt lat="49.34533" lon="1.32925">
        <ele>53</ele>
        <time>2017-05-23T14:32:21Z</time>
      </trkpt>
      <trkpt lat="49.3453" lon="1.3293">
        <ele>53</ele>
        <time>2017-05-23T14:32:21Z</time>
      </trkpt>
      <trkpt lat="49.34527" lon="1.32931">
        <ele>53</ele>
        <time>2017-05-23T14:32:37Z</time>
      </trkpt>
      <trkpt lat="49.34523" lon="1.32934">
        <ele>53</ele>
        <time>2017-05-23T14:32:37Z</time>
      </trkpt>
      <trkpt lat="49.34519" lon="1.32939">
        <ele>53</ele>
        <time>2017-05-23T14:32:37Z</time>
      </trkpt>
      <trkpt lat="49.34515" lon="1.32947">
        <ele>53</ele>
        <time>2017-05-23T14:32:37Z</time>
      </trkpt>
      <trkpt lat="49.34511" lon="1.32955">
        <ele>53</ele>
        <time>2017-05-23T14:32:53Z</time>
      </trkpt>
      <trkpt lat="49.34508" lon="1.32957">
        <ele>53</ele>
        <time>2017-05-23T14:32:53Z</time>
      </trkpt>
      <trkpt lat="49.34503" lon="1.32959">
        <ele>61</ele>
        <time>2017-05-23T14:32:53Z</time>
      </trkpt>
      <trkpt lat="49.34502" lon="1.32959">
        <ele>61</ele>
        <time>2017-05-23T14:32:53Z</time>
      </trkpt>
      <trkpt lat="49.345" lon="1.32961">
        <ele>61</ele>
        <time>2017-05-23T14:33:09Z</time>
      </trkpt>
      <trkpt lat="49.34495" lon="1.32967">
        <ele>61</ele>
        <time>2017-05-23T14:33:09Z</time>
      </trkpt>
      <trkpt lat="49.34492" lon="1.32973">
        <ele>61</ele>
        <time>2017-05-23T14:33:09Z</time>
      </trkpt>
      <trkpt lat="49.34486" lon="1.32976">
        <ele>61</ele>
        <time>2017-05-23T14:33:09Z</time>
      </trkpt>
      <trkpt lat="49.34482" lon="1.32984">
        <ele>61</ele>
        <time>2017-05-23T14:33:25Z</time>
      </trkpt>
      <trkpt lat="49.34477" lon="1.32989">
        <ele>61</ele>
        <time>2017-05-23T14:33:25Z</time>
      </trkpt>
      <trkpt lat="49.34474" lon="1.32996">
        <ele>61</ele>
        <time>2017-05-23T14:33:25Z</time>
      </trkpt>
      <trkpt lat="49.34471" lon="1.32998">
        <ele>61</ele>
        <time>2017-05-23T14:33:25Z</time>
      </trkpt>
      <trkpt lat="49.34466" lon="1.33001">
        <ele>61</ele>
        <time>2017-05-23T14:33:41Z</time>
      </trkpt>
      <trkpt lat="49.3446" lon="1.33011">
        <ele>61</ele>
        <time>2017-05-23T14:33:41Z</time>
      </trkpt>
      <trkpt lat="49.34457" lon="1.33017">
        <ele>49</ele>
        <time>2017-05-23T14:33:41Z</time>
      </trkpt>
      <trkpt lat="49.34454" lon="1.33017">
        <ele>49</ele>
        <time>2017-05-23T14:33:41Z</time>
      </trkpt>
      <trkpt lat="49.34451" lon="1.33026">
        <ele>49</ele>
        <time>2017-05-23T14:34:13Z</time>
      </trkpt>
      <trkpt lat="49.34451" lon="1.33027">
        <ele>49</ele>
        <time>2017-05-23T14:34:13Z</time>
      </trkpt>
      <trkpt lat="49.34451" lon="1.33027">
        <ele>49</ele>
        <time>2017-05-23T14:34:13Z</time>
      </trkpt>
      <trkpt lat="49.34447" lon="1.33034">
        <ele>49</ele>
        <time>2017-05-23T14:34:13Z</time>
      </trkpt>
      <trkpt lat="49.34442" lon="1.33042">
        <ele>52</ele>
        <time>2017-05-23T14:34:13Z</time>
      </trkpt>
      <trkpt lat="49.34439" lon="1.33045">
        <ele>52</ele>
        <time>2017-05-23T14:34:29Z</time>
      </trkpt>
      <trkpt lat="49.34435" lon="1.33046">
        <ele>52</ele>
        <time>2017-05-23T14:34:29Z</time>
      </trkpt>
      <trkpt lat="49.3443" lon="1.33045">
        <ele>52</ele>
        <time>2017-05-23T14:34:29Z</time>
      </trkpt>
      <trkpt lat="49.34427" lon="1.33047">
        <ele>52</ele>
        <time>2017-05-23T14:34:29Z</time>
      </trkpt>
      <trkpt lat="49.34426" lon="1.33045">
        <ele>52</ele>
        <time>2017-05-23T14:34:45Z</time>
      </trkpt>
      <trkpt lat="49.34422" lon="1.33042">
        <ele>52</ele>
        <time>2017-05-23T14:34:45Z</time>
      </trkpt>
      <trkpt lat="49.34418" lon="1.33039">
        <ele>49</ele>
        <time>2017-05-23T14:34:45Z</time>
      </trkpt>
      <trkpt lat="49.34411" lon="1.33039">
        <ele>49</ele>
        <time>2017-05-23T14:34:45Z</time>
      </trkpt>
      <trkpt lat="49.34406" lon="1.33039">
        <ele>49</ele>
        <time>2017-05-23T14:35:01Z</time>
      </trkpt>
      <trkpt lat="49.34403" lon="1.33041">
        <ele>49</ele>
        <time>2017-05-23T14:35:01Z</time>
      </trkpt>
      <trkpt lat="49.34398" lon="1.33041">
        <ele>49</ele>
        <time>2017-05-23T14:35:01Z</time>
      </trkpt>
      <trkpt lat="49.34394" lon="1.33043">
        <ele>52</ele>
        <time>2017-05-23T14:35:01Z</time>
      </trkpt>
      <trkpt lat="49.3439" lon="1.33045">
        <ele>52</ele>
        <time>2017-05-23T14:35:17Z</time>
      </trkpt>
      <trkpt lat="49.34385" lon="1.33049">
        <ele>52</ele>
        <time>2017-05-23T14:35:17Z</time>
      </trkpt>
      <trkpt lat="49.34381" lon="1.33049">
        <ele>52</ele>
        <time>2017-05-23T14:35:17Z</time>
      </trkpt>
      <trkpt lat="49.34376" lon="1.33053">
        <ele>52</ele>
        <time>2017-05-23T14:35:17Z</time>
      </trkpt>
      <trkpt lat="49.34372" lon="1.33054">
        <ele>59</ele>
        <time>2017-05-23T14:35:37Z</time>
      </trkpt>
      <trkpt lat="49.34369" lon="1.33052">
        <ele>59</ele>
        <time>2017-05-23T14:35:37Z</time>
      </trkpt>
      <trkpt lat="49.34366" lon="1.33053">
        <ele>59</ele>
        <time>2017-05-23T14:35:37Z</time>
      </trkpt>
      <trkpt lat="49.34363" lon="1.33053">
        <ele>59</ele>
        <time>2017-05-23T14:35:37Z</time>
      </trkpt>
      <trkpt lat="49.34359" lon="1.33055">
        <ele>59</ele>
        <time>2017-05-23T14:35:37Z</time>
      </trkpt>
      <trkpt lat="49.34355" lon="1.33055">
        <ele>59</ele>
        <time>2017-05-23T14:35:57Z</time>
      </trkpt>
      <trkpt lat="49.34355" lon="1.33054">
        <ele>59</ele>
        <time>2017-05-23T14:35:57Z</time>
      </trkpt>
      <trkpt lat="49.34354" lon="1.33055">
        <ele>59</ele>
        <time>2017-05-23T14:35:57Z</time>
      </trkpt>
      <trkpt lat="49.34351" lon="1.33056">
        <ele>59</ele>
        <time>2017-05-23T14:35:57Z</time>
      </trkpt>
      <trkpt lat="49.34339" lon="1.33065">
        <ele>59</ele>
        <time>2017-05-23T14:35:57Z</time>
      </trkpt>
      <trkpt lat="49.34337" lon="1.33063">
        <ele>59</ele>
        <time>2017-05-23T14:36:13Z</time>
      </trkpt>
      <trkpt lat="49.34332" lon="1.33068">
        <ele>59</ele>
        <time>2017-05-23T14:36:13Z</time>
      </trkpt>
      <trkpt lat="49.34328" lon="1.33069">
        <ele>59</ele>
        <time>2017-05-23T14:36:13Z</time>
      </trkpt>
      <trkpt lat="49.34321" lon="1.33076">
        <ele>59</ele>
        <time>2017-05-23T14:36:13Z</time>
      </trkpt>
      <trkpt lat="49.34315" lon="1.33079">
        <ele>59</ele>
        <time>2017-05-23T14:36:53Z</time>
      </trkpt>
      <trkpt lat="49.34314" lon="1.33079">
        <ele>59</ele>
        <time>2017-05-23T14:36:53Z</time>
      </trkpt>
      <trkpt lat="49.34306" lon="1.33079">
        <ele>59</ele>
        <time>2017-05-23T14:36:53Z</time>
      </trkpt>
      <trkpt lat="49.34298" lon="1.33082">
        <ele>59</ele>
        <time>2017-05-23T14:36:53Z</time>
      </trkpt>
      <trkpt lat="49.34293" lon="1.33085">
        <ele>59</ele>
        <time>2017-05-23T14:36:53Z</time>
      </trkpt>
      <trkpt lat="49.34284" lon="1.33082">
        <ele>73</ele>
        <time>2017-05-23T14:37:21Z</time>
      </trkpt>
      <trkpt lat="49.34283" lon="1.33081">
        <ele>73</ele>
        <time>2017-05-23T14:37:21Z</time>
      </trkpt>
      <trkpt lat="49.34282" lon="1.3308">
        <ele>73</ele>
        <time>2017-05-23T14:37:21Z</time>
      </trkpt>
      <trkpt lat="49.34281" lon="1.33076">
        <ele>73</ele>
        <time>2017-05-23T14:37:21Z</time>
      </trkpt>
      <trkpt lat="49.34276" lon="1.33068">
        <ele>73</ele>
        <time>2017-05-23T14:37:21Z</time>
      </trkpt>
      <trkpt lat="49.34271" lon="1.33066">
        <ele>73</ele>
        <time>2017-05-23T14:37:37Z</time>
      </trkpt>
      <trkpt lat="49.34268" lon="1.33065">
        <ele>73</ele>
        <time>2017-05-23T14:37:37Z</time>
      </trkpt>
      <trkpt lat="49.34267" lon="1.33056">
        <ele>73</ele>
        <time>2017-05-23T14:37:37Z</time>
      </trkpt>
      <trkpt lat="49.34262" lon="1.33051">
        <ele>73</ele>
        <time>2017-05-23T14:37:37Z</time>
      </trkpt>
      <trkpt lat="49.34257" lon="1.33048">
        <ele>73</ele>
        <time>2017-05-23T14:37:57Z</time>
      </trkpt>
      <trkpt lat="49.34252" lon="1.33048">
        <ele>73</ele>
        <time>2017-05-23T14:37:57Z</time>
      </trkpt>
      <trkpt lat="49.34251" lon="1.33048">
        <ele>73</ele>
        <time>2017-05-23T14:37:57Z</time>
      </trkpt>
      <trkpt lat="49.34249" lon="1.33044">
        <ele>73</ele>
        <time>2017-05-23T14:37:57Z</time>
      </trkpt>
      <trkpt lat="49.34248" lon="1.33043">
        <ele>73</ele>
        <time>2017-05-23T14:37:57Z</time>
      </trkpt>
      <trkpt lat="49.34245" lon="1.33041">
        <ele>78</ele>
        <time>2017-05-23T14:38:13Z</time>
      </trkpt>
      <trkpt lat="49.34238" lon="1.33042">
        <ele>73</ele>
        <time>2017-05-23T14:38:13Z</time>
      </trkpt>
      <trkpt lat="49.34234" lon="1.33036">
        <ele>78</ele>
        <time>2017-05-23T14:38:13Z</time>
      </trkpt>
      <trkpt lat="49.34232" lon="1.33034">
        <ele>78</ele>
        <time>2017-05-23T14:38:13Z</time>
      </trkpt>
      <trkpt lat="49.3423" lon="1.33031">
        <ele>78</ele>
        <time>2017-05-23T14:38:29Z</time>
      </trkpt>
      <trkpt lat="49.34227" lon="1.33026">
        <ele>78</ele>
        <time>2017-05-23T14:38:29Z</time>
      </trkpt>
      <trkpt lat="49.34224" lon="1.33027">
        <ele>78</ele>
        <time>2017-05-23T14:38:29Z</time>
      </trkpt>
      <trkpt lat="49.34219" lon="1.33027">
        <ele>78</ele>
        <time>2017-05-23T14:38:29Z</time>
      </trkpt>
      <trkpt lat="49.34212" lon="1.33025">
        <ele>78</ele>
        <time>2017-05-23T14:38:45Z</time>
      </trkpt>
      <trkpt lat="49.34207" lon="1.33022">
        <ele>85</ele>
        <time>2017-05-23T14:38:45Z</time>
      </trkpt>
      <trkpt lat="49.34201" lon="1.33025">
        <ele>85</ele>
        <time>2017-05-23T14:38:45Z</time>
      </trkpt>
      <trkpt lat="49.34199" lon="1.33026">
        <ele>85</ele>
        <time>2017-05-23T14:38:45Z</time>
      </trkpt>
      <trkpt lat="49.34195" lon="1.33026">
        <ele>85</ele>
        <time>2017-05-23T14:39:05Z</time>
      </trkpt>
      <trkpt lat="49.34194" lon="1.33024">
        <ele>85</ele>
        <time>2017-05-23T14:39:05Z</time>
      </trkpt>
      <trkpt lat="49.34192" lon="1.33023">
        <ele>85</ele>
        <time>2017-05-23T14:39:05Z</time>
      </trkpt>
      <trkpt lat="49.34187" lon="1.33024">
        <ele>85</ele>
        <time>2017-05-23T14:39:05Z</time>
      </trkpt>
      <trkpt lat="49.34183" lon="1.33028">
        <ele>85</ele>
        <time>2017-05-23T14:39:05Z</time>
      </trkpt>
      <trkpt lat="49.34179" lon="1.33032">
        <ele>85</ele>
        <time>2017-05-23T14:39:21Z</time>
      </trkpt>
      <trkpt lat="49.34176" lon="1.33032">
        <ele>85</ele>
        <time>2017-05-23T14:39:21Z</time>
      </trkpt>
      <trkpt lat="49.34172" lon="1.33036">
        <ele>85</ele>
        <time>2017-05-23T14:39:21Z</time>
      </trkpt>
      <trkpt lat="49.34168" lon="1.33038">
        <ele>85</ele>
        <time>2017-05-23T14:39:21Z</time>
      </trkpt>
      <trkpt lat="49.34164" lon="1.33041">
        <ele>85</ele>
        <time>2017-05-23T14:39:37Z</time>
      </trkpt>
      <trkpt lat="49.34158" lon="1.33042">
        <ele>79</ele>
        <time>2017-05-23T14:39:37Z</time>
      </trkpt>
      <trkpt lat="49.34155" lon="1.33042">
        <ele>79</ele>
        <time>2017-05-23T14:39:37Z</time>
      </trkpt>
      <trkpt lat="49.3415" lon="1.33043">
        <ele>79</ele>
        <time>2017-05-23T14:39:37Z</time>
      </trkpt>
      <trkpt lat="49.34145" lon="1.33045">
        <ele>79</ele>
        <time>2017-05-23T14:39:53Z</time>
      </trkpt>
      <trkpt lat="49.34141" lon="1.33046">
        <ele>79</ele>
        <time>2017-05-23T14:39:53Z</time>
      </trkpt>
      <trkpt lat="49.34138" lon="1.33044">
        <ele>79</ele>
        <time>2017-05-23T14:39:53Z</time>
      </trkpt>
      <trkpt lat="49.34132" lon="1.33046">
        <ele>79</ele>
        <time>2017-05-23T14:39:53Z</time>
      </trkpt>
      <trkpt lat="49.34127" lon="1.33049">
        <ele>79</ele>
        <time>2017-05-23T14:40:09Z</time>
      </trkpt>
      <trkpt lat="49.3412" lon="1.33057">
        <ele>89</ele>
        <time>2017-05-23T14:40:09Z</time>
      </trkpt>
      <trkpt lat="49.34118" lon="1.33059">
        <ele>89</ele>
        <time>2017-05-23T14:40:09Z</time>
      </trkpt>
      <trkpt lat="49.34112" lon="1.33064">
        <ele>89</ele>
        <time>2017-05-23T14:40:09Z</time>
      </trkpt>
      <trkpt lat="49.3411" lon="1.33065">
        <ele>89</ele>
        <time>2017-05-23T14:40:25Z</time>
      </trkpt>
      <trkpt lat="49.34108" lon="1.33064">
        <ele>89</ele>
        <time>2017-05-23T14:40:25Z</time>
      </trkpt>
      <trkpt lat="49.34102" lon="1.33067">
        <ele>89</ele>
        <time>2017-05-23T14:40:25Z</time>
      </trkpt>
      <trkpt lat="49.34098" lon="1.33069">
        <ele>89</ele>
        <time>2017-05-23T14:40:25Z</time>
      </trkpt>
      <trkpt lat="49.34094" lon="1.33074">
        <ele>89</ele>
        <time>2017-05-23T14:40:41Z</time>
      </trkpt>
      <trkpt lat="49.34086" lon="1.33082">
        <ele>89</ele>
        <time>2017-05-23T14:40:41Z</time>
      </trkpt>
      <trkpt lat="49.34082" lon="1.33086">
        <ele>89</ele>
        <time>2017-05-23T14:40:41Z</time>
      </trkpt>
      <trkpt lat="49.34079" lon="1.33088">
        <ele>89</ele>
        <time>2017-05-23T14:40:41Z</time>
      </trkpt>
      <trkpt lat="49.34079" lon="1.33088">
        <ele>89</ele>
        <time>2017-05-23T14:40:57Z</time>
      </trkpt>
      <trkpt lat="49.34079" lon="1.33091">
        <ele>89</ele>
        <time>2017-05-23T14:40:57Z</time>
      </trkpt>
      <trkpt lat="49.34072" lon="1.33092">
        <ele>89</ele>
        <time>2017-05-23T14:40:57Z</time>
      </trkpt>
      <trkpt lat="49.34069" lon="1.33095">
        <ele>89</ele>
        <time>2017-05-23T14:40:57Z</time>
      </trkpt>
      <trkpt lat="49.34062" lon="1.33104">
        <ele>89</ele>
        <time>2017-05-23T14:41:13Z</time>
      </trkpt>
      <trkpt lat="49.3406" lon="1.33109">
        <ele>89</ele>
        <time>2017-05-23T14:41:13Z</time>
      </trkpt>
      <trkpt lat="49.34058" lon="1.3311">
        <ele>89</ele>
        <time>2017-05-23T14:41:13Z</time>
      </trkpt>
      <trkpt lat="49.34054" lon="1.33111">
        <ele>89</ele>
        <time>2017-05-23T14:41:13Z</time>
      </trkpt>
      <trkpt lat="49.34047" lon="1.33116">
        <ele>89</ele>
        <time>2017-05-23T14:41:29Z</time>
      </trkpt>
      <trkpt lat="49.34042" lon="1.33124">
        <ele>89</ele>
        <time>2017-05-23T14:41:29Z</time>
      </trkpt>
      <trkpt lat="49.34038" lon="1.33126">
        <ele>104</ele>
        <time>2017-05-23T14:41:29Z</time>
      </trkpt>
      <trkpt lat="49.34037" lon="1.33128">
        <ele>104</ele>
        <time>2017-05-23T14:41:29Z</time>
      </trkpt>
      <trkpt lat="49.34034" lon="1.33132">
        <ele>104</ele>
        <time>2017-05-23T14:41:45Z</time>
      </trkpt>
      <trkpt lat="49.34033" lon="1.33133">
        <ele>104</ele>
        <time>2017-05-23T14:41:45Z</time>
      </trkpt>
      <trkpt lat="49.34029" lon="1.33137">
        <ele>104</ele>
        <time>2017-05-23T14:41:45Z</time>
      </trkpt>
      <trkpt lat="49.34027" lon="1.33141">
        <ele>104</ele>
        <time>2017-05-23T14:41:45Z</time>
      </trkpt>
      <trkpt lat="49.34021" lon="1.33147">
        <ele>104</ele>
        <time>2017-05-23T14:42:01Z</time>
      </trkpt>
      <trkpt lat="49.34019" lon="1.3315">
        <ele>104</ele>
        <time>2017-05-23T14:42:01Z</time>
      </trkpt>
      <trkpt lat="49.34017" lon="1.33155">
        <ele>104</ele>
        <time>2017-05-23T14:42:01Z</time>
      </trkpt>
      <trkpt lat="49.34016" lon="1.3316">
        <ele>104</ele>
        <time>2017-05-23T14:42:01Z</time>
      </trkpt>
      <trkpt lat="49.3401" lon="1.33164">
        <ele>104</ele>
        <time>2017-05-23T14:42:17Z</time>
      </trkpt>
      <trkpt lat="49.34004" lon="1.33168">
        <ele>104</ele>
        <time>2017-05-23T14:42:17Z</time>
      </trkpt>
      <trkpt lat="49.34" lon="1.33166">
        <ele>104</ele>
        <time>2017-05-23T14:42:17Z</time>
      </trkpt>
      <trkpt lat="49.33996" lon="1.33165">
        <ele>104</ele>
        <time>2017-05-23T14:42:17Z</time>
      </trkpt>
      <trkpt lat="49.33992" lon="1.33164">
        <ele>104</ele>
        <time>2017-05-23T14:42:41Z</time>
      </trkpt>
      <trkpt lat="49.33991" lon="1.33163">
        <ele>104</ele>
        <time>2017-05-23T14:42:41Z</time>
      </trkpt>
      <trkpt lat="49.3399" lon="1.33163">
        <ele>104</ele>
        <time>2017-05-23T14:42:41Z</time>
      </trkpt>
      <trkpt lat="49.3399" lon="1.33163">
        <ele>104</ele>
        <time>2017-05-23T14:42:41Z</time>
      </trkpt>
      <trkpt lat="49.33983" lon="1.33161">
        <ele>104</ele>
        <time>2017-05-23T14:42:41Z</time>
      </trkpt>
      <trkpt lat="49.33981" lon="1.33154">
        <ele>104</ele>
        <time>2017-05-23T14:42:57Z</time>
      </trkpt>
      <trkpt lat="49.33974" lon="1.33154">
        <ele>104</ele>
        <time>2017-05-23T14:42:57Z</time>
      </trkpt>
      <trkpt lat="49.33971" lon="1.33157">
        <ele>104</ele>
        <time>2017-05-23T14:42:57Z</time>
      </trkpt>
      <trkpt lat="49.33968" lon="1.33164">
        <ele>104</ele>
        <time>2017-05-23T14:42:57Z</time>
      </trkpt>
      <trkpt lat="49.33962" lon="1.3316">
        <ele>104</ele>
        <time>2017-05-23T14:43:25Z</time>
      </trkpt>
      <trkpt lat="49.33961" lon="1.3316">
        <ele>104</ele>
        <time>2017-05-23T14:43:25Z</time>
      </trkpt>
      <trkpt lat="49.33953" lon="1.33168">
        <ele>113</ele>
        <time>2017-05-23T14:43:25Z</time>
      </trkpt>
      <trkpt lat="49.33945" lon="1.33166">
        <ele>113</ele>
        <time>2017-05-23T14:43:25Z</time>
      </trkpt>
      <trkpt lat="49.33937" lon="1.33169">
        <ele>113</ele>
        <time>2017-05-23T14:43:25Z</time>
      </trkpt>
      <trkpt lat="49.33928" lon="1.33172">
        <ele>113</ele>
        <time>2017-05-23T14:43:53Z</time>
      </trkpt>
      <trkpt lat="49.33924" lon="1.33175">
        <ele>113</ele>
        <time>2017-05-23T14:43:54Z</time>
      </trkpt>
      <trkpt lat="49.33916" lon="1.3318">
        <ele>113</ele>
        <time>2017-05-23T14:43:54Z</time>
      </trkpt>
      <trkpt lat="49.33912" lon="1.33181">
        <ele>113</ele>
        <time>2017-05-23T14:43:54Z</time>
      </trkpt>
      <trkpt lat="49.33907" lon="1.33184">
        <ele>113</ele>
        <time>2017-05-23T14:43:54Z</time>
      </trkpt>
      <trkpt lat="49.33904" lon="1.33186">
        <ele>113</ele>
        <time>2017-05-23T14:44:09Z</time>
      </trkpt>
      <trkpt lat="49.33901" lon="1.33188">
        <ele>113</ele>
        <time>2017-05-23T14:44:09Z</time>
      </trkpt>
      <trkpt lat="49.33897" lon="1.33191">
        <ele>113</ele>
        <time>2017-05-23T14:44:09Z</time>
      </trkpt>
      <trkpt lat="49.33892" lon="1.33195">
        <ele>113</ele>
        <time>2017-05-23T14:44:09Z</time>
      </trkpt>
      <trkpt lat="49.33887" lon="1.33194">
        <ele>113</ele>
        <time>2017-05-23T14:44:25Z</time>
      </trkpt>
      <trkpt lat="49.33883" lon="1.33191">
        <ele>113</ele>
        <time>2017-05-23T14:44:25Z</time>
      </trkpt>
      <trkpt lat="49.3388" lon="1.3319">
        <ele>113</ele>
        <time>2017-05-23T14:44:25Z</time>
      </trkpt>
      <trkpt lat="49.33876" lon="1.3319">
        <ele>113</ele>
        <time>2017-05-23T14:44:25Z</time>
      </trkpt>
      <trkpt lat="49.33876" lon="1.3319">
        <ele>113</ele>
        <time>2017-05-23T14:44:41Z</time>
      </trkpt>
      <trkpt lat="49.33874" lon="1.33189">
        <ele>123</ele>
        <time>2017-05-23T14:44:41Z</time>
      </trkpt>
      <trkpt lat="49.33869" lon="1.33191">
        <ele>123</ele>
        <time>2017-05-23T14:44:41Z</time>
      </trkpt>
      <trkpt lat="49.33864" lon="1.33194">
        <ele>123</ele>
        <time>2017-05-23T14:44:41Z</time>
      </trkpt>
      <trkpt lat="49.33859" lon="1.33194">
        <ele>123</ele>
        <time>2017-05-23T14:44:57Z</time>
      </trkpt>
      <trkpt lat="49.33854" lon="1.33195">
        <ele>123</ele>
        <time>2017-05-23T14:44:57Z</time>
      </trkpt>
      <trkpt lat="49.33849" lon="1.33197">
        <ele>123</ele>
        <time>2017-05-23T14:44:57Z</time>
      </trkpt>
      <trkpt lat="49.33844" lon="1.33197">
        <ele>123</ele>
        <time>2017-05-23T14:44:57Z</time>
      </trkpt>
      <trkpt lat="49.33838" lon="1.33194">
        <ele>123</ele>
        <time>2017-05-23T14:45:53Z</time>
      </trkpt>
      <trkpt lat="49.33838" lon="1.33194">
        <ele>123</ele>
        <time>2017-05-23T14:45:53Z</time>
      </trkpt>
      <trkpt lat="49.33835" lon="1.33191">
        <ele>123</ele>
        <time>2017-05-23T14:45:53Z</time>
      </trkpt>
      <trkpt lat="49.33833" lon="1.33191">
        <ele>123</ele>
        <time>2017-05-23T14:45:53Z</time>
      </trkpt>
      <trkpt lat="49.33832" lon="1.33194">
        <ele>123</ele>
        <time>2017-05-23T14:45:53Z</time>
      </trkpt>
      <trkpt lat="49.33832" lon="1.33194">
        <ele>123</ele>
        <time>2017-05-23T14:51:01Z</time>
      </trkpt>
      <trkpt lat="49.33831" lon="1.33195">
        <ele>123</ele>
        <time>2017-05-23T14:51:01Z</time>
      </trkpt>
      <trkpt lat="49.33829" lon="1.33197">
        <ele>123</ele>
        <time>2017-05-23T14:51:01Z</time>
      </trkpt>
      <trkpt lat="49.33827" lon="1.332">
        <ele>123</ele>
        <time>2017-05-23T14:51:01Z</time>
      </trkpt>
      <trkpt lat="49.33824" lon="1.33203">
        <ele>123</ele>
        <time>2017-05-23T14:51:01Z</time>
      </trkpt>
      <trkpt lat="49.33821" lon="1.33205">
        <ele>123</ele>
        <time>2017-05-23T14:51:17Z</time>
      </trkpt>
      <trkpt lat="49.33816" lon="1.33209">
        <ele>119</ele>
        <time>2017-05-23T14:51:17Z</time>
      </trkpt>
      <trkpt lat="49.33813" lon="1.33209">
        <ele>119</ele>
        <time>2017-05-23T14:51:17Z</time>
      </trkpt>
      <trkpt lat="49.33809" lon="1.33214">
        <ele>119</ele>
        <time>2017-05-23T14:51:17Z</time>
      </trkpt>
      <trkpt lat="49.33806" lon="1.33218">
        <ele>119</ele>
        <time>2017-05-23T14:51:33Z</time>
      </trkpt>
      <trkpt lat="49.33802" lon="1.3322">
        <ele>119</ele>
        <time>2017-05-23T14:51:33Z</time>
      </trkpt>
      <trkpt lat="49.33798" lon="1.33221">
        <ele>119</ele>
        <time>2017-05-23T14:51:33Z</time>
      </trkpt>
      <trkpt lat="49.33794" lon="1.33225">
        <ele>119</ele>
        <time>2017-05-23T14:51:33Z</time>
      </trkpt>
      <trkpt lat="49.33789" lon="1.33229">
        <ele>123</ele>
        <time>2017-05-23T14:51:49Z</time>
      </trkpt>
      <trkpt lat="49.33784" lon="1.33232">
        <ele>123</ele>
        <time>2017-05-23T14:51:49Z</time>
      </trkpt>
      <trkpt lat="49.3378" lon="1.33236">
        <ele>123</ele>
        <time>2017-05-23T14:51:49Z</time>
      </trkpt>
      <trkpt lat="49.33776" lon="1.33237">
        <ele>123</ele>
        <time>2017-05-23T14:51:49Z</time>
      </trkpt>
      <trkpt lat="49.33772" lon="1.3324">
        <ele>123</ele>
        <time>2017-05-23T14:52:05Z</time>
      </trkpt>
      <trkpt lat="49.33768" lon="1.33242">
        <ele>123</ele>
        <time>2017-05-23T14:52:05Z</time>
      </trkpt>
      <trkpt lat="49.33764" lon="1.33246">
        <ele>123</ele>
        <time>2017-05-23T14:52:05Z</time>
      </trkpt>
      <trkpt lat="49.3376" lon="1.33248">
        <ele>123</ele>
        <time>2017-05-23T14:52:05Z</time>
      </trkpt>
      <trkpt lat="49.33756" lon="1.33254">
        <ele>123</ele>
        <time>2017-05-23T14:52:21Z</time>
      </trkpt>
      <trkpt lat="49.33752" lon="1.33258">
        <ele>123</ele>
        <time>2017-05-23T14:52:22Z</time>
      </trkpt>
      <trkpt lat="49.33748" lon="1.33263">
        <ele>123</ele>
        <time>2017-05-23T14:52:22Z</time>
      </trkpt>
      <trkpt lat="49.33743" lon="1.33261">
        <ele>123</ele>
        <time>2017-05-23T14:52:22Z</time>
      </trkpt>
      <trkpt lat="49.33741" lon="1.33262">
        <ele>123</ele>
        <time>2017-05-23T14:52:37Z</time>
      </trkpt>
      <trkpt lat="49.33737" lon="1.33262">
        <ele>123</ele>
        <time>2017-05-23T14:52:37Z</time>
      </trkpt>
      <trkpt lat="49.33734" lon="1.33262">
        <ele>123</ele>
        <time>2017-05-23T14:52:37Z</time>
      </trkpt>
      <trkpt lat="49.3373" lon="1.3326">
        <ele>123</ele>
        <time>2017-05-23T14:52:37Z</time>
      </trkpt>
      <trkpt lat="49.33725" lon="1.33262">
        <ele>123</ele>
        <time>2017-05-23T14:52:53Z</time>
      </trkpt>
      <trkpt lat="49.33722" lon="1.33261">
        <ele>123</ele>
        <time>2017-05-23T14:52:54Z</time>
      </trkpt>
      <trkpt lat="49.33715" lon="1.33263">
        <ele>123</ele>
        <time>2017-05-23T14:52:54Z</time>
      </trkpt>
      <trkpt lat="49.3371" lon="1.33265">
        <ele>123</ele>
        <time>2017-05-23T14:52:54Z</time>
      </trkpt>
      <trkpt lat="49.33709" lon="1.33264">
        <ele>123</ele>
        <time>2017-05-23T14:53:13Z</time>
      </trkpt>
      <trkpt lat="49.33707" lon="1.33262">
        <ele>125</ele>
        <time>2017-05-23T14:53:13Z</time>
      </trkpt>
      <trkpt lat="49.33704" lon="1.33263">
        <ele>125</ele>
        <time>2017-05-23T14:53:13Z</time>
      </trkpt>
      <trkpt lat="49.337" lon="1.33265">
        <ele>125</ele>
        <time>2017-05-23T14:53:13Z</time>
      </trkpt>
      <trkpt lat="49.33696" lon="1.33268">
        <ele>125</ele>
        <time>2017-05-23T14:53:13Z</time>
      </trkpt>
      <trkpt lat="49.33688" lon="1.33267">
        <ele>125</ele>
        <time>2017-05-23T14:53:29Z</time>
      </trkpt>
      <trkpt lat="49.33684" lon="1.33267">
        <ele>125</ele>
        <time>2017-05-23T14:53:29Z</time>
      </trkpt>
      <trkpt lat="49.3368" lon="1.33266">
        <ele>125</ele>
        <time>2017-05-23T14:53:29Z</time>
      </trkpt>
      <trkpt lat="49.33677" lon="1.33265">
        <ele>125</ele>
        <time>2017-05-23T14:53:29Z</time>
      </trkpt>
      <trkpt lat="49.33673" lon="1.33268">
        <ele>125</ele>
        <time>2017-05-23T14:53:45Z</time>
      </trkpt>
      <trkpt lat="49.33668" lon="1.33269">
        <ele>125</ele>
        <time>2017-05-23T14:53:45Z</time>
      </trkpt>
      <trkpt lat="49.33663" lon="1.3327">
        <ele>125</ele>
        <time>2017-05-23T14:53:45Z</time>
      </trkpt>
      <trkpt lat="49.33659" lon="1.33269">
        <ele>125</ele>
        <time>2017-05-23T14:53:45Z</time>
      </trkpt>
      <trkpt lat="49.33655" lon="1.33269">
        <ele>125</ele>
        <time>2017-05-23T14:54:01Z</time>
      </trkpt>
      <trkpt lat="49.3365" lon="1.33272">
        <ele>125</ele>
        <time>2017-05-23T14:54:01Z</time>
      </trkpt>
      <trkpt lat="49.33646" lon="1.33273">
        <ele>125</ele>
        <time>2017-05-23T14:54:01Z</time>
      </trkpt>
      <trkpt lat="49.33642" lon="1.33272">
        <ele>125</ele>
        <time>2017-05-23T14:54:01Z</time>
      </trkpt>
      <trkpt lat="49.33638" lon="1.33272">
        <ele>125</ele>
        <time>2017-05-23T14:54:17Z</time>
      </trkpt>
      <trkpt lat="49.33637" lon="1.33269">
        <ele>125</ele>
        <time>2017-05-23T14:54:17Z</time>
      </trkpt>
      <trkpt lat="49.33629" lon="1.33274">
        <ele>125</ele>
        <time>2017-05-23T14:54:17Z</time>
      </trkpt>
      <trkpt lat="49.33625" lon="1.33274">
        <ele>125</ele>
        <time>2017-05-23T14:54:17Z</time>
      </trkpt>
      <trkpt lat="49.33622" lon="1.33273">
        <ele>125</ele>
        <time>2017-05-23T14:54:33Z</time>
      </trkpt>
      <trkpt lat="49.33619" lon="1.33274">
        <ele>125</ele>
        <time>2017-05-23T14:54:33Z</time>
      </trkpt>
      <trkpt lat="49.33614" lon="1.33277">
        <ele>125</ele>
        <time>2017-05-23T14:54:33Z</time>
      </trkpt>
      <trkpt lat="49.33609" lon="1.33279">
        <ele>125</ele>
        <time>2017-05-23T14:54:34Z</time>
      </trkpt>
      <trkpt lat="49.33605" lon="1.33281">
        <ele>125</ele>
        <time>2017-05-23T14:54:49Z</time>
      </trkpt>
      <trkpt lat="49.336" lon="1.33282">
        <ele>125</ele>
        <time>2017-05-23T14:54:49Z</time>
      </trkpt>
      <trkpt lat="49.33596" lon="1.33284">
        <ele>125</ele>
        <time>2017-05-23T14:54:49Z</time>
      </trkpt>
      <trkpt lat="49.33592" lon="1.33285">
        <ele>125</ele>
        <time>2017-05-23T14:54:49Z</time>
      </trkpt>
      <trkpt lat="49.33587" lon="1.33286">
        <ele>125</ele>
        <time>2017-05-23T14:55:05Z</time>
      </trkpt>
      <trkpt lat="49.33583" lon="1.33288">
        <ele>125</ele>
        <time>2017-05-23T14:55:05Z</time>
      </trkpt>
      <trkpt lat="49.33579" lon="1.33288">
        <ele>125</ele>
        <time>2017-05-23T14:55:05Z</time>
      </trkpt>
      <trkpt lat="49.33575" lon="1.33289">
        <ele>125</ele>
        <time>2017-05-23T14:55:05Z</time>
      </trkpt>
      <trkpt lat="49.3357" lon="1.3329">
        <ele>125</ele>
        <time>2017-05-23T14:55:21Z</time>
      </trkpt>
      <trkpt lat="49.33566" lon="1.3329">
        <ele>125</ele>
        <time>2017-05-23T14:55:21Z</time>
      </trkpt>
      <trkpt lat="49.33565" lon="1.33291">
        <ele>125</ele>
        <time>2017-05-23T14:55:21Z</time>
      </trkpt>
      <trkpt lat="49.33559" lon="1.33293">
        <ele>126</ele>
        <time>2017-05-23T14:55:21Z</time>
      </trkpt>
      <trkpt lat="49.33553" lon="1.33297">
        <ele>126</ele>
        <time>2017-05-23T14:55:37Z</time>
      </trkpt>
      <trkpt lat="49.33547" lon="1.333">
        <ele>126</ele>
        <time>2017-05-23T14:55:37Z</time>
      </trkpt>
      <trkpt lat="49.33543" lon="1.33302">
        <ele>126</ele>
        <time>2017-05-23T14:55:37Z</time>
      </trkpt>
      <trkpt lat="49.3354" lon="1.33306">
        <ele>127</ele>
        <time>2017-05-23T14:55:37Z</time>
      </trkpt>
      <trkpt lat="49.33538" lon="1.33306">
        <ele>127</ele>
        <time>2017-05-23T14:56:01Z</time>
      </trkpt>
      <trkpt lat="49.33536" lon="1.33308">
        <ele>127</ele>
        <time>2017-05-23T14:56:01Z</time>
      </trkpt>
      <trkpt lat="49.33535" lon="1.33309">
        <ele>127</ele>
        <time>2017-05-23T14:56:01Z</time>
      </trkpt>
      <trkpt lat="49.33533" lon="1.33309">
        <ele>127</ele>
        <time>2017-05-23T14:56:01Z</time>
      </trkpt>
      <trkpt lat="49.33528" lon="1.3331">
        <ele>127</ele>
        <time>2017-05-23T14:56:01Z</time>
      </trkpt>
      <trkpt lat="49.33517" lon="1.33313">
        <ele>127</ele>
        <time>2017-05-23T14:56:29Z</time>
      </trkpt>
      <trkpt lat="49.33515" lon="1.33314">
        <ele>127</ele>
        <time>2017-05-23T14:56:29Z</time>
      </trkpt>
      <trkpt lat="49.33507" lon="1.33319">
        <ele>127</ele>
        <time>2017-05-23T14:56:29Z</time>
      </trkpt>
      <trkpt lat="49.33503" lon="1.33321">
        <ele>127</ele>
        <time>2017-05-23T14:56:29Z</time>
      </trkpt>
      <trkpt lat="49.33497" lon="1.33324">
        <ele>127</ele>
        <time>2017-05-23T14:56:29Z</time>
      </trkpt>
      <trkpt lat="49.33494" lon="1.33324">
        <ele>127</ele>
        <time>2017-05-23T14:56:45Z</time>
      </trkpt>
      <trkpt lat="49.33489" lon="1.33324">
        <ele>127</ele>
        <time>2017-05-23T14:56:45Z</time>
      </trkpt>
      <trkpt lat="49.33485" lon="1.3333">
        <ele>127</ele>
        <time>2017-05-23T14:56:45Z</time>
      </trkpt>
      <trkpt lat="49.33477" lon="1.33335">
        <ele>127</ele>
        <time>2017-05-23T14:56:45Z</time>
      </trkpt>
      <trkpt lat="49.33473" lon="1.33337">
        <ele>127</ele>
        <time>2017-05-23T14:57:01Z</time>
      </trkpt>
      <trkpt lat="49.33467" lon="1.33341">
        <ele>127</ele>
        <time>2017-05-23T14:57:01Z</time>
      </trkpt>
      <trkpt lat="49.33463" lon="1.33341">
        <ele>127</ele>
        <time>2017-05-23T14:57:01Z</time>
      </trkpt>
      <trkpt lat="49.33461" lon="1.33341">
        <ele>127</ele>
        <time>2017-05-23T14:57:01Z</time>
      </trkpt>
      <trkpt lat="49.33464" lon="1.33337">
        <ele>127</ele>
        <time>2017-05-23T14:57:17Z</time>
      </trkpt>
      <trkpt lat="49.33462" lon="1.3334">
        <ele>127</ele>
        <time>2017-05-23T14:57:17Z</time>
      </trkpt>
      <trkpt lat="49.33455" lon="1.33346">
        <ele>128</ele>
        <time>2017-05-23T14:57:17Z</time>
      </trkpt>
      <trkpt lat="49.3345" lon="1.33349">
        <ele>128</ele>
        <time>2017-05-23T14:57:17Z</time>
      </trkpt>
      <trkpt lat="49.33443" lon="1.33352">
        <ele>128</ele>
        <time>2017-05-23T14:57:33Z</time>
      </trkpt>
      <trkpt lat="49.33437" lon="1.33355">
        <ele>128</ele>
        <time>2017-05-23T14:57:33Z</time>
      </trkpt>
      <trkpt lat="49.33433" lon="1.33355">
        <ele>128</ele>
        <time>2017-05-23T14:57:33Z</time>
      </trkpt>
      <trkpt lat="49.33429" lon="1.33356">
        <ele>128</ele>
        <time>2017-05-23T14:57:33Z</time>
      </trkpt>
      <trkpt lat="49.33426" lon="1.33357">
        <ele>128</ele>
        <time>2017-05-23T14:57:53Z</time>
      </trkpt>
      <trkpt lat="49.33421" lon="1.3336">
        <ele>128</ele>
        <time>2017-05-23T14:57:53Z</time>
      </trkpt>
      <trkpt lat="49.33419" lon="1.3336">
        <ele>128</ele>
        <time>2017-05-23T14:57:53Z</time>
      </trkpt>
      <trkpt lat="49.33419" lon="1.33361">
        <ele>128</ele>
        <time>2017-05-23T14:57:53Z</time>
      </trkpt>
      <trkpt lat="49.33416" lon="1.33363">
        <ele>128</ele>
        <time>2017-05-23T14:57:53Z</time>
      </trkpt>
      <trkpt lat="49.33413" lon="1.33366">
        <ele>128</ele>
        <time>2017-05-23T14:58:09Z</time>
      </trkpt>
      <trkpt lat="49.33409" lon="1.33371">
        <ele>128</ele>
        <time>2017-05-23T14:58:09Z</time>
      </trkpt>
      <trkpt lat="49.33405" lon="1.33375">
        <ele>128</ele>
        <time>2017-05-23T14:58:09Z</time>
      </trkpt>
      <trkpt lat="49.33402" lon="1.33376">
        <ele>130</ele>
        <time>2017-05-23T14:58:09Z</time>
      </trkpt>
      <trkpt lat="49.33399" lon="1.3338">
        <ele>130</ele>
        <time>2017-05-23T14:58:25Z</time>
      </trkpt>
      <trkpt lat="49.33394" lon="1.33383">
        <ele>130</ele>
        <time>2017-05-23T14:58:25Z</time>
      </trkpt>
      <trkpt lat="49.33389" lon="1.33388">
        <ele>130</ele>
        <time>2017-05-23T14:58:25Z</time>
      </trkpt>
      <trkpt lat="49.33387" lon="1.33393">
        <ele>130</ele>
        <time>2017-05-23T14:58:25Z</time>
      </trkpt>
      <trkpt lat="49.33382" lon="1.334">
        <ele>130</ele>
        <time>2017-05-23T14:58:41Z</time>
      </trkpt>
      <trkpt lat="49.33375" lon="1.33406">
        <ele>130</ele>
        <time>2017-05-23T14:58:41Z</time>
      </trkpt>
      <trkpt lat="49.33372" lon="1.3341">
        <ele>131</ele>
        <time>2017-05-23T14:58:41Z</time>
      </trkpt>
      <trkpt lat="49.33369" lon="1.33413">
        <ele>131</ele>
        <time>2017-05-23T14:58:41Z</time>
      </trkpt>
      <trkpt lat="49.33366" lon="1.33415">
        <ele>131</ele>
        <time>2017-05-23T14:58:57Z</time>
      </trkpt>
      <trkpt lat="49.33362" lon="1.33419">
        <ele>131</ele>
        <time>2017-05-23T14:58:57Z</time>
      </trkpt>
      <trkpt lat="49.33358" lon="1.33423">
        <ele>131</ele>
        <time>2017-05-23T14:58:57Z</time>
      </trkpt>
      <trkpt lat="49.33353" lon="1.33427">
        <ele>131</ele>
        <time>2017-05-23T14:58:57Z</time>
      </trkpt>
      <trkpt lat="49.33351" lon="1.33431">
        <ele>131</ele>
        <time>2017-05-23T14:59:13Z</time>
      </trkpt>
      <trkpt lat="49.33346" lon="1.33433">
        <ele>131</ele>
        <time>2017-05-23T14:59:13Z</time>
      </trkpt>
      <trkpt lat="49.33345" lon="1.33435">
        <ele>131</ele>
        <time>2017-05-23T14:59:14Z</time>
      </trkpt>
      <trkpt lat="49.33341" lon="1.33439">
        <ele>131</ele>
        <time>2017-05-23T14:59:14Z</time>
      </trkpt>
      <trkpt lat="49.33338" lon="1.33443">
        <ele>131</ele>
        <time>2017-05-23T14:59:29Z</time>
      </trkpt>
      <trkpt lat="49.33333" lon="1.33449">
        <ele>131</ele>
        <time>2017-05-23T14:59:30Z</time>
      </trkpt>
      <trkpt lat="49.33328" lon="1.33452">
        <ele>131</ele>
        <time>2017-05-23T14:59:30Z</time>
      </trkpt>
      <trkpt lat="49.33323" lon="1.33453">
        <ele>131</ele>
        <time>2017-05-23T14:59:30Z</time>
      </trkpt>
      <trkpt lat="49.33318" lon="1.33454">
        <ele>131</ele>
        <time>2017-05-23T14:59:45Z</time>
      </trkpt>
      <trkpt lat="49.33313" lon="1.33457">
        <ele>131</ele>
        <time>2017-05-23T14:59:45Z</time>
      </trkpt>
      <trkpt lat="49.33309" lon="1.3346">
        <ele>132</ele>
        <time>2017-05-23T14:59:45Z</time>
      </trkpt>
      <trkpt lat="49.33305" lon="1.33466">
        <ele>132</ele>
        <time>2017-05-23T14:59:45Z</time>
      </trkpt>
      <trkpt lat="49.33303" lon="1.33473">
        <ele>132</ele>
        <time>2017-05-23T15:00:01Z</time>
      </trkpt>
      <trkpt lat="49.33302" lon="1.33479">
        <ele>132</ele>
        <time>2017-05-23T15:00:01Z</time>
      </trkpt>
      <trkpt lat="49.33302" lon="1.33486">
        <ele>132</ele>
        <time>2017-05-23T15:00:01Z</time>
      </trkpt>
      <trkpt lat="49.33301" lon="1.33492">
        <ele>132</ele>
        <time>2017-05-23T15:00:01Z</time>
      </trkpt>
      <trkpt lat="49.333" lon="1.33498">
        <ele>132</ele>
        <time>2017-05-23T15:00:17Z</time>
      </trkpt>
      <trkpt lat="49.33298" lon="1.33503">
        <ele>132</ele>
        <time>2017-05-23T15:00:17Z</time>
      </trkpt>
      <trkpt lat="49.33294" lon="1.33504">
        <ele>132</ele>
        <time>2017-05-23T15:00:17Z</time>
      </trkpt>
      <trkpt lat="49.33292" lon="1.33504">
        <ele>132</ele>
        <time>2017-05-23T15:00:17Z</time>
      </trkpt>
      <trkpt lat="49.3329" lon="1.33501">
        <ele>134</ele>
        <time>2017-05-23T15:00:33Z</time>
      </trkpt>
      <trkpt lat="49.33288" lon="1.335">
        <ele>134</ele>
        <time>2017-05-23T15:00:33Z</time>
      </trkpt>
      <trkpt lat="49.33282" lon="1.33499">
        <ele>134</ele>
        <time>2017-05-23T15:00:33Z</time>
      </trkpt>
      <trkpt lat="49.33279" lon="1.33497">
        <ele>134</ele>
        <time>2017-05-23T15:00:33Z</time>
      </trkpt>
      <trkpt lat="49.33275" lon="1.33495">
        <ele>134</ele>
        <time>2017-05-23T15:00:49Z</time>
      </trkpt>
      <trkpt lat="49.33271" lon="1.33492">
        <ele>134</ele>
        <time>2017-05-23T15:00:49Z</time>
      </trkpt>
      <trkpt lat="49.33266" lon="1.3349">
        <ele>134</ele>
        <time>2017-05-23T15:00:49Z</time>
      </trkpt>
      <trkpt lat="49.33261" lon="1.33489">
        <ele>134</ele>
        <time>2017-05-23T15:00:49Z</time>
      </trkpt>
      <trkpt lat="49.33257" lon="1.33487">
        <ele>134</ele>
        <time>2017-05-23T15:01:05Z</time>
      </trkpt>
      <trkpt lat="49.33253" lon="1.33484">
        <ele>134</ele>
        <time>2017-05-23T15:01:05Z</time>
      </trkpt>
      <trkpt lat="49.33248" lon="1.33483">
        <ele>134</ele>
        <time>2017-05-23T15:01:05Z</time>
      </trkpt>
      <trkpt lat="49.33244" lon="1.3348">
        <ele>134</ele>
        <time>2017-05-23T15:01:05Z</time>
      </trkpt>
      <trkpt lat="49.33238" lon="1.33479">
        <ele>134</ele>
        <time>2017-05-23T15:01:21Z</time>
      </trkpt>
      <trkpt lat="49.33235" lon="1.33478">
        <ele>134</ele>
        <time>2017-05-23T15:01:21Z</time>
      </trkpt>
      <trkpt lat="49.33231" lon="1.33475">
        <ele>134</ele>
        <time>2017-05-23T15:01:21Z</time>
      </trkpt>
      <trkpt lat="49.33226" lon="1.33473">
        <ele>134</ele>
        <time>2017-05-23T15:01:21Z</time>
      </trkpt>
      <trkpt lat="49.33221" lon="1.3347">
        <ele>134</ele>
        <time>2017-05-23T15:01:37Z</time>
      </trkpt>
      <trkpt lat="49.33216" lon="1.33467">
        <ele>134</ele>
        <time>2017-05-23T15:01:37Z</time>
      </trkpt>
      <trkpt lat="49.33212" lon="1.33465">
        <ele>134</ele>
        <time>2017-05-23T15:01:37Z</time>
      </trkpt>
      <trkpt lat="49.33207" lon="1.33463">
        <ele>138</ele>
        <time>2017-05-23T15:01:37Z</time>
      </trkpt>
      <trkpt lat="49.33203" lon="1.3346">
        <ele>138</ele>
        <time>2017-05-23T15:01:53Z</time>
      </trkpt>
      <trkpt lat="49.33198" lon="1.33458">
        <ele>139</ele>
        <time>2017-05-23T15:01:53Z</time>
      </trkpt>
      <trkpt lat="49.33193" lon="1.33457">
        <ele>139</ele>
        <time>2017-05-23T15:01:53Z</time>
      </trkpt>
      <trkpt lat="49.33188" lon="1.33456">
        <ele>139</ele>
        <time>2017-05-23T15:01:53Z</time>
      </trkpt>
      <trkpt lat="49.33184" lon="1.33454">
        <ele>139</ele>
        <time>2017-05-23T15:02:09Z</time>
      </trkpt>
      <trkpt lat="49.33181" lon="1.33453">
        <ele>139</ele>
        <time>2017-05-23T15:02:09Z</time>
      </trkpt>
      <trkpt lat="49.33175" lon="1.33453">
        <ele>139</ele>
        <time>2017-05-23T15:02:09Z</time>
      </trkpt>
      <trkpt lat="49.33169" lon="1.33453">
        <ele>139</ele>
        <time>2017-05-23T15:02:09Z</time>
      </trkpt>
      <trkpt lat="49.33164" lon="1.33451">
        <ele>139</ele>
        <time>2017-05-23T15:02:25Z</time>
      </trkpt>
      <trkpt lat="49.33162" lon="1.33448">
        <ele>139</ele>
        <time>2017-05-23T15:02:25Z</time>
      </trkpt>
      <trkpt lat="49.33159" lon="1.33447">
        <ele>139</ele>
        <time>2017-05-23T15:02:25Z</time>
      </trkpt>
      <trkpt lat="49.33161" lon="1.33429">
        <ele>139</ele>
        <time>2017-05-23T15:02:25Z</time>
      </trkpt>
      <trkpt lat="49.33164" lon="1.33424">
        <ele>139</ele>
        <time>2017-05-23T15:02:53Z</time>
      </trkpt>
      <trkpt lat="49.33165" lon="1.33422">
        <ele>139</ele>
        <time>2017-05-23T15:02:53Z</time>
      </trkpt>
      <trkpt lat="49.33165" lon="1.33421">
        <ele>139</ele>
        <time>2017-05-23T15:02:53Z</time>
      </trkpt>
      <trkpt lat="49.33165" lon="1.33419">
        <ele>139</ele>
        <time>2017-05-23T15:02:53Z</time>
      </trkpt>
      <trkpt lat="49.33165" lon="1.33418">
        <ele>139</ele>
        <time>2017-05-23T15:02:53Z</time>
      </trkpt>
      <trkpt lat="49.33164" lon="1.33407">
        <ele>139</ele>
        <time>2017-05-23T15:03:25Z</time>
      </trkpt>
      <trkpt lat="49.33163" lon="1.33402">
        <ele>139</ele>
        <time>2017-05-23T15:03:25Z</time>
      </trkpt>
      <trkpt lat="49.33162" lon="1.33399">
        <ele>139</ele>
        <time>2017-05-23T15:03:25Z</time>
      </trkpt>
      <trkpt lat="49.33163" lon="1.33392">
        <ele>139</ele>
        <time>2017-05-23T15:03:25Z</time>
      </trkpt>
      <trkpt lat="49.33163" lon="1.33391">
        <ele>139</ele>
        <time>2017-05-23T15:03:25Z</time>
      </trkpt>
      <trkpt lat="49.33164" lon="1.33391">
        <ele>139</ele>
        <time>2017-05-23T15:03:41Z</time>
      </trkpt>
      <trkpt lat="49.33163" lon="1.3339">
        <ele>139</ele>
        <time>2017-05-23T15:03:41Z</time>
      </trkpt>
      <trkpt lat="49.33164" lon="1.3342">
        <ele>139</ele>
        <time>2017-05-23T15:03:41Z</time>
      </trkpt>
      <trkpt lat="49.33167" lon="1.33439">
        <ele>139</ele>
        <time>2017-05-23T15:03:41Z</time>
      </trkpt>
      <trkpt lat="49.33161" lon="1.33444">
        <ele>139</ele>
        <time>2017-05-23T15:03:57Z</time>
      </trkpt>
      <trkpt lat="49.33168" lon="1.33442">
        <ele>139</ele>
        <time>2017-05-23T15:03:57Z</time>
      </trkpt>
      <trkpt lat="49.33163" lon="1.33428">
        <ele>139</ele>
        <time>2017-05-23T15:03:57Z</time>
      </trkpt>
      <trkpt lat="49.33163" lon="1.33427">
        <ele>139</ele>
        <time>2017-05-23T15:03:57Z</time>
      </trkpt>
      <trkpt lat="49.33156" lon="1.33433">
        <ele>139</ele>
        <time>2017-05-23T15:09:09Z</time>
      </trkpt>
      <trkpt lat="49.33156" lon="1.33433">
        <ele>139</ele>
        <time>2017-05-23T15:09:09Z</time>
      </trkpt>
      <trkpt lat="49.33156" lon="1.33433">
        <ele>139</ele>
        <time>2017-05-23T15:09:09Z</time>
      </trkpt>
      <trkpt lat="49.33156" lon="1.33433">
        <ele>139</ele>
        <time>2017-05-23T15:09:09Z</time>
      </trkpt>
      <trkpt lat="49.33156" lon="1.33433">
        <ele>139</ele>
        <time>2017-05-23T15:09:09Z</time>
      </trkpt>
      <trkpt lat="49.33155" lon="1.33436">
        <ele>139</ele>
        <time>2017-05-23T15:10:05Z</time>
      </trkpt>
      <trkpt lat="49.33151" lon="1.33435">
        <ele>139</ele>
        <time>2017-05-23T15:10:06Z</time>
      </trkpt>
      <trkpt lat="49.33147" lon="1.33432">
        <ele>139</ele>
        <time>2017-05-23T15:10:06Z</time>
      </trkpt>
      <trkpt lat="49.33143" lon="1.3343">
        <ele>139</ele>
        <time>2017-05-23T15:10:06Z</time>
      </trkpt>
      <trkpt lat="49.33137" lon="1.33427">
        <ele>139</ele>
        <time>2017-05-23T15:10:06Z</time>
      </trkpt>
      <trkpt lat="49.33128" lon="1.33421">
        <ele>139</ele>
        <time>2017-05-23T15:10:41Z</time>
      </trkpt>
      <trkpt lat="49.33126" lon="1.33421">
        <ele>139</ele>
        <time>2017-05-23T15:10:41Z</time>
      </trkpt>
      <trkpt lat="49.33126" lon="1.33421">
        <ele>139</ele>
        <time>2017-05-23T15:10:41Z</time>
      </trkpt>
      <trkpt lat="49.33125" lon="1.33421">
        <ele>139</ele>
        <time>2017-05-23T15:10:41Z</time>
      </trkpt>
      <trkpt lat="49.33117" lon="1.33415">
        <ele>140</ele>
        <time>2017-05-23T15:10:41Z</time>
      </trkpt>
      <trkpt lat="49.33111" lon="1.33411">
        <ele>140</ele>
        <time>2017-05-23T15:11:09Z</time>
      </trkpt>
      <trkpt lat="49.33109" lon="1.33411">
        <ele>140</ele>
        <time>2017-05-23T15:11:09Z</time>
      </trkpt>
      <trkpt lat="49.33106" lon="1.33406">
        <ele>140</ele>
        <time>2017-05-23T15:11:09Z</time>
      </trkpt>
      <trkpt lat="49.33103" lon="1.33404">
        <ele>140</ele>
        <time>2017-05-23T15:11:09Z</time>
      </trkpt>
      <trkpt lat="49.33099" lon="1.33404">
        <ele>140</ele>
        <time>2017-05-23T15:11:09Z</time>
      </trkpt>
      <trkpt lat="49.33094" lon="1.33401">
        <ele>140</ele>
        <time>2017-05-23T15:11:25Z</time>
      </trkpt>
      <trkpt lat="49.3309" lon="1.33399">
        <ele>140</ele>
        <time>2017-05-23T15:11:25Z</time>
      </trkpt>
      <trkpt lat="49.33086" lon="1.33395">
        <ele>140</ele>
        <time>2017-05-23T15:11:25Z</time>
      </trkpt>
      <trkpt lat="49.33084" lon="1.33391">
        <ele>140</ele>
        <time>2017-05-23T15:11:25Z</time>
      </trkpt>
      <trkpt lat="49.3308" lon="1.33386">
        <ele>140</ele>
        <time>2017-05-23T15:11:45Z</time>
      </trkpt>
      <trkpt lat="49.33076" lon="1.33383">
        <ele>140</ele>
        <time>2017-05-23T15:11:45Z</time>
      </trkpt>
      <trkpt lat="49.33074" lon="1.33384">
        <ele>140</ele>
        <time>2017-05-23T15:11:45Z</time>
      </trkpt>
      <trkpt lat="49.33073" lon="1.33383">
        <ele>140</ele>
        <time>2017-05-23T15:11:45Z</time>
      </trkpt>
      <trkpt lat="49.3307" lon="1.3338">
        <ele>140</ele>
        <time>2017-05-23T15:11:45Z</time>
      </trkpt>
      <trkpt lat="49.3307" lon="1.33375">
        <ele>140</ele>
        <time>2017-05-23T15:12:57Z</time>
      </trkpt>
      <trkpt lat="49.33065" lon="1.3337">
        <ele>142</ele>
        <time>2017-05-23T15:12:57Z</time>
      </trkpt>
      <trkpt lat="49.33061" lon="1.33365">
        <ele>142</ele>
        <time>2017-05-23T15:12:57Z</time>
      </trkpt>
      <trkpt lat="49.33055" lon="1.33363">
        <ele>142</ele>
        <time>2017-05-23T15:12:57Z</time>
      </trkpt>
      <trkpt lat="49.33049" lon="1.3336">
        <ele>142</ele>
        <time>2017-05-23T15:12:57Z</time>
      </trkpt>
      <trkpt lat="49.33044" lon="1.33356">
        <ele>142</ele>
        <time>2017-05-23T15:13:13Z</time>
      </trkpt>
      <trkpt lat="49.3304" lon="1.33353">
        <ele>147</ele>
        <time>2017-05-23T15:13:13Z</time>
      </trkpt>
      <trkpt lat="49.33035" lon="1.3335">
        <ele>147</ele>
        <time>2017-05-23T15:13:13Z</time>
      </trkpt>
      <trkpt lat="49.33031" lon="1.33346">
        <ele>147</ele>
        <time>2017-05-23T15:13:13Z</time>
      </trkpt>
      <trkpt lat="49.33026" lon="1.33341">
        <ele>147</ele>
        <time>2017-05-23T15:13:29Z</time>
      </trkpt>
      <trkpt lat="49.33022" lon="1.33338">
        <ele>147</ele>
        <time>2017-05-23T15:13:29Z</time>
      </trkpt>
      <trkpt lat="49.3302" lon="1.33335">
        <ele>147</ele>
        <time>2017-05-23T15:13:29Z</time>
      </trkpt>
      <trkpt lat="49.33016" lon="1.33332">
        <ele>147</ele>
        <time>2017-05-23T15:13:29Z</time>
      </trkpt>
      <trkpt lat="49.3301" lon="1.33328">
        <ele>147</ele>
        <time>2017-05-23T15:13:45Z</time>
      </trkpt>
      <trkpt lat="49.33007" lon="1.33324">
        <ele>147</ele>
        <time>2017-05-23T15:13:45Z</time>
      </trkpt>
      <trkpt lat="49.33002" lon="1.33319">
        <ele>147</ele>
        <time>2017-05-23T15:13:45Z</time>
      </trkpt>
      <trkpt lat="49.32993" lon="1.33318">
        <ele>147</ele>
        <time>2017-05-23T15:13:45Z</time>
      </trkpt>
      <trkpt lat="49.32988" lon="1.33317">
        <ele>147</ele>
        <time>2017-05-23T15:14:01Z</time>
      </trkpt>
      <trkpt lat="49.32984" lon="1.33316">
        <ele>147</ele>
        <time>2017-05-23T15:14:02Z</time>
      </trkpt>
      <trkpt lat="49.32981" lon="1.33308">
        <ele>147</ele>
        <time>2017-05-23T15:14:02Z</time>
      </trkpt>
      <trkpt lat="49.32977" lon="1.33301">
        <ele>147</ele>
        <time>2017-05-23T15:14:02Z</time>
      </trkpt>
      <trkpt lat="49.32968" lon="1.33298">
        <ele>147</ele>
        <time>2017-05-23T15:14:17Z</time>
      </trkpt>
      <trkpt lat="49.32962" lon="1.3329">
        <ele>155</ele>
        <time>2017-05-23T15:14:17Z</time>
      </trkpt>
      <trkpt lat="49.3296" lon="1.33286">
        <ele>155</ele>
        <time>2017-05-23T15:14:17Z</time>
      </trkpt>
      <trkpt lat="49.32957" lon="1.33281">
        <ele>155</ele>
        <time>2017-05-23T15:14:17Z</time>
      </trkpt>
      <trkpt lat="49.32954" lon="1.33276">
        <ele>155</ele>
        <time>2017-05-23T15:14:33Z</time>
      </trkpt>
      <trkpt lat="49.32951" lon="1.33273">
        <ele>155</ele>
        <time>2017-05-23T15:14:33Z</time>
      </trkpt>
      <trkpt lat="49.32948" lon="1.33271">
        <ele>155</ele>
        <time>2017-05-23T15:14:33Z</time>
      </trkpt>
      <trkpt lat="49.32941" lon="1.33267">
        <ele>155</ele>
        <time>2017-05-23T15:14:33Z</time>
      </trkpt>
      <trkpt lat="49.32936" lon="1.33264">
        <ele>155</ele>
        <time>2017-05-23T15:14:49Z</time>
      </trkpt>
      <trkpt lat="49.32928" lon="1.33263">
        <ele>155</ele>
        <time>2017-05-23T15:14:49Z</time>
      </trkpt>
      <trkpt lat="49.32923" lon="1.33256">
        <ele>155</ele>
        <time>2017-05-23T15:14:49Z</time>
      </trkpt>
      <trkpt lat="49.32919" lon="1.33254">
        <ele>155</ele>
        <time>2017-05-23T15:14:49Z</time>
      </trkpt>
      <trkpt lat="49.32899" lon="1.33238">
        <ele>155</ele>
        <time>2017-05-23T15:15:21Z</time>
      </trkpt>
      <trkpt lat="49.32896" lon="1.33233">
        <ele>155</ele>
        <time>2017-05-23T15:15:21Z</time>
      </trkpt>
      <trkpt lat="49.32892" lon="1.33232">
        <ele>155</ele>
        <time>2017-05-23T15:15:21Z</time>
      </trkpt>
      <trkpt lat="49.32886" lon="1.33229">
        <ele>155</ele>
        <time>2017-05-23T15:15:21Z</time>
      </trkpt>
      <trkpt lat="49.3288" lon="1.33224">
        <ele>155</ele>
        <time>2017-05-23T15:15:21Z</time>
      </trkpt>
      <trkpt lat="49.32872" lon="1.33222">
        <ele>148</ele>
        <time>2017-05-23T15:15:37Z</time>
      </trkpt>
      <trkpt lat="49.32868" lon="1.33216">
        <ele>148</ele>
        <time>2017-05-23T15:15:37Z</time>
      </trkpt>
      <trkpt lat="49.32863" lon="1.33211">
        <ele>148</ele>
        <time>2017-05-23T15:15:37Z</time>
      </trkpt>
      <trkpt lat="49.32857" lon="1.3321">
        <ele>148</ele>
        <time>2017-05-23T15:15:37Z</time>
      </trkpt>
      <trkpt lat="49.32854" lon="1.33205">
        <ele>149</ele>
        <time>2017-05-23T15:15:53Z</time>
      </trkpt>
      <trkpt lat="49.3285" lon="1.33202">
        <ele>149</ele>
        <time>2017-05-23T15:15:53Z</time>
      </trkpt>
      <trkpt lat="49.32843" lon="1.33199">
        <ele>149</ele>
        <time>2017-05-23T15:15:53Z</time>
      </trkpt>
      <trkpt lat="49.3284" lon="1.33194">
        <ele>149</ele>
        <time>2017-05-23T15:15:53Z</time>
      </trkpt>
      <trkpt lat="49.32838" lon="1.33186">
        <ele>149</ele>
        <time>2017-05-23T15:16:09Z</time>
      </trkpt>
      <trkpt lat="49.3284" lon="1.33183">
        <ele>149</ele>
        <time>2017-05-23T15:16:09Z</time>
      </trkpt>
      <trkpt lat="49.32836" lon="1.33178">
        <ele>149</ele>
        <time>2017-05-23T15:16:09Z</time>
      </trkpt>
      <trkpt lat="49.32832" lon="1.33175">
        <ele>149</ele>
        <time>2017-05-23T15:16:09Z</time>
      </trkpt>
      <trkpt lat="49.32829" lon="1.33172">
        <ele>149</ele>
        <time>2017-05-23T15:16:25Z</time>
      </trkpt>
      <trkpt lat="49.3282" lon="1.33171">
        <ele>149</ele>
        <time>2017-05-23T15:16:25Z</time>
      </trkpt>
      <trkpt lat="49.32817" lon="1.33174">
        <ele>149</ele>
        <time>2017-05-23T15:16:25Z</time>
      </trkpt>
      <trkpt lat="49.32809" lon="1.33169">
        <ele>149</ele>
        <time>2017-05-23T15:16:25Z</time>
      </trkpt>
      <trkpt lat="49.32801" lon="1.33166">
        <ele>149</ele>
        <time>2017-05-23T15:16:45Z</time>
      </trkpt>
      <trkpt lat="49.32799" lon="1.33164">
        <ele>149</ele>
        <time>2017-05-23T15:16:45Z</time>
      </trkpt>
      <trkpt lat="49.32799" lon="1.33161">
        <ele>149</ele>
        <time>2017-05-23T15:16:45Z</time>
      </trkpt>
      <trkpt lat="49.32796" lon="1.33162">
        <ele>149</ele>
        <time>2017-05-23T15:16:45Z</time>
      </trkpt>
      <trkpt lat="49.32793" lon="1.33157">
        <ele>149</ele>
        <time>2017-05-23T15:16:45Z</time>
      </trkpt>
      <trkpt lat="49.32789" lon="1.33152">
        <ele>132</ele>
        <time>2017-05-23T15:17:01Z</time>
      </trkpt>
      <trkpt lat="49.32782" lon="1.33145">
        <ele>132</ele>
        <time>2017-05-23T15:17:01Z</time>
      </trkpt>
      <trkpt lat="49.32781" lon="1.33141">
        <ele>132</ele>
        <time>2017-05-23T15:17:01Z</time>
      </trkpt>
      <trkpt lat="49.32778" lon="1.33141">
        <ele>132</ele>
        <time>2017-05-23T15:17:01Z</time>
      </trkpt>
      <trkpt lat="49.32774" lon="1.33134">
        <ele>132</ele>
        <time>2017-05-23T15:17:17Z</time>
      </trkpt>
      <trkpt lat="49.3277" lon="1.33131">
        <ele>132</ele>
        <time>2017-05-23T15:17:17Z</time>
      </trkpt>
      <trkpt lat="49.32763" lon="1.33128">
        <ele>132</ele>
        <time>2017-05-23T15:17:17Z</time>
      </trkpt>
      <trkpt lat="49.32764" lon="1.33126">
        <ele>132</ele>
        <time>2017-05-23T15:17:17Z</time>
      </trkpt>
      <trkpt lat="49.32762" lon="1.33125">
        <ele>125</ele>
        <time>2017-05-23T15:17:33Z</time>
      </trkpt>
      <trkpt lat="49.32756" lon="1.33124">
        <ele>125</ele>
        <time>2017-05-23T15:17:33Z</time>
      </trkpt>
      <trkpt lat="49.32749" lon="1.33122">
        <ele>125</ele>
        <time>2017-05-23T15:17:33Z</time>
      </trkpt>
      <trkpt lat="49.32746" lon="1.33124">
        <ele>125</ele>
        <time>2017-05-23T15:17:33Z</time>
      </trkpt>
      <trkpt lat="49.32738" lon="1.33117">
        <ele>125</ele>
        <time>2017-05-23T15:18:29Z</time>
      </trkpt>
      <trkpt lat="49.32738" lon="1.33117">
        <ele>125</ele>
        <time>2017-05-23T15:18:29Z</time>
      </trkpt>
      <trkpt lat="49.32738" lon="1.33117">
        <ele>125</ele>
        <time>2017-05-23T15:18:29Z</time>
      </trkpt>
      <trkpt lat="49.32738" lon="1.33117">
        <ele>125</ele>
        <time>2017-05-23T15:18:29Z</time>
      </trkpt>
      <trkpt lat="49.32733" lon="1.3311">
        <ele>125</ele>
        <time>2017-05-23T15:18:29Z</time>
      </trkpt>
      <trkpt lat="49.32729" lon="1.33103">
        <ele>125</ele>
        <time>2017-05-23T15:18:45Z</time>
      </trkpt>
      <trkpt lat="49.32724" lon="1.33099">
        <ele>125</ele>
        <time>2017-05-23T15:18:45Z</time>
      </trkpt>
      <trkpt lat="49.32722" lon="1.33094">
        <ele>125</ele>
        <time>2017-05-23T15:18:45Z</time>
      </trkpt>
      <trkpt lat="49.3272" lon="1.33092">
        <ele>125</ele>
        <time>2017-05-23T15:18:45Z</time>
      </trkpt>
      <trkpt lat="49.3272" lon="1.33087">
        <ele>125</ele>
        <time>2017-05-23T15:19:25Z</time>
      </trkpt>
      <trkpt lat="49.3272" lon="1.33087">
        <ele>125</ele>
        <time>2017-05-23T15:19:25Z</time>
      </trkpt>
      <trkpt lat="49.3272" lon="1.33087">
        <ele>125</ele>
        <time>2017-05-23T15:19:25Z</time>
      </trkpt>
      <trkpt lat="49.3272" lon="1.33087">
        <ele>125</ele>
        <time>2017-05-23T15:19:25Z</time>
      </trkpt>
      <trkpt lat="49.32709" lon="1.33074">
        <ele>125</ele>
        <time>2017-05-23T15:19:25Z</time>
      </trkpt>
      <trkpt lat="49.327" lon="1.33073">
        <ele>101</ele>
        <time>2017-05-23T15:19:41Z</time>
      </trkpt>
      <trkpt lat="49.32699" lon="1.33067">
        <ele>101</ele>
        <time>2017-05-23T15:19:41Z</time>
      </trkpt>
      <trkpt lat="49.32692" lon="1.33067">
        <ele>101</ele>
        <time>2017-05-23T15:19:41Z</time>
      </trkpt>
      <trkpt lat="49.32689" lon="1.33066">
        <ele>101</ele>
        <time>2017-05-23T15:19:41Z</time>
      </trkpt>
      <trkpt lat="49.32686" lon="1.3306">
        <ele>101</ele>
        <time>2017-05-23T15:20:05Z</time>
      </trkpt>
      <trkpt lat="49.32684" lon="1.33059">
        <ele>101</ele>
        <time>2017-05-23T15:20:05Z</time>
      </trkpt>
      <trkpt lat="49.32683" lon="1.33059">
        <ele>101</ele>
        <time>2017-05-23T15:20:05Z</time>
      </trkpt>
      <trkpt lat="49.32681" lon="1.33056">
        <ele>101</ele>
        <time>2017-05-23T15:20:05Z</time>
      </trkpt>
      <trkpt lat="49.32679" lon="1.33052">
        <ele>101</ele>
        <time>2017-05-23T15:20:05Z</time>
      </trkpt>
      <trkpt lat="49.32677" lon="1.33053">
        <ele>101</ele>
        <time>2017-05-23T15:20:21Z</time>
      </trkpt>
      <trkpt lat="49.32673" lon="1.33053">
        <ele>101</ele>
        <time>2017-05-23T15:20:21Z</time>
      </trkpt>
      <trkpt lat="49.32671" lon="1.33054">
        <ele>101</ele>
        <time>2017-05-23T15:20:21Z</time>
      </trkpt>
      <trkpt lat="49.32668" lon="1.33052">
        <ele>101</ele>
        <time>2017-05-23T15:20:21Z</time>
      </trkpt>
      <trkpt lat="49.32664" lon="1.3305">
        <ele>101</ele>
        <time>2017-05-23T15:20:37Z</time>
      </trkpt>
      <trkpt lat="49.32666" lon="1.33045">
        <ele>101</ele>
        <time>2017-05-23T15:20:37Z</time>
      </trkpt>
      <trkpt lat="49.32669" lon="1.33037">
        <ele>95</ele>
        <time>2017-05-23T15:20:37Z</time>
      </trkpt>
      <trkpt lat="49.32675" lon="1.33033">
        <ele>95</ele>
        <time>2017-05-23T15:20:37Z</time>
      </trkpt>
      <trkpt lat="49.32679" lon="1.33026">
        <ele>95</ele>
        <time>2017-05-23T15:20:53Z</time>
      </trkpt>
      <trkpt lat="49.32681" lon="1.33026">
        <ele>95</ele>
        <time>2017-05-23T15:20:53Z</time>
      </trkpt>
      <trkpt lat="49.32683" lon="1.33015">
        <ele>95</ele>
        <time>2017-05-23T15:20:53Z</time>
      </trkpt>
      <trkpt lat="49.32687" lon="1.33006">
        <ele>95</ele>
        <time>2017-05-23T15:20:53Z</time>
      </trkpt>
      <trkpt lat="49.3269" lon="1.33009">
        <ele>95</ele>
        <time>2017-05-23T15:21:09Z</time>
      </trkpt>
      <trkpt lat="49.32689" lon="1.33001">
        <ele>95</ele>
        <time>2017-05-23T15:21:09Z</time>
      </trkpt>
      <trkpt lat="49.32691" lon="1.32998">
        <ele>95</ele>
        <time>2017-05-23T15:21:09Z</time>
      </trkpt>
      <trkpt lat="49.32693" lon="1.32993">
        <ele>95</ele>
        <time>2017-05-23T15:21:09Z</time>
      </trkpt>
      <trkpt lat="49.32698" lon="1.32984">
        <ele>95</ele>
        <time>2017-05-23T15:21:25Z</time>
      </trkpt>
      <trkpt lat="49.32708" lon="1.32975">
        <ele>95</ele>
        <time>2017-05-23T15:21:26Z</time>
      </trkpt>
      <trkpt lat="49.32704" lon="1.32967">
        <ele>95</ele>
        <time>2017-05-23T15:21:27Z</time>
      </trkpt>
      <trkpt lat="49.3271" lon="1.32964">
        <ele>114</ele>
        <time>2017-05-23T15:21:28Z</time>
      </trkpt>
      <trkpt lat="49.32711" lon="1.32964">
        <ele>114</ele>
        <time>2017-05-23T15:21:41Z</time>
      </trkpt>
      <trkpt lat="49.3271" lon="1.32959">
        <ele>114</ele>
        <time>2017-05-23T15:21:41Z</time>
      </trkpt>
      <trkpt lat="49.32713" lon="1.32954">
        <ele>103</ele>
        <time>2017-05-23T15:21:41Z</time>
      </trkpt>
      <trkpt lat="49.32713" lon="1.32944">
        <ele>103</ele>
        <time>2017-05-23T15:21:41Z</time>
      </trkpt>
      <trkpt lat="49.32722" lon="1.32939">
        <ele>103</ele>
        <time>2017-05-23T15:22:13Z</time>
      </trkpt>
      <trkpt lat="49.32722" lon="1.32934">
        <ele>103</ele>
        <time>2017-05-23T15:22:13Z</time>
      </trkpt>
      <trkpt lat="49.32724" lon="1.32934">
        <ele>103</ele>
        <time>2017-05-23T15:22:13Z</time>
      </trkpt>
      <trkpt lat="49.3273" lon="1.32929">
        <ele>103</ele>
        <time>2017-05-23T15:22:13Z</time>
      </trkpt>
      <trkpt lat="49.32736" lon="1.32929">
        <ele>103</ele>
        <time>2017-05-23T15:22:13Z</time>
      </trkpt>
      <trkpt lat="49.32739" lon="1.32922">
        <ele>103</ele>
        <time>2017-05-23T15:22:29Z</time>
      </trkpt>
      <trkpt lat="49.32748" lon="1.32919">
        <ele>103</ele>
        <time>2017-05-23T15:22:29Z</time>
      </trkpt>
      <trkpt lat="49.32751" lon="1.32917">
        <ele>103</ele>
        <time>2017-05-23T15:22:29Z</time>
      </trkpt>
      <trkpt lat="49.32752" lon="1.32914">
        <ele>103</ele>
        <time>2017-05-23T15:22:29Z</time>
      </trkpt>
      <trkpt lat="49.32757" lon="1.3291">
        <ele>103</ele>
        <time>2017-05-23T15:22:57Z</time>
      </trkpt>
      <trkpt lat="49.32757" lon="1.3291">
        <ele>103</ele>
        <time>2017-05-23T15:22:57Z</time>
      </trkpt>
      <trkpt lat="49.32757" lon="1.3291">
        <ele>103</ele>
        <time>2017-05-23T15:22:57Z</time>
      </trkpt>
      <trkpt lat="49.3276" lon="1.32909">
        <ele>103</ele>
        <time>2017-05-23T15:22:57Z</time>
      </trkpt>
      <trkpt lat="49.3277" lon="1.32905">
        <ele>103</ele>
        <time>2017-05-23T15:22:57Z</time>
      </trkpt>
      <trkpt lat="49.32782" lon="1.32896">
        <ele>103</ele>
        <time>2017-05-23T15:23:13Z</time>
      </trkpt>
      <trkpt lat="49.3279" lon="1.32893">
        <ele>103</ele>
        <time>2017-05-23T15:23:13Z</time>
      </trkpt>
      <trkpt lat="49.32793" lon="1.32892">
        <ele>122</ele>
        <time>2017-05-23T15:23:13Z</time>
      </trkpt>
      <trkpt lat="49.32802" lon="1.32891">
        <ele>122</ele>
        <time>2017-05-23T15:23:13Z</time>
      </trkpt>
      <trkpt lat="49.32805" lon="1.32889">
        <ele>122</ele>
        <time>2017-05-23T15:23:29Z</time>
      </trkpt>
      <trkpt lat="49.32809" lon="1.32887">
        <ele>122</ele>
        <time>2017-05-23T15:23:29Z</time>
      </trkpt>
      <trkpt lat="49.3281" lon="1.32882">
        <ele>122</ele>
        <time>2017-05-23T15:23:29Z</time>
      </trkpt>
      <trkpt lat="49.32809" lon="1.32878">
        <ele>122</ele>
        <time>2017-05-23T15:23:29Z</time>
      </trkpt>
      <trkpt lat="49.32811" lon="1.32875">
        <ele>106</ele>
        <time>2017-05-23T15:24:33Z</time>
      </trkpt>
      <trkpt lat="49.32811" lon="1.32875">
        <ele>106</ele>
        <time>2017-05-23T15:24:33Z</time>
      </trkpt>
      <trkpt lat="49.32811" lon="1.32875">
        <ele>106</ele>
        <time>2017-05-23T15:24:33Z</time>
      </trkpt>
      <trkpt lat="49.32811" lon="1.32875">
        <ele>106</ele>
        <time>2017-05-23T15:24:33Z</time>
      </trkpt>
      <trkpt lat="49.32821" lon="1.32874">
        <ele>106</ele>
        <time>2017-05-23T15:24:33Z</time>
      </trkpt>
      <trkpt lat="49.32823" lon="1.32867">
        <ele>106</ele>
        <time>2017-05-23T15:24:49Z</time>
      </trkpt>
      <trkpt lat="49.32823" lon="1.32868">
        <ele>106</ele>
        <time>2017-05-23T15:24:49Z</time>
      </trkpt>
      <trkpt lat="49.3283" lon="1.32871">
        <ele>106</ele>
        <time>2017-05-23T15:24:49Z</time>
      </trkpt>
      <trkpt lat="49.32833" lon="1.32867">
        <ele>106</ele>
        <time>2017-05-23T15:24:49Z</time>
      </trkpt>
      <trkpt lat="49.32834" lon="1.32864">
        <ele>106</ele>
        <time>2017-05-23T15:25:05Z</time>
      </trkpt>
      <trkpt lat="49.32838" lon="1.32859">
        <ele>106</ele>
        <time>2017-05-23T15:25:05Z</time>
      </trkpt>
      <trkpt lat="49.3285" lon="1.32864">
        <ele>106</ele>
        <time>2017-05-23T15:25:05Z</time>
      </trkpt>
      <trkpt lat="49.32851" lon="1.32865">
        <ele>106</ele>
        <time>2017-05-23T15:25:05Z</time>
      </trkpt>
      <trkpt lat="49.3286" lon="1.32861">
        <ele>106</ele>
        <time>2017-05-23T15:25:45Z</time>
      </trkpt>
      <trkpt lat="49.32863" lon="1.32856">
        <ele>106</ele>
        <time>2017-05-23T15:25:45Z</time>
      </trkpt>
      <trkpt lat="49.32867" lon="1.32858">
        <ele>106</ele>
        <time>2017-05-23T15:25:45Z</time>
      </trkpt>
      <trkpt lat="49.32868" lon="1.32864">
        <ele>106</ele>
        <time>2017-05-23T15:25:45Z</time>
      </trkpt>
      <trkpt lat="49.32872" lon="1.3286">
        <ele>106</ele>
        <time>2017-05-23T15:25:45Z</time>
      </trkpt>
      <trkpt lat="49.32873" lon="1.32858">
        <ele>106</ele>
        <time>2017-05-23T15:26:01Z</time>
      </trkpt>
      <trkpt lat="49.32874" lon="1.32856">
        <ele>106</ele>
        <time>2017-05-23T15:26:01Z</time>
      </trkpt>
      <trkpt lat="49.32874" lon="1.32853">
        <ele>106</ele>
        <time>2017-05-23T15:26:01Z</time>
      </trkpt>
      <trkpt lat="49.32881" lon="1.3285">
        <ele>128</ele>
        <time>2017-05-23T15:26:01Z</time>
      </trkpt>
      <trkpt lat="49.32881" lon="1.32852">
        <ele>128</ele>
        <time>2017-05-23T15:26:49Z</time>
      </trkpt>
      <trkpt lat="49.32881" lon="1.32852">
        <ele>128</ele>
        <time>2017-05-23T15:26:49Z</time>
      </trkpt>
      <trkpt lat="49.32881" lon="1.32852">
        <ele>128</ele>
        <time>2017-05-23T15:26:49Z</time>
      </trkpt>
      <trkpt lat="49.32881" lon="1.32852">
        <ele>128</ele>
        <time>2017-05-23T15:26:49Z</time>
      </trkpt>
      <trkpt lat="49.32886" lon="1.32847">
        <ele>128</ele>
        <time>2017-05-23T15:26:49Z</time>
      </trkpt>
      <trkpt lat="49.32895" lon="1.32838">
        <ele>128</ele>
        <time>2017-05-23T15:27:05Z</time>
      </trkpt>
      <trkpt lat="49.32903" lon="1.32834">
        <ele>128</ele>
        <time>2017-05-23T15:27:05Z</time>
      </trkpt>
      <trkpt lat="49.32912" lon="1.3283">
        <ele>128</ele>
        <time>2017-05-23T15:27:05Z</time>
      </trkpt>
      <trkpt lat="49.32916" lon="1.32827">
        <ele>128</ele>
        <time>2017-05-23T15:27:05Z</time>
      </trkpt>
      <trkpt lat="49.3292" lon="1.32823">
        <ele>128</ele>
        <time>2017-05-23T15:27:21Z</time>
      </trkpt>
      <trkpt lat="49.32924" lon="1.32822">
        <ele>128</ele>
        <time>2017-05-23T15:27:21Z</time>
      </trkpt>
      <trkpt lat="49.32928" lon="1.32821">
        <ele>128</ele>
        <time>2017-05-23T15:27:21Z</time>
      </trkpt>
      <trkpt lat="49.3293" lon="1.32822">
        <ele>128</ele>
        <time>2017-05-23T15:27:21Z</time>
      </trkpt>
      <trkpt lat="49.32934" lon="1.32823">
        <ele>128</ele>
        <time>2017-05-23T15:27:37Z</time>
      </trkpt>
      <trkpt lat="49.32939" lon="1.3282">
        <ele>128</ele>
        <time>2017-05-23T15:27:37Z</time>
      </trkpt>
      <trkpt lat="49.32942" lon="1.32813">
        <ele>128</ele>
        <time>2017-05-23T15:27:37Z</time>
      </trkpt>
      <trkpt lat="49.32947" lon="1.32814">
        <ele>128</ele>
        <time>2017-05-23T15:27:37Z</time>
      </trkpt>
      <trkpt lat="49.32968" lon="1.32805">
        <ele>145</ele>
        <time>2017-05-23T15:28:17Z</time>
      </trkpt>
      <trkpt lat="49.32971" lon="1.32801">
        <ele>145</ele>
        <time>2017-05-23T15:28:17Z</time>
      </trkpt>
      <trkpt lat="49.32972" lon="1.32792">
        <ele>135</ele>
        <time>2017-05-23T15:28:17Z</time>
      </trkpt>
      <trkpt lat="49.32978" lon="1.3279">
        <ele>135</ele>
        <time>2017-05-23T15:28:17Z</time>
      </trkpt>
      <trkpt lat="49.3298" lon="1.32789">
        <ele>135</ele>
        <time>2017-05-23T15:28:17Z</time>
      </trkpt>
      <trkpt lat="49.32983" lon="1.32792">
        <ele>145</ele>
        <time>2017-05-23T15:28:33Z</time>
      </trkpt>
      <trkpt lat="49.3299" lon="1.32794">
        <ele>145</ele>
        <time>2017-05-23T15:28:33Z</time>
      </trkpt>
      <trkpt lat="49.32992" lon="1.32793">
        <ele>145</ele>
        <time>2017-05-23T15:28:33Z</time>
      </trkpt>
      <trkpt lat="49.32994" lon="1.32796">
        <ele>145</ele>
        <time>2017-05-23T15:28:33Z</time>
      </trkpt>
      <trkpt lat="49.33003" lon="1.32782">
        <ele>135</ele>
        <time>2017-05-23T15:30:37Z</time>
      </trkpt>
      <trkpt lat="49.33008" lon="1.32775">
        <ele>135</ele>
        <time>2017-05-23T15:30:37Z</time>
      </trkpt>
      <trkpt lat="49.3301" lon="1.32771">
        <ele>135</ele>
        <time>2017-05-23T15:30:37Z</time>
      </trkpt>
      <trkpt lat="49.33012" lon="1.32763">
        <ele>135</ele>
        <time>2017-05-23T15:30:37Z</time>
      </trkpt>
      <trkpt lat="49.33017" lon="1.32759">
        <ele>135</ele>
        <time>2017-05-23T15:30:37Z</time>
      </trkpt>
      <trkpt lat="49.3302" lon="1.3276">
        <ele>135</ele>
        <time>2017-05-23T15:30:53Z</time>
      </trkpt>
      <trkpt lat="49.33017" lon="1.32753">
        <ele>135</ele>
        <time>2017-05-23T15:30:53Z</time>
      </trkpt>
      <trkpt lat="49.33018" lon="1.32747">
        <ele>135</ele>
        <time>2017-05-23T15:30:53Z</time>
      </trkpt>
      <trkpt lat="49.33019" lon="1.32741">
        <ele>135</ele>
        <time>2017-05-23T15:30:53Z</time>
      </trkpt>
      <trkpt lat="49.3302" lon="1.32736">
        <ele>135</ele>
        <time>2017-05-23T15:31:09Z</time>
      </trkpt>
      <trkpt lat="49.33022" lon="1.32726">
        <ele>135</ele>
        <time>2017-05-23T15:31:09Z</time>
      </trkpt>
      <trkpt lat="49.3303" lon="1.32723">
        <ele>135</ele>
        <time>2017-05-23T15:31:09Z</time>
      </trkpt>
      <trkpt lat="49.33036" lon="1.32716">
        <ele>135</ele>
        <time>2017-05-23T15:31:09Z</time>
      </trkpt>
      <trkpt lat="49.33041" lon="1.32711">
        <ele>135</ele>
        <time>2017-05-23T15:31:29Z</time>
      </trkpt>
      <trkpt lat="49.33043" lon="1.32704">
        <ele>142</ele>
        <time>2017-05-23T15:31:29Z</time>
      </trkpt>
      <trkpt lat="49.33046" lon="1.32702">
        <ele>142</ele>
        <time>2017-05-23T15:31:29Z</time>
      </trkpt>
      <trkpt lat="49.33053" lon="1.327">
        <ele>142</ele>
        <time>2017-05-23T15:31:29Z</time>
      </trkpt>
      <trkpt lat="49.33057" lon="1.32699">
        <ele>142</ele>
        <time>2017-05-23T15:31:45Z</time>
      </trkpt>
      <trkpt lat="49.33065" lon="1.32698">
        <ele>142</ele>
        <time>2017-05-23T15:31:46Z</time>
      </trkpt>
      <trkpt lat="49.33067" lon="1.32692">
        <ele>142</ele>
        <time>2017-05-23T15:31:46Z</time>
      </trkpt>
      <trkpt lat="49.33071" lon="1.32689">
        <ele>142</ele>
        <time>2017-05-23T15:31:46Z</time>
      </trkpt>
      <trkpt lat="49.3307" lon="1.32686">
        <ele>142</ele>
        <time>2017-05-23T15:32:01Z</time>
      </trkpt>
      <trkpt lat="49.33071" lon="1.32679">
        <ele>142</ele>
        <time>2017-05-23T15:32:01Z</time>
      </trkpt>
      <trkpt lat="49.33072" lon="1.32665">
        <ele>142</ele>
        <time>2017-05-23T15:32:01Z</time>
      </trkpt>
      <trkpt lat="49.33083" lon="1.32663">
        <ele>142</ele>
        <time>2017-05-23T15:32:01Z</time>
      </trkpt>
      <trkpt lat="49.33079" lon="1.32656">
        <ele>142</ele>
        <time>2017-05-23T15:32:17Z</time>
      </trkpt>
      <trkpt lat="49.33082" lon="1.3265">
        <ele>142</ele>
        <time>2017-05-23T15:32:17Z</time>
      </trkpt>
      <trkpt lat="49.33078" lon="1.32645">
        <ele>142</ele>
        <time>2017-05-23T15:32:17Z</time>
      </trkpt>
      <trkpt lat="49.33082" lon="1.32641">
        <ele>142</ele>
        <time>2017-05-23T15:32:17Z</time>
      </trkpt>
      <trkpt lat="49.33085" lon="1.3264">
        <ele>142</ele>
        <time>2017-05-23T15:32:33Z</time>
      </trkpt>
      <trkpt lat="49.33091" lon="1.32635">
        <ele>142</ele>
        <time>2017-05-23T15:32:33Z</time>
      </trkpt>
      <trkpt lat="49.33084" lon="1.32629">
        <ele>142</ele>
        <time>2017-05-23T15:32:33Z</time>
      </trkpt>
      <trkpt lat="49.33088" lon="1.3262">
        <ele>135</ele>
        <time>2017-05-23T15:32:33Z</time>
      </trkpt>
      <trkpt lat="49.33097" lon="1.32618">
        <ele>135</ele>
        <time>2017-05-23T15:32:49Z</time>
      </trkpt>
      <trkpt lat="49.33091" lon="1.32613">
        <ele>135</ele>
        <time>2017-05-23T15:32:49Z</time>
      </trkpt>
      <trkpt lat="49.33102" lon="1.32609">
        <ele>135</ele>
        <time>2017-05-23T15:32:49Z</time>
      </trkpt>
      <trkpt lat="49.33104" lon="1.32601">
        <ele>135</ele>
        <time>2017-05-23T15:32:49Z</time>
      </trkpt>
      <trkpt lat="49.3311" lon="1.32596">
        <ele>135</ele>
        <time>2017-05-23T15:33:05Z</time>
      </trkpt>
      <trkpt lat="49.33101" lon="1.32585">
        <ele>135</ele>
        <time>2017-05-23T15:33:05Z</time>
      </trkpt>
      <trkpt lat="49.33105" lon="1.32579">
        <ele>135</ele>
        <time>2017-05-23T15:33:05Z</time>
      </trkpt>
      <trkpt lat="49.33112" lon="1.32575">
        <ele>135</ele>
        <time>2017-05-23T15:33:05Z</time>
      </trkpt>
      <trkpt lat="49.33111" lon="1.32571">
        <ele>135</ele>
        <time>2017-05-23T15:33:21Z</time>
      </trkpt>
      <trkpt lat="49.33109" lon="1.32566">
        <ele>135</ele>
        <time>2017-05-23T15:33:22Z</time>
      </trkpt>
      <trkpt lat="49.33113" lon="1.32561">
        <ele>135</ele>
        <time>2017-05-23T15:33:22Z</time>
      </trkpt>
      <trkpt lat="49.33121" lon="1.3256">
        <ele>135</ele>
        <time>2017-05-23T15:33:22Z</time>
      </trkpt>
      <trkpt lat="49.33126" lon="1.32555">
        <ele>142</ele>
        <time>2017-05-23T15:33:37Z</time>
      </trkpt>
      <trkpt lat="49.33128" lon="1.32547">
        <ele>142</ele>
        <time>2017-05-23T15:33:37Z</time>
      </trkpt>
      <trkpt lat="49.33131" lon="1.32538">
        <ele>134</ele>
        <time>2017-05-23T15:33:37Z</time>
      </trkpt>
      <trkpt lat="49.33142" lon="1.32531">
        <ele>134</ele>
        <time>2017-05-23T15:33:37Z</time>
      </trkpt>
      <trkpt lat="49.33142" lon="1.32513">
        <ele>134</ele>
        <time>2017-05-23T15:34:13Z</time>
      </trkpt>
      <trkpt lat="49.33152" lon="1.32508">
        <ele>134</ele>
        <time>2017-05-23T15:34:13Z</time>
      </trkpt>
      <trkpt lat="49.33153" lon="1.32508">
        <ele>134</ele>
        <time>2017-05-23T15:34:13Z</time>
      </trkpt>
      <trkpt lat="49.33161" lon="1.32502">
        <ele>134</ele>
        <time>2017-05-23T15:34:13Z</time>
      </trkpt>
      <trkpt lat="49.33165" lon="1.32497">
        <ele>134</ele>
        <time>2017-05-23T15:34:13Z</time>
      </trkpt>
      <trkpt lat="49.33165" lon="1.32497">
        <ele>134</ele>
        <time>2017-05-23T15:34:29Z</time>
      </trkpt>
      <trkpt lat="49.33163" lon="1.32488">
        <ele>134</ele>
        <time>2017-05-23T15:34:29Z</time>
      </trkpt>
      <trkpt lat="49.33165" lon="1.32487">
        <ele>134</ele>
        <time>2017-05-23T15:34:29Z</time>
      </trkpt>
      <trkpt lat="49.33168" lon="1.32483">
        <ele>134</ele>
        <time>2017-05-23T15:34:29Z</time>
      </trkpt>
      <trkpt lat="49.3317" lon="1.3248">
        <ele>134</ele>
        <time>2017-05-23T15:34:53Z</time>
      </trkpt>
      <trkpt lat="49.33173" lon="1.32479">
        <ele>134</ele>
        <time>2017-05-23T15:34:53Z</time>
      </trkpt>
      <trkpt lat="49.33173" lon="1.32478">
        <ele>134</ele>
        <time>2017-05-23T15:34:53Z</time>
      </trkpt>
      <trkpt lat="49.33173" lon="1.32478">
        <ele>134</ele>
        <time>2017-05-23T15:34:53Z</time>
      </trkpt>
      <trkpt lat="49.33177" lon="1.32473">
        <ele>134</ele>
        <time>2017-05-23T15:34:53Z</time>
      </trkpt>
      <trkpt lat="49.33183" lon="1.32461">
        <ele>134</ele>
        <time>2017-05-23T15:35:09Z</time>
      </trkpt>
      <trkpt lat="49.3319" lon="1.32451">
        <ele>128</ele>
        <time>2017-05-23T15:35:09Z</time>
      </trkpt>
      <trkpt lat="49.33193" lon="1.32442">
        <ele>128</ele>
        <time>2017-05-23T15:35:09Z</time>
      </trkpt>
      <trkpt lat="49.33202" lon="1.32434">
        <ele>128</ele>
        <time>2017-05-23T15:35:09Z</time>
      </trkpt>
      <trkpt lat="49.33205" lon="1.32427">
        <ele>128</ele>
        <time>2017-05-23T15:35:25Z</time>
      </trkpt>
      <trkpt lat="49.33203" lon="1.32419">
        <ele>128</ele>
        <time>2017-05-23T15:35:25Z</time>
      </trkpt>
      <trkpt lat="49.33203" lon="1.32412">
        <ele>128</ele>
        <time>2017-05-23T15:35:25Z</time>
      </trkpt>
      <trkpt lat="49.33205" lon="1.32409">
        <ele>128</ele>
        <time>2017-05-23T15:35:25Z</time>
      </trkpt>
      <trkpt lat="49.33209" lon="1.32404">
        <ele>131</ele>
        <time>2017-05-23T15:35:41Z</time>
      </trkpt>
      <trkpt lat="49.33211" lon="1.32402">
        <ele>131</ele>
        <time>2017-05-23T15:35:41Z</time>
      </trkpt>
      <trkpt lat="49.33221" lon="1.32398">
        <ele>131</ele>
        <time>2017-05-23T15:35:41Z</time>
      </trkpt>
      <trkpt lat="49.3322" lon="1.32393">
        <ele>131</ele>
        <time>2017-05-23T15:35:41Z</time>
      </trkpt>
      <trkpt lat="49.33222" lon="1.32392">
        <ele>131</ele>
        <time>2017-05-23T15:35:57Z</time>
      </trkpt>
      <trkpt lat="49.33223" lon="1.32391">
        <ele>131</ele>
        <time>2017-05-23T15:35:57Z</time>
      </trkpt>
      <trkpt lat="49.33224" lon="1.32384">
        <ele>131</ele>
        <time>2017-05-23T15:35:57Z</time>
      </trkpt>
      <trkpt lat="49.33228" lon="1.32378">
        <ele>131</ele>
        <time>2017-05-23T15:35:57Z</time>
      </trkpt>
      <trkpt lat="49.33238" lon="1.32369">
        <ele>121</ele>
        <time>2017-05-23T15:36:13Z</time>
      </trkpt>
      <trkpt lat="49.33242" lon="1.32364">
        <ele>121</ele>
        <time>2017-05-23T15:36:13Z</time>
      </trkpt>
      <trkpt lat="49.33242" lon="1.32358">
        <ele>121</ele>
        <time>2017-05-23T15:36:13Z</time>
      </trkpt>
      <trkpt lat="49.33238" lon="1.32352">
        <ele>121</ele>
        <time>2017-05-23T15:36:13Z</time>
      </trkpt>
      <trkpt lat="49.33235" lon="1.32346">
        <ele>121</ele>
        <time>2017-05-23T15:36:29Z</time>
      </trkpt>
      <trkpt lat="49.33242" lon="1.32342">
        <ele>121</ele>
        <time>2017-05-23T15:36:30Z</time>
      </trkpt>
      <trkpt lat="49.33252" lon="1.32333">
        <ele>121</ele>
        <time>2017-05-23T15:36:30Z</time>
      </trkpt>
      <trkpt lat="49.33255" lon="1.32326">
        <ele>121</ele>
        <time>2017-05-23T15:36:30Z</time>
      </trkpt>
      <trkpt lat="49.33263" lon="1.32321">
        <ele>121</ele>
        <time>2017-05-23T15:36:45Z</time>
      </trkpt>
      <trkpt lat="49.33265" lon="1.32316">
        <ele>121</ele>
        <time>2017-05-23T15:36:46Z</time>
      </trkpt>
      <trkpt lat="49.33268" lon="1.32311">
        <ele>121</ele>
        <time>2017-05-23T15:36:46Z</time>
      </trkpt>
      <trkpt lat="49.33271" lon="1.32304">
        <ele>121</ele>
        <time>2017-05-23T15:36:46Z</time>
      </trkpt>
      <trkpt lat="49.33271" lon="1.32301">
        <ele>121</ele>
        <time>2017-05-23T15:37:01Z</time>
      </trkpt>
      <trkpt lat="49.33274" lon="1.32293">
        <ele>121</ele>
        <time>2017-05-23T15:37:02Z</time>
      </trkpt>
      <trkpt lat="49.33276" lon="1.32287">
        <ele>107</ele>
        <time>2017-05-23T15:37:02Z</time>
      </trkpt>
      <trkpt lat="49.33282" lon="1.32279">
        <ele>107</ele>
        <time>2017-05-23T15:37:02Z</time>
      </trkpt>
      <trkpt lat="49.33284" lon="1.32274">
        <ele>107</ele>
        <time>2017-05-23T15:37:17Z</time>
      </trkpt>
      <trkpt lat="49.33291" lon="1.3227">
        <ele>107</ele>
        <time>2017-05-23T15:37:17Z</time>
      </trkpt>
      <trkpt lat="49.33291" lon="1.32264">
        <ele>107</ele>
        <time>2017-05-23T15:37:17Z</time>
      </trkpt>
      <trkpt lat="49.3329" lon="1.3226">
        <ele>107</ele>
        <time>2017-05-23T15:37:17Z</time>
      </trkpt>
      <trkpt lat="49.33294" lon="1.32256">
        <ele>114</ele>
        <time>2017-05-23T15:37:33Z</time>
      </trkpt>
      <trkpt lat="49.33297" lon="1.32248">
        <ele>114</ele>
        <time>2017-05-23T15:37:33Z</time>
      </trkpt>
      <trkpt lat="49.33296" lon="1.32239">
        <ele>114</ele>
        <time>2017-05-23T15:37:33Z</time>
      </trkpt>
      <trkpt lat="49.33299" lon="1.32234">
        <ele>114</ele>
        <time>2017-05-23T15:37:33Z</time>
      </trkpt>
      <trkpt lat="49.333" lon="1.32231">
        <ele>114</ele>
        <time>2017-05-23T15:37:49Z</time>
      </trkpt>
      <trkpt lat="49.33308" lon="1.32225">
        <ele>114</ele>
        <time>2017-05-23T15:37:49Z</time>
      </trkpt>
      <trkpt lat="49.33308" lon="1.32223">
        <ele>114</ele>
        <time>2017-05-23T15:37:49Z</time>
      </trkpt>
      <trkpt lat="49.33313" lon="1.32221">
        <ele>114</ele>
        <time>2017-05-23T15:37:49Z</time>
      </trkpt>
      <trkpt lat="49.33313" lon="1.32213">
        <ele>114</ele>
        <time>2017-05-23T15:38:05Z</time>
      </trkpt>
      <trkpt lat="49.33322" lon="1.32208">
        <ele>109</ele>
        <time>2017-05-23T15:38:06Z</time>
      </trkpt>
      <trkpt lat="49.33322" lon="1.32204">
        <ele>109</ele>
        <time>2017-05-23T15:38:06Z</time>
      </trkpt>
      <trkpt lat="49.33322" lon="1.32198">
        <ele>109</ele>
        <time>2017-05-23T15:38:07Z</time>
      </trkpt>
      <trkpt lat="49.33328" lon="1.32188">
        <ele>109</ele>
        <time>2017-05-23T15:38:21Z</time>
      </trkpt>
      <trkpt lat="49.33328" lon="1.32182">
        <ele>109</ele>
        <time>2017-05-23T15:38:21Z</time>
      </trkpt>
      <trkpt lat="49.33324" lon="1.32176">
        <ele>109</ele>
        <time>2017-05-23T15:38:21Z</time>
      </trkpt>
      <trkpt lat="49.33328" lon="1.32168">
        <ele>109</ele>
        <time>2017-05-23T15:38:21Z</time>
      </trkpt>
      <trkpt lat="49.3333" lon="1.32157">
        <ele>109</ele>
        <time>2017-05-23T15:38:37Z</time>
      </trkpt>
      <trkpt lat="49.33337" lon="1.32155">
        <ele>109</ele>
        <time>2017-05-23T15:38:37Z</time>
      </trkpt>
      <trkpt lat="49.33336" lon="1.32147">
        <ele>109</ele>
        <time>2017-05-23T15:38:37Z</time>
      </trkpt>
      <trkpt lat="49.33336" lon="1.32142">
        <ele>109</ele>
        <time>2017-05-23T15:38:37Z</time>
      </trkpt>
      <trkpt lat="49.33338" lon="1.32138">
        <ele>109</ele>
        <time>2017-05-23T15:38:53Z</time>
      </trkpt>
      <trkpt lat="49.3334" lon="1.32134">
        <ele>109</ele>
        <time>2017-05-23T15:38:53Z</time>
      </trkpt>
      <trkpt lat="49.33344" lon="1.32129">
        <ele>109</ele>
        <time>2017-05-23T15:38:53Z</time>
      </trkpt>
      <trkpt lat="49.33348" lon="1.32119">
        <ele>104</ele>
        <time>2017-05-23T15:38:53Z</time>
      </trkpt>
      <trkpt lat="49.3335" lon="1.32114">
        <ele>104</ele>
        <time>2017-05-23T15:39:09Z</time>
      </trkpt>
      <trkpt lat="49.33353" lon="1.32108">
        <ele>104</ele>
        <time>2017-05-23T15:39:09Z</time>
      </trkpt>
      <trkpt lat="49.33354" lon="1.321">
        <ele>104</ele>
        <time>2017-05-23T15:39:09Z</time>
      </trkpt>
      <trkpt lat="49.33352" lon="1.3209">
        <ele>104</ele>
        <time>2017-05-23T15:39:09Z</time>
      </trkpt>
      <trkpt lat="49.33348" lon="1.32084">
        <ele>104</ele>
        <time>2017-05-23T15:39:25Z</time>
      </trkpt>
      <trkpt lat="49.33349" lon="1.32075">
        <ele>104</ele>
        <time>2017-05-23T15:39:26Z</time>
      </trkpt>
      <trkpt lat="49.33349" lon="1.32067">
        <ele>104</ele>
        <time>2017-05-23T15:39:26Z</time>
      </trkpt>
      <trkpt lat="49.3335" lon="1.32061">
        <ele>104</ele>
        <time>2017-05-23T15:39:26Z</time>
      </trkpt>
      <trkpt lat="49.33352" lon="1.32053">
        <ele>104</ele>
        <time>2017-05-23T15:39:41Z</time>
      </trkpt>
      <trkpt lat="49.33351" lon="1.32051">
        <ele>104</ele>
        <time>2017-05-23T15:39:41Z</time>
      </trkpt>
      <trkpt lat="49.33352" lon="1.32042">
        <ele>96</ele>
        <time>2017-05-23T15:39:41Z</time>
      </trkpt>
      <trkpt lat="49.33356" lon="1.32035">
        <ele>96</ele>
        <time>2017-05-23T15:39:41Z</time>
      </trkpt>
      <trkpt lat="49.3336" lon="1.32028">
        <ele>96</ele>
        <time>2017-05-23T15:39:57Z</time>
      </trkpt>
      <trkpt lat="49.33361" lon="1.32022">
        <ele>96</ele>
        <time>2017-05-23T15:39:57Z</time>
      </trkpt>
      <trkpt lat="49.33362" lon="1.32015">
        <ele>96</ele>
        <time>2017-05-23T15:39:57Z</time>
      </trkpt>
      <trkpt lat="49.33364" lon="1.32007">
        <ele>96</ele>
        <time>2017-05-23T15:39:57Z</time>
      </trkpt>
      <trkpt lat="49.33363" lon="1.31998">
        <ele>96</ele>
        <time>2017-05-23T15:40:13Z</time>
      </trkpt>
      <trkpt lat="49.33367" lon="1.31992">
        <ele>96</ele>
        <time>2017-05-23T15:40:13Z</time>
      </trkpt>
      <trkpt lat="49.33366" lon="1.31986">
        <ele>96</ele>
        <time>2017-05-23T15:40:13Z</time>
      </trkpt>
      <trkpt lat="49.33367" lon="1.31981">
        <ele>96</ele>
        <time>2017-05-23T15:40:13Z</time>
      </trkpt>
      <trkpt lat="49.33369" lon="1.31975">
        <ele>96</ele>
        <time>2017-05-23T15:40:29Z</time>
      </trkpt>
      <trkpt lat="49.3337" lon="1.31968">
        <ele>96</ele>
        <time>2017-05-23T15:40:29Z</time>
      </trkpt>
      <trkpt lat="49.33369" lon="1.31964">
        <ele>96</ele>
        <time>2017-05-23T15:40:29Z</time>
      </trkpt>
      <trkpt lat="49.33375" lon="1.31956">
        <ele>82</ele>
        <time>2017-05-23T15:40:29Z</time>
      </trkpt>
      <trkpt lat="49.33375" lon="1.31949">
        <ele>82</ele>
        <time>2017-05-23T15:40:45Z</time>
      </trkpt>
      <trkpt lat="49.33374" lon="1.3194">
        <ele>82</ele>
        <time>2017-05-23T15:40:45Z</time>
      </trkpt>
      <trkpt lat="49.33377" lon="1.31934">
        <ele>97</ele>
        <time>2017-05-23T15:40:45Z</time>
      </trkpt>
      <trkpt lat="49.33377" lon="1.31929">
        <ele>97</ele>
        <time>2017-05-23T15:40:45Z</time>
      </trkpt>
      <trkpt lat="49.33379" lon="1.31926">
        <ele>97</ele>
        <time>2017-05-23T15:41:01Z</time>
      </trkpt>
      <trkpt lat="49.33378" lon="1.3192">
        <ele>97</ele>
        <time>2017-05-23T15:41:01Z</time>
      </trkpt>
      <trkpt lat="49.33378" lon="1.31914">
        <ele>97</ele>
        <time>2017-05-23T15:41:01Z</time>
      </trkpt>
      <trkpt lat="49.33385" lon="1.31903">
        <ele>97</ele>
        <time>2017-05-23T15:41:01Z</time>
      </trkpt>
      <trkpt lat="49.33384" lon="1.31895">
        <ele>97</ele>
        <time>2017-05-23T15:41:17Z</time>
      </trkpt>
      <trkpt lat="49.33386" lon="1.3189">
        <ele>97</ele>
        <time>2017-05-23T15:41:18Z</time>
      </trkpt>
      <trkpt lat="49.33388" lon="1.31887">
        <ele>97</ele>
        <time>2017-05-23T15:41:18Z</time>
      </trkpt>
      <trkpt lat="49.33388" lon="1.31878">
        <ele>97</ele>
        <time>2017-05-23T15:41:18Z</time>
      </trkpt>
      <trkpt lat="49.33387" lon="1.31869">
        <ele>93</ele>
        <time>2017-05-23T15:41:33Z</time>
      </trkpt>
      <trkpt lat="49.33388" lon="1.31862">
        <ele>93</ele>
        <time>2017-05-23T15:41:33Z</time>
      </trkpt>
      <trkpt lat="49.3339" lon="1.31861">
        <ele>93</ele>
        <time>2017-05-23T15:41:33Z</time>
      </trkpt>
      <trkpt lat="49.33386" lon="1.31849">
        <ele>93</ele>
        <time>2017-05-23T15:41:33Z</time>
      </trkpt>
      <trkpt lat="49.33389" lon="1.31844">
        <ele>93</ele>
        <time>2017-05-23T15:41:49Z</time>
      </trkpt>
      <trkpt lat="49.3339" lon="1.31836">
        <ele>93</ele>
        <time>2017-05-23T15:41:49Z</time>
      </trkpt>
      <trkpt lat="49.33391" lon="1.31829">
        <ele>93</ele>
        <time>2017-05-23T15:41:49Z</time>
      </trkpt>
      <trkpt lat="49.33393" lon="1.31824">
        <ele>93</ele>
        <time>2017-05-23T15:41:49Z</time>
      </trkpt>
      <trkpt lat="49.33394" lon="1.31819">
        <ele>93</ele>
        <time>2017-05-23T15:42:05Z</time>
      </trkpt>
      <trkpt lat="49.33398" lon="1.31812">
        <ele>93</ele>
        <time>2017-05-23T15:42:05Z</time>
      </trkpt>
      <trkpt lat="49.33403" lon="1.31804">
        <ele>93</ele>
        <time>2017-05-23T15:42:05Z</time>
      </trkpt>
      <trkpt lat="49.33404" lon="1.318">
        <ele>93</ele>
        <time>2017-05-23T15:42:05Z</time>
      </trkpt>
      <trkpt lat="49.33406" lon="1.31792">
        <ele>93</ele>
        <time>2017-05-23T15:42:21Z</time>
      </trkpt>
      <trkpt lat="49.33404" lon="1.31786">
        <ele>85</ele>
        <time>2017-05-23T15:42:21Z</time>
      </trkpt>
      <trkpt lat="49.33406" lon="1.31782">
        <ele>85</ele>
        <time>2017-05-23T15:42:21Z</time>
      </trkpt>
      <trkpt lat="49.33404" lon="1.31778">
        <ele>85</ele>
        <time>2017-05-23T15:42:21Z</time>
      </trkpt>
      <trkpt lat="49.33408" lon="1.31774">
        <ele>85</ele>
        <time>2017-05-23T15:42:37Z</time>
      </trkpt>
      <trkpt lat="49.3341" lon="1.31769">
        <ele>85</ele>
        <time>2017-05-23T15:42:37Z</time>
      </trkpt>
      <trkpt lat="49.33414" lon="1.31764">
        <ele>85</ele>
        <time>2017-05-23T15:42:37Z</time>
      </trkpt>
      <trkpt lat="49.33414" lon="1.31756">
        <ele>85</ele>
        <time>2017-05-23T15:42:37Z</time>
      </trkpt>
      <trkpt lat="49.33414" lon="1.31752">
        <ele>85</ele>
        <time>2017-05-23T15:42:53Z</time>
      </trkpt>
      <trkpt lat="49.33413" lon="1.31746">
        <ele>85</ele>
        <time>2017-05-23T15:42:53Z</time>
      </trkpt>
      <trkpt lat="49.33412" lon="1.31742">
        <ele>85</ele>
        <time>2017-05-23T15:42:53Z</time>
      </trkpt>
      <trkpt lat="49.3341" lon="1.31735">
        <ele>85</ele>
        <time>2017-05-23T15:42:53Z</time>
      </trkpt>
      <trkpt lat="49.33408" lon="1.31726">
        <ele>85</ele>
        <time>2017-05-23T15:43:09Z</time>
      </trkpt>
      <trkpt lat="49.3341" lon="1.31719">
        <ele>85</ele>
        <time>2017-05-23T15:43:09Z</time>
      </trkpt>
      <trkpt lat="49.3341" lon="1.31713">
        <ele>85</ele>
        <time>2017-05-23T15:43:09Z</time>
      </trkpt>
      <trkpt lat="49.33407" lon="1.31705">
        <ele>72</ele>
        <time>2017-05-23T15:43:09Z</time>
      </trkpt>
      <trkpt lat="49.33406" lon="1.31699">
        <ele>72</ele>
        <time>2017-05-23T15:43:25Z</time>
      </trkpt>
      <trkpt lat="49.33406" lon="1.31695">
        <ele>72</ele>
        <time>2017-05-23T15:43:25Z</time>
      </trkpt>
      <trkpt lat="49.33411" lon="1.31688">
        <ele>72</ele>
        <time>2017-05-23T15:43:25Z</time>
      </trkpt>
      <trkpt lat="49.33407" lon="1.31678">
        <ele>72</ele>
        <time>2017-05-23T15:43:25Z</time>
      </trkpt>
      <trkpt lat="49.33414" lon="1.31674">
        <ele>72</ele>
        <time>2017-05-23T15:43:41Z</time>
      </trkpt>
      <trkpt lat="49.33412" lon="1.31667">
        <ele>72</ele>
        <time>2017-05-23T15:43:41Z</time>
      </trkpt>
      <trkpt lat="49.33411" lon="1.3166">
        <ele>72</ele>
        <time>2017-05-23T15:43:41Z</time>
      </trkpt>
      <trkpt lat="49.33409" lon="1.31652">
        <ele>72</ele>
        <time>2017-05-23T15:43:41Z</time>
      </trkpt>
      <trkpt lat="49.33406" lon="1.31647">
        <ele>72</ele>
        <time>2017-05-23T15:44:01Z</time>
      </trkpt>
      <trkpt lat="49.33407" lon="1.31643">
        <ele>72</ele>
        <time>2017-05-23T15:44:01Z</time>
      </trkpt>
      <trkpt lat="49.33409" lon="1.3164">
        <ele>72</ele>
        <time>2017-05-23T15:44:01Z</time>
      </trkpt>
      <trkpt lat="49.33408" lon="1.31635">
        <ele>72</ele>
        <time>2017-05-23T15:44:01Z</time>
      </trkpt>
      <trkpt lat="49.33411" lon="1.3163">
        <ele>72</ele>
        <time>2017-05-23T15:44:01Z</time>
      </trkpt>
      <trkpt lat="49.33413" lon="1.31627">
        <ele>72</ele>
        <time>2017-05-23T15:44:17Z</time>
      </trkpt>
      <trkpt lat="49.33414" lon="1.31623">
        <ele>65</ele>
        <time>2017-05-23T15:44:17Z</time>
      </trkpt>
      <trkpt lat="49.33413" lon="1.31617">
        <ele>65</ele>
        <time>2017-05-23T15:44:17Z</time>
      </trkpt>
      <trkpt lat="49.33413" lon="1.31609">
        <ele>65</ele>
        <time>2017-05-23T15:44:17Z</time>
      </trkpt>
      <trkpt lat="49.33415" lon="1.31603">
        <ele>65</ele>
        <time>2017-05-23T15:44:33Z</time>
      </trkpt>
      <trkpt lat="49.3342" lon="1.31594">
        <ele>65</ele>
        <time>2017-05-23T15:44:33Z</time>
      </trkpt>
      <trkpt lat="49.33421" lon="1.31587">
        <ele>65</ele>
        <time>2017-05-23T15:44:33Z</time>
      </trkpt>
      <trkpt lat="49.33424" lon="1.31578">
        <ele>65</ele>
        <time>2017-05-23T15:44:33Z</time>
      </trkpt>
      <trkpt lat="49.33461" lon="1.31314">
        <ele>62</ele>
        <time>2017-05-23T15:53:50Z</time>
      </trkpt>
      <trkpt lat="49.33463" lon="1.31313">
        <ele>62</ele>
        <time>2017-05-23T15:53:50Z</time>
      </trkpt>
      <trkpt lat="49.33463" lon="1.31312">
        <ele>62</ele>
        <time>2017-05-23T15:53:50Z</time>
      </trkpt>
      <trkpt lat="49.33464" lon="1.31312">
        <ele>62</ele>
        <time>2017-05-23T15:53:50Z</time>
      </trkpt>
      <trkpt lat="49.3347" lon="1.31304">
        <ele>62</ele>
        <time>2017-05-23T15:53:50Z</time>
      </trkpt>
      <trkpt lat="49.33483" lon="1.31296">
        <ele>62</ele>
        <time>2017-05-23T15:54:06Z</time>
      </trkpt>
      <trkpt lat="49.33488" lon="1.31289">
        <ele>72</ele>
        <time>2017-05-23T15:54:06Z</time>
      </trkpt>
      <trkpt lat="49.33494" lon="1.31284">
        <ele>72</ele>
        <time>2017-05-23T15:54:06Z</time>
      </trkpt>
      <trkpt lat="49.33501" lon="1.31277">
        <ele>72</ele>
        <time>2017-05-23T15:54:06Z</time>
      </trkpt>
      <trkpt lat="49.33498" lon="1.31268">
        <ele>72</ele>
        <time>2017-05-23T15:54:22Z</time>
      </trkpt>
      <trkpt lat="49.33498" lon="1.31262">
        <ele>72</ele>
        <time>2017-05-23T15:54:22Z</time>
      </trkpt>
      <trkpt lat="49.33506" lon="1.3126">
        <ele>72</ele>
        <time>2017-05-23T15:54:22Z</time>
      </trkpt>
      <trkpt lat="49.33511" lon="1.31258">
        <ele>72</ele>
        <time>2017-05-23T15:54:22Z</time>
      </trkpt>
      <trkpt lat="49.33513" lon="1.31254">
        <ele>72</ele>
        <time>2017-05-23T15:54:42Z</time>
      </trkpt>
      <trkpt lat="49.33513" lon="1.31251">
        <ele>72</ele>
        <time>2017-05-23T15:54:42Z</time>
      </trkpt>
      <trkpt lat="49.33515" lon="1.31247">
        <ele>72</ele>
        <time>2017-05-23T15:54:42Z</time>
      </trkpt>
      <trkpt lat="49.33515" lon="1.31241">
        <ele>72</ele>
        <time>2017-05-23T15:54:42Z</time>
      </trkpt>
      <trkpt lat="49.33521" lon="1.31236">
        <ele>72</ele>
        <time>2017-05-23T15:54:42Z</time>
      </trkpt>
      <trkpt lat="49.33521" lon="1.31232">
        <ele>72</ele>
        <time>2017-05-23T15:54:58Z</time>
      </trkpt>
      <trkpt lat="49.33525" lon="1.3122">
        <ele>72</ele>
        <time>2017-05-23T15:54:58Z</time>
      </trkpt>
      <trkpt lat="49.33528" lon="1.31209">
        <ele>72</ele>
        <time>2017-05-23T15:54:58Z</time>
      </trkpt>
      <trkpt lat="49.33531" lon="1.31202">
        <ele>75</ele>
        <time>2017-05-23T15:54:58Z</time>
      </trkpt>
      <trkpt lat="49.33532" lon="1.31195">
        <ele>75</ele>
        <time>2017-05-23T15:55:15Z</time>
      </trkpt>
      <trkpt lat="49.33534" lon="1.31189">
        <ele>75</ele>
        <time>2017-05-23T15:55:15Z</time>
      </trkpt>
      <trkpt lat="49.33538" lon="1.31181">
        <ele>75</ele>
        <time>2017-05-23T15:55:15Z</time>
      </trkpt>
      <trkpt lat="49.33538" lon="1.31174">
        <ele>75</ele>
        <time>2017-05-23T15:55:15Z</time>
      </trkpt>
      <trkpt lat="49.3354" lon="1.31169">
        <ele>75</ele>
        <time>2017-05-23T15:55:31Z</time>
      </trkpt>
      <trkpt lat="49.33542" lon="1.3116">
        <ele>73</ele>
        <time>2017-05-23T15:55:31Z</time>
      </trkpt>
      <trkpt lat="49.33546" lon="1.31151">
        <ele>73</ele>
        <time>2017-05-23T15:55:31Z</time>
      </trkpt>
      <trkpt lat="49.33549" lon="1.31146">
        <ele>73</ele>
        <time>2017-05-23T15:55:31Z</time>
      </trkpt>
      <trkpt lat="49.33555" lon="1.31125">
        <ele>74</ele>
        <time>2017-05-23T15:55:55Z</time>
      </trkpt>
      <trkpt lat="49.33558" lon="1.31119">
        <ele>74</ele>
        <time>2017-05-23T15:55:55Z</time>
      </trkpt>
      <trkpt lat="49.33561" lon="1.31112">
        <ele>74</ele>
        <time>2017-05-23T15:55:55Z</time>
      </trkpt>
      <trkpt lat="49.33564" lon="1.31108">
        <ele>74</ele>
        <time>2017-05-23T15:55:55Z</time>
      </trkpt>
      <trkpt lat="49.33567" lon="1.31101">
        <ele>74</ele>
        <time>2017-05-23T15:56:11Z</time>
      </trkpt>
      <trkpt lat="49.3357" lon="1.31092">
        <ele>74</ele>
        <time>2017-05-23T15:56:11Z</time>
      </trkpt>
      <trkpt lat="49.33572" lon="1.31088">
        <ele>74</ele>
        <time>2017-05-23T15:56:11Z</time>
      </trkpt>
      <trkpt lat="49.33574" lon="1.31081">
        <ele>74</ele>
        <time>2017-05-23T15:56:11Z</time>
      </trkpt>
      <trkpt lat="49.33579" lon="1.31064">
        <ele>74</ele>
        <time>2017-05-23T15:56:30Z</time>
      </trkpt>
      <trkpt lat="49.33581" lon="1.31057">
        <ele>74</ele>
        <time>2017-05-23T15:56:30Z</time>
      </trkpt>
      <trkpt lat="49.33583" lon="1.31052">
        <ele>74</ele>
        <time>2017-05-23T15:56:30Z</time>
      </trkpt>
      <trkpt lat="49.33585" lon="1.31044">
        <ele>74</ele>
        <time>2017-05-23T15:56:30Z</time>
      </trkpt>
      <trkpt lat="49.33589" lon="1.31035">
        <ele>72</ele>
        <time>2017-05-23T15:56:47Z</time>
      </trkpt>
      <trkpt lat="49.33591" lon="1.31029">
        <ele>72</ele>
        <time>2017-05-23T15:56:47Z</time>
      </trkpt>
      <trkpt lat="49.33591" lon="1.31025">
        <ele>72</ele>
        <time>2017-05-23T15:56:49Z</time>
      </trkpt>
      <trkpt lat="49.33595" lon="1.31016">
        <ele>72</ele>
        <time>2017-05-23T15:56:49Z</time>
      </trkpt>
      <trkpt lat="49.33595" lon="1.31009">
        <ele>72</ele>
        <time>2017-05-23T15:57:02Z</time>
      </trkpt>
      <trkpt lat="49.33597" lon="1.31001">
        <ele>72</ele>
        <time>2017-05-23T15:57:02Z</time>
      </trkpt>
      <trkpt lat="49.33597" lon="1.30993">
        <ele>72</ele>
        <time>2017-05-23T15:57:02Z</time>
      </trkpt>
      <trkpt lat="49.33598" lon="1.30985">
        <ele>72</ele>
        <time>2017-05-23T15:57:02Z</time>
      </trkpt>
      <trkpt lat="49.33599" lon="1.30979">
        <ele>72</ele>
        <time>2017-05-23T15:57:18Z</time>
      </trkpt>
      <trkpt lat="49.33599" lon="1.30974">
        <ele>72</ele>
        <time>2017-05-23T15:57:18Z</time>
      </trkpt>
      <trkpt lat="49.336" lon="1.30965">
        <ele>72</ele>
        <time>2017-05-23T15:57:18Z</time>
      </trkpt>
      <trkpt lat="49.33602" lon="1.30955">
        <ele>69</ele>
        <time>2017-05-23T15:57:20Z</time>
      </trkpt>
      <trkpt lat="49.33604" lon="1.30951">
        <ele>69</ele>
        <time>2017-05-23T15:57:35Z</time>
      </trkpt>
      <trkpt lat="49.33606" lon="1.3094">
        <ele>69</ele>
        <time>2017-05-23T15:57:35Z</time>
      </trkpt>
      <trkpt lat="49.33607" lon="1.30935">
        <ele>69</ele>
        <time>2017-05-23T15:57:35Z</time>
      </trkpt>
      <trkpt lat="49.33609" lon="1.30925">
        <ele>69</ele>
        <time>2017-05-23T15:57:35Z</time>
      </trkpt>
      <trkpt lat="49.3361" lon="1.30917">
        <ele>69</ele>
        <time>2017-05-23T15:57:50Z</time>
      </trkpt>
      <trkpt lat="49.33611" lon="1.30907">
        <ele>69</ele>
        <time>2017-05-23T15:57:50Z</time>
      </trkpt>
      <trkpt lat="49.33611" lon="1.309">
        <ele>69</ele>
        <time>2017-05-23T15:57:50Z</time>
      </trkpt>
      <trkpt lat="49.33613" lon="1.30898">
        <ele>69</ele>
        <time>2017-05-23T15:57:50Z</time>
      </trkpt>
      <trkpt lat="49.33613" lon="1.30885">
        <ele>69</ele>
        <time>2017-05-23T15:58:06Z</time>
      </trkpt>
      <trkpt lat="49.33614" lon="1.30878">
        <ele>69</ele>
        <time>2017-05-23T15:58:06Z</time>
      </trkpt>
      <trkpt lat="49.33614" lon="1.3087">
        <ele>66</ele>
        <time>2017-05-23T15:58:06Z</time>
      </trkpt>
      <trkpt lat="49.33615" lon="1.30866">
        <ele>66</ele>
        <time>2017-05-23T15:58:06Z</time>
      </trkpt>
      <trkpt lat="49.33616" lon="1.30856">
        <ele>66</ele>
        <time>2017-05-23T15:58:22Z</time>
      </trkpt>
      <trkpt lat="49.33617" lon="1.3085">
        <ele>66</ele>
        <time>2017-05-23T15:58:22Z</time>
      </trkpt>
      <trkpt lat="49.33619" lon="1.30841">
        <ele>66</ele>
        <time>2017-05-23T15:58:22Z</time>
      </trkpt>
      <trkpt lat="49.33619" lon="1.30835">
        <ele>66</ele>
        <time>2017-05-23T15:58:22Z</time>
      </trkpt>
      <trkpt lat="49.3362" lon="1.30829">
        <ele>66</ele>
        <time>2017-05-23T15:58:38Z</time>
      </trkpt>
      <trkpt lat="49.33621" lon="1.3082">
        <ele>66</ele>
        <time>2017-05-23T15:58:38Z</time>
      </trkpt>
      <trkpt lat="49.33622" lon="1.30811">
        <ele>66</ele>
        <time>2017-05-23T15:58:38Z</time>
      </trkpt>
      <trkpt lat="49.33622" lon="1.30801">
        <ele>66</ele>
        <time>2017-05-23T15:58:38Z</time>
      </trkpt>
      <trkpt lat="49.33623" lon="1.30795">
        <ele>66</ele>
        <time>2017-05-23T15:58:54Z</time>
      </trkpt>
      <trkpt lat="49.33624" lon="1.30787">
        <ele>63</ele>
        <time>2017-05-23T15:58:56Z</time>
      </trkpt>
      <trkpt lat="49.33625" lon="1.30782">
        <ele>63</ele>
        <time>2017-05-23T15:58:56Z</time>
      </trkpt>
      <trkpt lat="49.33626" lon="1.3077">
        <ele>62</ele>
        <time>2017-05-23T15:58:56Z</time>
      </trkpt>
      <trkpt lat="49.33627" lon="1.30757">
        <ele>62</ele>
        <time>2017-05-23T15:59:14Z</time>
      </trkpt>
      <trkpt lat="49.33627" lon="1.30749">
        <ele>62</ele>
        <time>2017-05-23T15:59:14Z</time>
      </trkpt>
      <trkpt lat="49.33628" lon="1.30741">
        <ele>62</ele>
        <time>2017-05-23T15:59:14Z</time>
      </trkpt>
      <trkpt lat="49.33629" lon="1.30735">
        <ele>62</ele>
        <time>2017-05-23T15:59:14Z</time>
      </trkpt>
      <trkpt lat="49.33631" lon="1.30716">
        <ele>62</ele>
        <time>2017-05-23T15:59:46Z</time>
      </trkpt>
      <trkpt lat="49.33631" lon="1.3071">
        <ele>62</ele>
        <time>2017-05-23T15:59:46Z</time>
      </trkpt>
      <trkpt lat="49.33632" lon="1.30702">
        <ele>58</ele>
        <time>2017-05-23T15:59:46Z</time>
      </trkpt>
      <trkpt lat="49.33633" lon="1.30694">
        <ele>58</ele>
        <time>2017-05-23T15:59:46Z</time>
      </trkpt>
      <trkpt lat="49.33635" lon="1.30687">
        <ele>58</ele>
        <time>2017-05-23T15:59:46Z</time>
      </trkpt>
      <trkpt lat="49.33636" lon="1.30681">
        <ele>58</ele>
        <time>2017-05-23T16:00:02Z</time>
      </trkpt>
      <trkpt lat="49.33637" lon="1.30674">
        <ele>58</ele>
        <time>2017-05-23T16:00:02Z</time>
      </trkpt>
      <trkpt lat="49.33638" lon="1.30668">
        <ele>58</ele>
        <time>2017-05-23T16:00:02Z</time>
      </trkpt>
      <trkpt lat="49.33638" lon="1.30662">
        <ele>58</ele>
        <time>2017-05-23T16:00:02Z</time>
      </trkpt>
      <trkpt lat="49.33638" lon="1.30653">
        <ele>58</ele>
        <time>2017-05-23T16:00:19Z</time>
      </trkpt>
      <trkpt lat="49.33637" lon="1.30646">
        <ele>58</ele>
        <time>2017-05-23T16:00:19Z</time>
      </trkpt>
      <trkpt lat="49.33638" lon="1.30641">
        <ele>58</ele>
        <time>2017-05-23T16:00:19Z</time>
      </trkpt>
      <trkpt lat="49.33639" lon="1.30631">
        <ele>58</ele>
        <time>2017-05-23T16:00:19Z</time>
      </trkpt>
      <trkpt lat="49.3364" lon="1.30618">
        <ele>53</ele>
        <time>2017-05-23T16:00:39Z</time>
      </trkpt>
      <trkpt lat="49.33641" lon="1.3061">
        <ele>53</ele>
        <time>2017-05-23T16:00:39Z</time>
      </trkpt>
      <trkpt lat="49.33643" lon="1.30604">
        <ele>53</ele>
        <time>2017-05-23T16:00:39Z</time>
      </trkpt>
      <trkpt lat="49.33645" lon="1.30598">
        <ele>53</ele>
        <time>2017-05-23T16:00:39Z</time>
      </trkpt>
      <trkpt lat="49.33646" lon="1.30592">
        <ele>53</ele>
        <time>2017-05-23T16:00:54Z</time>
      </trkpt>
      <trkpt lat="49.33646" lon="1.30585">
        <ele>53</ele>
        <time>2017-05-23T16:00:54Z</time>
      </trkpt>
      <trkpt lat="49.33647" lon="1.3058">
        <ele>53</ele>
        <time>2017-05-23T16:00:56Z</time>
      </trkpt>
      <trkpt lat="49.33648" lon="1.3057">
        <ele>53</ele>
        <time>2017-05-23T16:00:56Z</time>
      </trkpt>
      <trkpt lat="49.33649" lon="1.30564">
        <ele>53</ele>
        <time>2017-05-23T16:01:10Z</time>
      </trkpt>
      <trkpt lat="49.33651" lon="1.30559">
        <ele>53</ele>
        <time>2017-05-23T16:01:10Z</time>
      </trkpt>
      <trkpt lat="49.33652" lon="1.30555">
        <ele>53</ele>
        <time>2017-05-23T16:01:10Z</time>
      </trkpt>
      <trkpt lat="49.33653" lon="1.30546">
        <ele>53</ele>
        <time>2017-05-23T16:01:10Z</time>
      </trkpt>
      <trkpt lat="49.33653" lon="1.30539">
        <ele>48</ele>
        <time>2017-05-23T16:01:26Z</time>
      </trkpt>
      <trkpt lat="49.33654" lon="1.30531">
        <ele>48</ele>
        <time>2017-05-23T16:01:26Z</time>
      </trkpt>
      <trkpt lat="49.33654" lon="1.30524">
        <ele>48</ele>
        <time>2017-05-23T16:01:26Z</time>
      </trkpt>
      <trkpt lat="49.33655" lon="1.30518">
        <ele>48</ele>
        <time>2017-05-23T16:01:26Z</time>
      </trkpt>
      <trkpt lat="49.33655" lon="1.30512">
        <ele>48</ele>
        <time>2017-05-23T16:01:42Z</time>
      </trkpt>
      <trkpt lat="49.33657" lon="1.30503">
        <ele>48</ele>
        <time>2017-05-23T16:01:42Z</time>
      </trkpt>
      <trkpt lat="49.33657" lon="1.30497">
        <ele>48</ele>
        <time>2017-05-23T16:01:42Z</time>
      </trkpt>
      <trkpt lat="49.33658" lon="1.30489">
        <ele>48</ele>
        <time>2017-05-23T16:01:42Z</time>
      </trkpt>
      <trkpt lat="49.33659" lon="1.30468">
        <ele>48</ele>
        <time>2017-05-23T16:02:08Z</time>
      </trkpt>
      <trkpt lat="49.33659" lon="1.3046">
        <ele>48</ele>
        <time>2017-05-23T16:02:08Z</time>
      </trkpt>
      <trkpt lat="49.33659" lon="1.30456">
        <ele>43</ele>
        <time>2017-05-23T16:02:08Z</time>
      </trkpt>
      <trkpt lat="49.33658" lon="1.30446">
        <ele>43</ele>
        <time>2017-05-23T16:02:08Z</time>
      </trkpt>
      <trkpt lat="49.33658" lon="1.30443">
        <ele>43</ele>
        <time>2017-05-23T16:02:22Z</time>
      </trkpt>
      <trkpt lat="49.33657" lon="1.30434">
        <ele>43</ele>
        <time>2017-05-23T16:02:22Z</time>
      </trkpt>
      <trkpt lat="49.33657" lon="1.30427">
        <ele>43</ele>
        <time>2017-05-23T16:02:22Z</time>
      </trkpt>
      <trkpt lat="49.33656" lon="1.30423">
        <ele>43</ele>
        <time>2017-05-23T16:02:22Z</time>
      </trkpt>
      <trkpt lat="49.33656" lon="1.30416">
        <ele>43</ele>
        <time>2017-05-23T16:02:38Z</time>
      </trkpt>
      <trkpt lat="49.33655" lon="1.30407">
        <ele>43</ele>
        <time>2017-05-23T16:02:39Z</time>
      </trkpt>
      <trkpt lat="49.33654" lon="1.30401">
        <ele>43</ele>
        <time>2017-05-23T16:02:39Z</time>
      </trkpt>
      <trkpt lat="49.33653" lon="1.30394">
        <ele>43</ele>
        <time>2017-05-23T16:02:39Z</time>
      </trkpt>
      <trkpt lat="49.33652" lon="1.30384">
        <ele>43</ele>
        <time>2017-05-23T16:02:55Z</time>
      </trkpt>
      <trkpt lat="49.3365" lon="1.30378">
        <ele>43</ele>
        <time>2017-05-23T16:02:55Z</time>
      </trkpt>
      <trkpt lat="49.33649" lon="1.30371">
        <ele>40</ele>
        <time>2017-05-23T16:02:55Z</time>
      </trkpt>
      <trkpt lat="49.33648" lon="1.30363">
        <ele>40</ele>
        <time>2017-05-23T16:02:55Z</time>
      </trkpt>
      <trkpt lat="49.33647" lon="1.30355">
        <ele>40</ele>
        <time>2017-05-23T16:03:11Z</time>
      </trkpt>
      <trkpt lat="49.33647" lon="1.30351">
        <ele>40</ele>
        <time>2017-05-23T16:03:11Z</time>
      </trkpt>
      <trkpt lat="49.33648" lon="1.30341">
        <ele>40</ele>
        <time>2017-05-23T16:03:11Z</time>
      </trkpt>
      <trkpt lat="49.33651" lon="1.30335">
        <ele>40</ele>
        <time>2017-05-23T16:03:11Z</time>
      </trkpt>
      <trkpt lat="49.33659" lon="1.30315">
        <ele>40</ele>
        <time>2017-05-23T16:03:34Z</time>
      </trkpt>
      <trkpt lat="49.33662" lon="1.30309">
        <ele>40</ele>
        <time>2017-05-23T16:03:34Z</time>
      </trkpt>
      <trkpt lat="49.33663" lon="1.30303">
        <ele>40</ele>
        <time>2017-05-23T16:03:34Z</time>
      </trkpt>
      <trkpt lat="49.33664" lon="1.303">
        <ele>40</ele>
        <time>2017-05-23T16:03:34Z</time>
      </trkpt>
      <trkpt lat="49.33669" lon="1.3029">
        <ele>36</ele>
        <time>2017-05-23T16:03:50Z</time>
      </trkpt>
      <trkpt lat="49.33672" lon="1.30286">
        <ele>36</ele>
        <time>2017-05-23T16:03:50Z</time>
      </trkpt>
      <trkpt lat="49.33675" lon="1.30279">
        <ele>36</ele>
        <time>2017-05-23T16:03:50Z</time>
      </trkpt>
      <trkpt lat="49.33677" lon="1.30275">
        <ele>36</ele>
        <time>2017-05-23T16:03:50Z</time>
      </trkpt>
      <trkpt lat="49.33686" lon="1.30256">
        <ele>36</ele>
        <time>2017-05-23T16:04:14Z</time>
      </trkpt>
      <trkpt lat="49.33689" lon="1.3025">
        <ele>36</ele>
        <time>2017-05-23T16:04:14Z</time>
      </trkpt>
      <trkpt lat="49.33692" lon="1.30244">
        <ele>36</ele>
        <time>2017-05-23T16:04:14Z</time>
      </trkpt>
      <trkpt lat="49.33695" lon="1.3024">
        <ele>36</ele>
        <time>2017-05-23T16:04:14Z</time>
      </trkpt>
      <trkpt lat="49.33699" lon="1.30235">
        <ele>36</ele>
        <time>2017-05-23T16:04:30Z</time>
      </trkpt>
      <trkpt lat="49.33703" lon="1.30231">
        <ele>36</ele>
        <time>2017-05-23T16:04:30Z</time>
      </trkpt>
      <trkpt lat="49.33708" lon="1.30226">
        <ele>36</ele>
        <time>2017-05-23T16:04:30Z</time>
      </trkpt>
      <trkpt lat="49.33712" lon="1.30223">
        <ele>34</ele>
        <time>2017-05-23T16:04:30Z</time>
      </trkpt>
      <trkpt lat="49.33714" lon="1.3022">
        <ele>34</ele>
        <time>2017-05-23T16:04:46Z</time>
      </trkpt>
      <trkpt lat="49.33719" lon="1.30216">
        <ele>34</ele>
        <time>2017-05-23T16:04:46Z</time>
      </trkpt>
      <trkpt lat="49.33723" lon="1.30211">
        <ele>34</ele>
        <time>2017-05-23T16:04:46Z</time>
      </trkpt>
      <trkpt lat="49.33726" lon="1.30209">
        <ele>34</ele>
        <time>2017-05-23T16:04:46Z</time>
      </trkpt>
      <trkpt lat="49.3373" lon="1.30205">
        <ele>32</ele>
        <time>2017-05-23T16:05:02Z</time>
      </trkpt>
      <trkpt lat="49.33733" lon="1.30201">
        <ele>32</ele>
        <time>2017-05-23T16:05:02Z</time>
      </trkpt>
      <trkpt lat="49.33739" lon="1.30195">
        <ele>32</ele>
        <time>2017-05-23T16:05:02Z</time>
      </trkpt>
      <trkpt lat="49.33741" lon="1.30193">
        <ele>32</ele>
        <time>2017-05-23T16:05:02Z</time>
      </trkpt>
      <trkpt lat="49.33745" lon="1.30191">
        <ele>32</ele>
        <time>2017-05-23T16:05:19Z</time>
      </trkpt>
      <trkpt lat="49.33749" lon="1.30187">
        <ele>32</ele>
        <time>2017-05-23T16:05:19Z</time>
      </trkpt>
      <trkpt lat="49.33754" lon="1.30181">
        <ele>32</ele>
        <time>2017-05-23T16:05:19Z</time>
      </trkpt>
      <trkpt lat="49.33758" lon="1.30177">
        <ele>32</ele>
        <time>2017-05-23T16:05:19Z</time>
      </trkpt>
      <trkpt lat="49.33759" lon="1.30175">
        <ele>32</ele>
        <time>2017-05-23T16:05:39Z</time>
      </trkpt>
      <trkpt lat="49.33768" lon="1.30161">
        <ele>32</ele>
        <time>2017-05-23T16:05:39Z</time>
      </trkpt>
      <trkpt lat="49.33772" lon="1.30156">
        <ele>32</ele>
        <time>2017-05-23T16:05:39Z</time>
      </trkpt>
      <trkpt lat="49.33775" lon="1.30151">
        <ele>32</ele>
        <time>2017-05-23T16:05:39Z</time>
      </trkpt>
      <trkpt lat="49.33778" lon="1.30146">
        <ele>32</ele>
        <time>2017-05-23T16:05:54Z</time>
      </trkpt>
      <trkpt lat="49.33781" lon="1.3014">
        <ele>32</ele>
        <time>2017-05-23T16:05:54Z</time>
      </trkpt>
      <trkpt lat="49.33784" lon="1.30135">
        <ele>32</ele>
        <time>2017-05-23T16:05:54Z</time>
      </trkpt>
      <trkpt lat="49.33787" lon="1.30131">
        <ele>32</ele>
        <time>2017-05-23T16:05:54Z</time>
      </trkpt>
      <trkpt lat="49.3379" lon="1.30126">
        <ele>32</ele>
        <time>2017-05-23T16:06:11Z</time>
      </trkpt>
      <trkpt lat="49.33792" lon="1.3012">
        <ele>28</ele>
        <time>2017-05-23T16:06:11Z</time>
      </trkpt>
      <trkpt lat="49.33795" lon="1.30113">
        <ele>28</ele>
        <time>2017-05-23T16:06:11Z</time>
      </trkpt>
      <trkpt lat="49.33798" lon="1.30107">
        <ele>28</ele>
        <time>2017-05-23T16:06:11Z</time>
      </trkpt>
      <trkpt lat="49.33801" lon="1.30099">
        <ele>28</ele>
        <time>2017-05-23T16:06:26Z</time>
      </trkpt>
      <trkpt lat="49.33803" lon="1.30094">
        <ele>28</ele>
        <time>2017-05-23T16:06:26Z</time>
      </trkpt>
      <trkpt lat="49.33805" lon="1.30088">
        <ele>28</ele>
        <time>2017-05-23T16:06:26Z</time>
      </trkpt>
      <trkpt lat="49.33806" lon="1.30083">
        <ele>28</ele>
        <time>2017-05-23T16:06:26Z</time>
      </trkpt>
      <trkpt lat="49.33809" lon="1.30077">
        <ele>28</ele>
        <time>2017-05-23T16:06:43Z</time>
      </trkpt>
      <trkpt lat="49.3381" lon="1.30072">
        <ele>28</ele>
        <time>2017-05-23T16:06:43Z</time>
      </trkpt>
      <trkpt lat="49.33812" lon="1.30065">
        <ele>28</ele>
        <time>2017-05-23T16:06:43Z</time>
      </trkpt>
      <trkpt lat="49.33815" lon="1.3006">
        <ele>28</ele>
        <time>2017-05-23T16:06:43Z</time>
      </trkpt>
      <trkpt lat="49.33818" lon="1.30054">
        <ele>28</ele>
        <time>2017-05-23T16:06:59Z</time>
      </trkpt>
      <trkpt lat="49.3382" lon="1.30048">
        <ele>28</ele>
        <time>2017-05-23T16:06:59Z</time>
      </trkpt>
      <trkpt lat="49.33824" lon="1.30041">
        <ele>26</ele>
        <time>2017-05-23T16:06:59Z</time>
      </trkpt>
      <trkpt lat="49.33828" lon="1.30036">
        <ele>26</ele>
        <time>2017-05-23T16:06:59Z</time>
      </trkpt>
      <trkpt lat="49.3383" lon="1.30032">
        <ele>26</ele>
        <time>2017-05-23T16:07:15Z</time>
      </trkpt>
      <trkpt lat="49.33833" lon="1.30028">
        <ele>26</ele>
        <time>2017-05-23T16:07:15Z</time>
      </trkpt>
      <trkpt lat="49.33835" lon="1.30024">
        <ele>26</ele>
        <time>2017-05-23T16:07:15Z</time>
      </trkpt>
      <trkpt lat="49.33842" lon="1.30017">
        <ele>26</ele>
        <time>2017-05-23T16:07:15Z</time>
      </trkpt>
      <trkpt lat="49.33843" lon="1.30015">
        <ele>26</ele>
        <time>2017-05-23T16:07:30Z</time>
      </trkpt>
      <trkpt lat="49.33846" lon="1.30007">
        <ele>26</ele>
        <time>2017-05-23T16:07:30Z</time>
      </trkpt>
      <trkpt lat="49.33849" lon="1.30003">
        <ele>26</ele>
        <time>2017-05-23T16:07:30Z</time>
      </trkpt>
      <trkpt lat="49.33854" lon="1.29997">
        <ele>26</ele>
        <time>2017-05-23T16:07:30Z</time>
      </trkpt>
      <trkpt lat="49.33855" lon="1.29995">
        <ele>26</ele>
        <time>2017-05-23T16:07:46Z</time>
      </trkpt>
      <trkpt lat="49.33861" lon="1.29988">
        <ele>26</ele>
        <time>2017-05-23T16:07:47Z</time>
      </trkpt>
      <trkpt lat="49.33862" lon="1.29985">
        <ele>26</ele>
        <time>2017-05-23T16:07:47Z</time>
      </trkpt>
      <trkpt lat="49.33864" lon="1.29983">
        <ele>26</ele>
        <time>2017-05-23T16:07:47Z</time>
      </trkpt>
      <trkpt lat="49.33865" lon="1.29977">
        <ele>26</ele>
        <time>2017-05-23T16:08:02Z</time>
      </trkpt>
      <trkpt lat="49.33866" lon="1.29972">
        <ele>26</ele>
        <time>2017-05-23T16:08:02Z</time>
      </trkpt>
      <trkpt lat="49.33869" lon="1.29967">
        <ele>26</ele>
        <time>2017-05-23T16:08:02Z</time>
      </trkpt>
      <trkpt lat="49.33873" lon="1.29964">
        <ele>26</ele>
        <time>2017-05-23T16:08:02Z</time>
      </trkpt>
      <trkpt lat="49.33877" lon="1.29961">
        <ele>23</ele>
        <time>2017-05-23T16:08:18Z</time>
      </trkpt>
      <trkpt lat="49.33882" lon="1.29959">
        <ele>23</ele>
        <time>2017-05-23T16:08:19Z</time>
      </trkpt>
      <trkpt lat="49.33885" lon="1.29959">
        <ele>23</ele>
        <time>2017-05-23T16:08:20Z</time>
      </trkpt>
      <trkpt lat="49.33894" lon="1.29958">
        <ele>21</ele>
        <time>2017-05-23T16:08:20Z</time>
      </trkpt>
      <trkpt lat="49.33895" lon="1.29956">
        <ele>21</ele>
        <time>2017-05-23T16:08:34Z</time>
      </trkpt>
      <trkpt lat="49.33897" lon="1.29957">
        <ele>21</ele>
        <time>2017-05-23T16:08:34Z</time>
      </trkpt>
      <trkpt lat="49.33903" lon="1.29954">
        <ele>21</ele>
        <time>2017-05-23T16:08:34Z</time>
      </trkpt>
      <trkpt lat="49.33908" lon="1.29953">
        <ele>21</ele>
        <time>2017-05-23T16:08:34Z</time>
      </trkpt>
      <trkpt lat="49.33912" lon="1.29954">
        <ele>21</ele>
        <time>2017-05-23T16:08:50Z</time>
      </trkpt>
      <trkpt lat="49.33917" lon="1.29958">
        <ele>21</ele>
        <time>2017-05-23T16:08:50Z</time>
      </trkpt>
      <trkpt lat="49.33921" lon="1.29962">
        <ele>23</ele>
        <time>2017-05-23T16:08:50Z</time>
      </trkpt>
      <trkpt lat="49.33922" lon="1.29964">
        <ele>23</ele>
        <time>2017-05-23T16:08:50Z</time>
      </trkpt>
      <trkpt lat="49.33931" lon="1.29978">
        <ele>23</ele>
        <time>2017-05-23T16:09:11Z</time>
      </trkpt>
      <trkpt lat="49.33933" lon="1.29984">
        <ele>23</ele>
        <time>2017-05-23T16:09:11Z</time>
      </trkpt>
      <trkpt lat="49.33934" lon="1.29989">
        <ele>23</ele>
        <time>2017-05-23T16:09:11Z</time>
      </trkpt>
      <trkpt lat="49.33937" lon="1.29995">
        <ele>23</ele>
        <time>2017-05-23T16:09:12Z</time>
      </trkpt>
      <trkpt lat="49.33945" lon="1.30008">
        <ele>23</ele>
        <time>2017-05-23T16:21:43Z</time>
      </trkpt>
      <trkpt lat="49.33945" lon="1.30017">
        <ele>23</ele>
        <time>2017-05-23T16:21:43Z</time>
      </trkpt>
      <trkpt lat="49.33946" lon="1.30026">
        <ele>23</ele>
        <time>2017-05-23T16:21:43Z</time>
      </trkpt>
      <trkpt lat="49.3395" lon="1.30033">
        <ele>23</ele>
        <time>2017-05-23T16:21:43Z</time>
      </trkpt>
      <trkpt lat="49.33952" lon="1.30039">
        <ele>23</ele>
        <time>2017-05-23T16:21:43Z</time>
      </trkpt>
      <trkpt lat="49.33954" lon="1.30044">
        <ele>25</ele>
        <time>2017-05-23T16:21:59Z</time>
      </trkpt>
      <trkpt lat="49.33958" lon="1.30052">
        <ele>25</ele>
        <time>2017-05-23T16:21:59Z</time>
      </trkpt>
      <trkpt lat="49.33959" lon="1.30058">
        <ele>19</ele>
        <time>2017-05-23T16:21:59Z</time>
      </trkpt>
      <trkpt lat="49.33962" lon="1.30065">
        <ele>19</ele>
        <time>2017-05-23T16:21:59Z</time>
      </trkpt>
      <trkpt lat="49.33964" lon="1.30074">
        <ele>19</ele>
        <time>2017-05-23T16:22:14Z</time>
      </trkpt>
      <trkpt lat="49.33965" lon="1.30079">
        <ele>19</ele>
        <time>2017-05-23T16:22:14Z</time>
      </trkpt>
      <trkpt lat="49.33967" lon="1.30085">
        <ele>19</ele>
        <time>2017-05-23T16:22:14Z</time>
      </trkpt>
      <trkpt lat="49.33969" lon="1.30092">
        <ele>19</ele>
        <time>2017-05-23T16:22:14Z</time>
      </trkpt>
      <trkpt lat="49.33973" lon="1.30097">
        <ele>19</ele>
        <time>2017-05-23T16:22:30Z</time>
      </trkpt>
      <trkpt lat="49.33977" lon="1.30105">
        <ele>19</ele>
        <time>2017-05-23T16:22:30Z</time>
      </trkpt>
      <trkpt lat="49.33976" lon="1.30106">
        <ele>19</ele>
        <time>2017-05-23T16:22:30Z</time>
      </trkpt>
      <trkpt lat="49.33979" lon="1.30116">
        <ele>19</ele>
        <time>2017-05-23T16:22:30Z</time>
      </trkpt>
      <trkpt lat="49.33982" lon="1.3012">
        <ele>19</ele>
        <time>2017-05-23T16:22:46Z</time>
      </trkpt>
      <trkpt lat="49.33989" lon="1.30122">
        <ele>19</ele>
        <time>2017-05-23T16:22:46Z</time>
      </trkpt>
      <trkpt lat="49.33997" lon="1.30127">
        <ele>20</ele>
        <time>2017-05-23T16:22:46Z</time>
      </trkpt>
      <trkpt lat="49.33999" lon="1.30132">
        <ele>20</ele>
        <time>2017-05-23T16:22:46Z</time>
      </trkpt>
      <trkpt lat="49.34005" lon="1.30135">
        <ele>20</ele>
        <time>2017-05-23T16:23:02Z</time>
      </trkpt>
      <trkpt lat="49.34012" lon="1.30138">
        <ele>20</ele>
        <time>2017-05-23T16:23:02Z</time>
      </trkpt>
      <trkpt lat="49.34014" lon="1.30138">
        <ele>20</ele>
        <time>2017-05-23T16:23:02Z</time>
      </trkpt>
      <trkpt lat="49.34017" lon="1.30141">
        <ele>20</ele>
        <time>2017-05-23T16:23:02Z</time>
      </trkpt>
      <trkpt lat="49.34017" lon="1.30143">
        <ele>20</ele>
        <time>2017-05-23T16:23:18Z</time>
      </trkpt>
      <trkpt lat="49.34021" lon="1.30146">
        <ele>20</ele>
        <time>2017-05-23T16:23:18Z</time>
      </trkpt>
      <trkpt lat="49.34025" lon="1.30153">
        <ele>20</ele>
        <time>2017-05-23T16:23:18Z</time>
      </trkpt>
      <trkpt lat="49.34027" lon="1.30156">
        <ele>20</ele>
        <time>2017-05-23T16:23:18Z</time>
      </trkpt>
      <trkpt lat="49.34031" lon="1.30158">
        <ele>20</ele>
        <time>2017-05-23T16:23:34Z</time>
      </trkpt>
      <trkpt lat="49.34036" lon="1.30161">
        <ele>20</ele>
        <time>2017-05-23T16:23:34Z</time>
      </trkpt>
      <trkpt lat="49.34041" lon="1.30166">
        <ele>20</ele>
        <time>2017-05-23T16:23:34Z</time>
      </trkpt>
      <trkpt lat="49.34046" lon="1.30169">
        <ele>19</ele>
        <time>2017-05-23T16:23:34Z</time>
      </trkpt>
      <trkpt lat="49.34048" lon="1.30171">
        <ele>19</ele>
        <time>2017-05-23T16:23:50Z</time>
      </trkpt>
      <trkpt lat="49.34056" lon="1.30175">
        <ele>19</ele>
        <time>2017-05-23T16:23:50Z</time>
      </trkpt>
      <trkpt lat="49.3406" lon="1.30177">
        <ele>19</ele>
        <time>2017-05-23T16:23:50Z</time>
      </trkpt>
      <trkpt lat="49.34062" lon="1.30177">
        <ele>19</ele>
        <time>2017-05-23T16:23:50Z</time>
      </trkpt>
      <trkpt lat="49.34068" lon="1.30175">
        <ele>19</ele>
        <time>2017-05-23T16:24:06Z</time>
      </trkpt>
      <trkpt lat="49.34073" lon="1.30174">
        <ele>19</ele>
        <time>2017-05-23T16:24:06Z</time>
      </trkpt>
      <trkpt lat="49.34079" lon="1.30173">
        <ele>19</ele>
        <time>2017-05-23T16:24:06Z</time>
      </trkpt>
      <trkpt lat="49.34085" lon="1.30171">
        <ele>19</ele>
        <time>2017-05-23T16:24:06Z</time>
      </trkpt>
      <trkpt lat="49.34092" lon="1.30171">
        <ele>19</ele>
        <time>2017-05-23T16:24:23Z</time>
      </trkpt>
      <trkpt lat="49.341" lon="1.3017">
        <ele>19</ele>
        <time>2017-05-23T16:24:23Z</time>
      </trkpt>
      <trkpt lat="49.34104" lon="1.30169">
        <ele>19</ele>
        <time>2017-05-23T16:24:23Z</time>
      </trkpt>
      <trkpt lat="49.34112" lon="1.30169">
        <ele>19</ele>
        <time>2017-05-23T16:24:23Z</time>
      </trkpt>
      <trkpt lat="49.34117" lon="1.30169">
        <ele>19</ele>
        <time>2017-05-23T16:24:38Z</time>
      </trkpt>
      <trkpt lat="49.34121" lon="1.30169">
        <ele>19</ele>
        <time>2017-05-23T16:24:38Z</time>
      </trkpt>
      <trkpt lat="49.34125" lon="1.30171">
        <ele>19</ele>
        <time>2017-05-23T16:24:38Z</time>
      </trkpt>
      <trkpt lat="49.3413" lon="1.30174">
        <ele>19</ele>
        <time>2017-05-23T16:24:38Z</time>
      </trkpt>
      <trkpt lat="49.34132" lon="1.30176">
        <ele>19</ele>
        <time>2017-05-23T16:24:55Z</time>
      </trkpt>
      <trkpt lat="49.34139" lon="1.30177">
        <ele>19</ele>
        <time>2017-05-23T16:24:55Z</time>
      </trkpt>
      <trkpt lat="49.34147" lon="1.30175">
        <ele>19</ele>
        <time>2017-05-23T16:24:55Z</time>
      </trkpt>
      <trkpt lat="49.34151" lon="1.30173">
        <ele>19</ele>
        <time>2017-05-23T16:24:55Z</time>
      </trkpt>
      <trkpt lat="49.34158" lon="1.3017">
        <ele>19</ele>
        <time>2017-05-23T16:25:11Z</time>
      </trkpt>
      <trkpt lat="49.34167" lon="1.30173">
        <ele>19</ele>
        <time>2017-05-23T16:25:11Z</time>
      </trkpt>
      <trkpt lat="49.34169" lon="1.3017">
        <ele>19</ele>
        <time>2017-05-23T16:25:11Z</time>
      </trkpt>
      <trkpt lat="49.34173" lon="1.30166">
        <ele>19</ele>
        <time>2017-05-23T16:25:11Z</time>
      </trkpt>
      <trkpt lat="49.34177" lon="1.30161">
        <ele>19</ele>
        <time>2017-05-23T16:25:27Z</time>
      </trkpt>
      <trkpt lat="49.3418" lon="1.30154">
        <ele>19</ele>
        <time>2017-05-23T16:25:27Z</time>
      </trkpt>
      <trkpt lat="49.34182" lon="1.30151">
        <ele>19</ele>
        <time>2017-05-23T16:25:27Z</time>
      </trkpt>
      <trkpt lat="49.34187" lon="1.30151">
        <ele>19</ele>
        <time>2017-05-23T16:25:27Z</time>
      </trkpt>
      <trkpt lat="49.342" lon="1.30134">
        <ele>19</ele>
        <time>2017-05-23T16:25:50Z</time>
      </trkpt>
      <trkpt lat="49.34204" lon="1.3013">
        <ele>19</ele>
        <time>2017-05-23T16:25:50Z</time>
      </trkpt>
      <trkpt lat="49.34208" lon="1.30124">
        <ele>18</ele>
        <time>2017-05-23T16:25:50Z</time>
      </trkpt>
      <trkpt lat="49.34212" lon="1.30117">
        <ele>17</ele>
        <time>2017-05-23T16:25:50Z</time>
      </trkpt>
      <trkpt lat="49.34215" lon="1.3011">
        <ele>17</ele>
        <time>2017-05-23T16:26:07Z</time>
      </trkpt>
      <trkpt lat="49.3422" lon="1.30104">
        <ele>17</ele>
        <time>2017-05-23T16:26:07Z</time>
      </trkpt>
      <trkpt lat="49.34224" lon="1.30097">
        <ele>17</ele>
        <time>2017-05-23T16:26:07Z</time>
      </trkpt>
      <trkpt lat="49.34228" lon="1.30093">
        <ele>17</ele>
        <time>2017-05-23T16:26:07Z</time>
      </trkpt>
      <trkpt lat="49.34232" lon="1.30088">
        <ele>17</ele>
        <time>2017-05-23T16:26:22Z</time>
      </trkpt>
      <trkpt lat="49.34236" lon="1.30082">
        <ele>17</ele>
        <time>2017-05-23T16:26:22Z</time>
      </trkpt>
      <trkpt lat="49.34239" lon="1.30076">
        <ele>17</ele>
        <time>2017-05-23T16:26:22Z</time>
      </trkpt>
      <trkpt lat="49.34241" lon="1.30075">
        <ele>17</ele>
        <time>2017-05-23T16:26:22Z</time>
      </trkpt>
      <trkpt lat="49.34253" lon="1.30056">
        <ele>17</ele>
        <time>2017-05-23T16:26:46Z</time>
      </trkpt>
      <trkpt lat="49.34256" lon="1.30049">
        <ele>17</ele>
        <time>2017-05-23T16:26:46Z</time>
      </trkpt>
      <trkpt lat="49.3426" lon="1.30047">
        <ele>17</ele>
        <time>2017-05-23T16:26:46Z</time>
      </trkpt>
      <trkpt lat="49.34264" lon="1.30049">
        <ele>17</ele>
        <time>2017-05-23T16:26:46Z</time>
      </trkpt>
      <trkpt lat="49.34276" lon="1.30027">
        <ele>16</ele>
        <time>2017-05-23T16:27:18Z</time>
      </trkpt>
      <trkpt lat="49.34281" lon="1.30019">
        <ele>16</ele>
        <time>2017-05-23T16:27:18Z</time>
      </trkpt>
      <trkpt lat="49.34284" lon="1.30016">
        <ele>16</ele>
        <time>2017-05-23T16:27:18Z</time>
      </trkpt>
      <trkpt lat="49.34288" lon="1.30011">
        <ele>16</ele>
        <time>2017-05-23T16:27:18Z</time>
      </trkpt>
      <trkpt lat="49.34291" lon="1.30005">
        <ele>16</ele>
        <time>2017-05-23T16:27:18Z</time>
      </trkpt>
      <trkpt lat="49.34294" lon="1.30001">
        <ele>16</ele>
        <time>2017-05-23T16:27:34Z</time>
      </trkpt>
      <trkpt lat="49.34298" lon="1.2999">
        <ele>16</ele>
        <time>2017-05-23T16:27:34Z</time>
      </trkpt>
      <trkpt lat="49.34302" lon="1.29988">
        <ele>16</ele>
        <time>2017-05-23T16:27:35Z</time>
      </trkpt>
      <trkpt lat="49.34308" lon="1.29982">
        <ele>16</ele>
        <time>2017-05-23T16:27:35Z</time>
      </trkpt>
      <trkpt lat="49.34312" lon="1.29979">
        <ele>16</ele>
        <time>2017-05-23T16:27:50Z</time>
      </trkpt>
      <trkpt lat="49.34315" lon="1.29976">
        <ele>16</ele>
        <time>2017-05-23T16:27:50Z</time>
      </trkpt>
      <trkpt lat="49.34321" lon="1.29971">
        <ele>16</ele>
        <time>2017-05-23T16:27:50Z</time>
      </trkpt>
      <trkpt lat="49.34325" lon="1.29974">
        <ele>16</ele>
        <time>2017-05-23T16:27:50Z</time>
      </trkpt>
      <trkpt lat="49.34328" lon="1.29982">
        <ele>16</ele>
        <time>2017-05-23T16:28:07Z</time>
      </trkpt>
      <trkpt lat="49.34331" lon="1.29985">
        <ele>16</ele>
        <time>2017-05-23T16:28:07Z</time>
      </trkpt>
      <trkpt lat="49.34334" lon="1.29989">
        <ele>16</ele>
        <time>2017-05-23T16:28:07Z</time>
      </trkpt>
      <trkpt lat="49.34338" lon="1.29995">
        <ele>16</ele>
        <time>2017-05-23T16:28:07Z</time>
      </trkpt>
      <trkpt lat="49.34342" lon="1.3">
        <ele>16</ele>
        <time>2017-05-23T16:28:22Z</time>
      </trkpt>
      <trkpt lat="49.34347" lon="1.30008">
        <ele>16</ele>
        <time>2017-05-23T16:28:22Z</time>
      </trkpt>
      <trkpt lat="49.34347" lon="1.30013">
        <ele>16</ele>
        <time>2017-05-23T16:28:22Z</time>
      </trkpt>
      <trkpt lat="49.34351" lon="1.3002">
        <ele>16</ele>
        <time>2017-05-23T16:28:22Z</time>
      </trkpt>
      <trkpt lat="49.34351" lon="1.30023">
        <ele>16</ele>
        <time>2017-05-23T16:28:38Z</time>
      </trkpt>
      <trkpt lat="49.34354" lon="1.30027">
        <ele>16</ele>
        <time>2017-05-23T16:28:38Z</time>
      </trkpt>
      <trkpt lat="49.34359" lon="1.30033">
        <ele>16</ele>
        <time>2017-05-23T16:28:38Z</time>
      </trkpt>
      <trkpt lat="49.3436" lon="1.3004">
        <ele>16</ele>
        <time>2017-05-23T16:28:38Z</time>
      </trkpt>
      <trkpt lat="49.34366" lon="1.30047">
        <ele>17</ele>
        <time>2017-05-23T16:28:54Z</time>
      </trkpt>
      <trkpt lat="49.34369" lon="1.30053">
        <ele>17</ele>
        <time>2017-05-23T16:28:54Z</time>
      </trkpt>
      <trkpt lat="49.34371" lon="1.30057">
        <ele>17</ele>
        <time>2017-05-23T16:28:54Z</time>
      </trkpt>
      <trkpt lat="49.34377" lon="1.30062">
        <ele>16</ele>
        <time>2017-05-23T16:28:54Z</time>
      </trkpt>
      <trkpt lat="49.34381" lon="1.30066">
        <ele>16</ele>
        <time>2017-05-23T16:29:10Z</time>
      </trkpt>
      <trkpt lat="49.34384" lon="1.30071">
        <ele>16</ele>
        <time>2017-05-23T16:29:10Z</time>
      </trkpt>
      <trkpt lat="49.34385" lon="1.30074">
        <ele>16</ele>
        <time>2017-05-23T16:29:10Z</time>
      </trkpt>
      <trkpt lat="49.34388" lon="1.30078">
        <ele>16</ele>
        <time>2017-05-23T16:29:10Z</time>
      </trkpt>
      <trkpt lat="49.34387" lon="1.3009">
        <ele>16</ele>
        <time>2017-05-23T16:29:30Z</time>
      </trkpt>
      <trkpt lat="49.34392" lon="1.30097">
        <ele>16</ele>
        <time>2017-05-23T16:29:30Z</time>
      </trkpt>
      <trkpt lat="49.34395" lon="1.30103">
        <ele>16</ele>
        <time>2017-05-23T16:29:30Z</time>
      </trkpt>
      <trkpt lat="49.34402" lon="1.30107">
        <ele>16</ele>
        <time>2017-05-23T16:29:30Z</time>
      </trkpt>
      <trkpt lat="49.34415" lon="1.3012">
        <ele>16</ele>
        <time>2017-05-23T16:29:50Z</time>
      </trkpt>
      <trkpt lat="49.34423" lon="1.30123">
        <ele>16</ele>
        <time>2017-05-23T16:29:50Z</time>
      </trkpt>
      <trkpt lat="49.34425" lon="1.30128">
        <ele>18</ele>
        <time>2017-05-23T16:29:50Z</time>
      </trkpt>
      <trkpt lat="49.34427" lon="1.30134">
        <ele>18</ele>
        <time>2017-05-23T16:29:50Z</time>
      </trkpt>
      <trkpt lat="49.34427" lon="1.30143">
        <ele>18</ele>
        <time>2017-05-23T16:30:06Z</time>
      </trkpt>
      <trkpt lat="49.34425" lon="1.3015">
        <ele>18</ele>
        <time>2017-05-23T16:30:06Z</time>
      </trkpt>
      <trkpt lat="49.34431" lon="1.30158">
        <ele>18</ele>
        <time>2017-05-23T16:30:06Z</time>
      </trkpt>
      <trkpt lat="49.34435" lon="1.3016">
        <ele>18</ele>
        <time>2017-05-23T16:30:06Z</time>
      </trkpt>
      <trkpt lat="49.34439" lon="1.30164">
        <ele>18</ele>
        <time>2017-05-23T16:30:23Z</time>
      </trkpt>
      <trkpt lat="49.3444" lon="1.30169">
        <ele>18</ele>
        <time>2017-05-23T16:30:23Z</time>
      </trkpt>
      <trkpt lat="49.34443" lon="1.30176">
        <ele>18</ele>
        <time>2017-05-23T16:30:23Z</time>
      </trkpt>
      <trkpt lat="49.34447" lon="1.30184">
        <ele>18</ele>
        <time>2017-05-23T16:30:23Z</time>
      </trkpt>
      <trkpt lat="49.34448" lon="1.30188">
        <ele>18</ele>
        <time>2017-05-23T16:30:38Z</time>
      </trkpt>
      <trkpt lat="49.34454" lon="1.30193">
        <ele>18</ele>
        <time>2017-05-23T16:30:38Z</time>
      </trkpt>
      <trkpt lat="49.34458" lon="1.30196">
        <ele>18</ele>
        <time>2017-05-23T16:30:38Z</time>
      </trkpt>
      <trkpt lat="49.34464" lon="1.30198">
        <ele>16</ele>
        <time>2017-05-23T16:30:38Z</time>
      </trkpt>
      <trkpt lat="49.34462" lon="1.30202">
        <ele>16</ele>
        <time>2017-05-23T16:30:54Z</time>
      </trkpt>
      <trkpt lat="49.34465" lon="1.30209">
        <ele>17</ele>
        <time>2017-05-23T16:30:54Z</time>
      </trkpt>
      <trkpt lat="49.34466" lon="1.30216">
        <ele>17</ele>
        <time>2017-05-23T16:30:54Z</time>
      </trkpt>
      <trkpt lat="49.34468" lon="1.30223">
        <ele>17</ele>
        <time>2017-05-23T16:30:54Z</time>
      </trkpt>
      <trkpt lat="49.3447" lon="1.30228">
        <ele>17</ele>
        <time>2017-05-23T16:31:10Z</time>
      </trkpt>
      <trkpt lat="49.34471" lon="1.30231">
        <ele>17</ele>
        <time>2017-05-23T16:31:10Z</time>
      </trkpt>
      <trkpt lat="49.34477" lon="1.30241">
        <ele>17</ele>
        <time>2017-05-23T16:31:10Z</time>
      </trkpt>
      <trkpt lat="49.34479" lon="1.30247">
        <ele>17</ele>
        <time>2017-05-23T16:31:10Z</time>
      </trkpt>
      <trkpt lat="49.34483" lon="1.30252">
        <ele>17</ele>
        <time>2017-05-23T16:31:27Z</time>
      </trkpt>
      <trkpt lat="49.34486" lon="1.30257">
        <ele>17</ele>
        <time>2017-05-23T16:31:27Z</time>
      </trkpt>
      <trkpt lat="49.34489" lon="1.30263">
        <ele>17</ele>
        <time>2017-05-23T16:31:27Z</time>
      </trkpt>
      <trkpt lat="49.34492" lon="1.30268">
        <ele>17</ele>
        <time>2017-05-23T16:31:27Z</time>
      </trkpt>
      <trkpt lat="49.34496" lon="1.30273">
        <ele>17</ele>
        <time>2017-05-23T16:31:43Z</time>
      </trkpt>
      <trkpt lat="49.34499" lon="1.30279">
        <ele>17</ele>
        <time>2017-05-23T16:31:43Z</time>
      </trkpt>
      <trkpt lat="49.34501" lon="1.30285">
        <ele>17</ele>
        <time>2017-05-23T16:31:43Z</time>
      </trkpt>
      <trkpt lat="49.34506" lon="1.30291">
        <ele>17</ele>
        <time>2017-05-23T16:31:43Z</time>
      </trkpt>
      <trkpt lat="49.34508" lon="1.30297">
        <ele>17</ele>
        <time>2017-05-23T16:31:58Z</time>
      </trkpt>
      <trkpt lat="49.3451" lon="1.30301">
        <ele>17</ele>
        <time>2017-05-23T16:31:58Z</time>
      </trkpt>
      <trkpt lat="49.34514" lon="1.30307">
        <ele>17</ele>
        <time>2017-05-23T16:31:58Z</time>
      </trkpt>
      <trkpt lat="49.34517" lon="1.30312">
        <ele>17</ele>
        <time>2017-05-23T16:31:58Z</time>
      </trkpt>
      <trkpt lat="49.3452" lon="1.30317">
        <ele>17</ele>
        <time>2017-05-23T16:32:15Z</time>
      </trkpt>
      <trkpt lat="49.34524" lon="1.30322">
        <ele>17</ele>
        <time>2017-05-23T16:32:15Z</time>
      </trkpt>
      <trkpt lat="49.34525" lon="1.30327">
        <ele>17</ele>
        <time>2017-05-23T16:32:15Z</time>
      </trkpt>
      <trkpt lat="49.34529" lon="1.30334">
        <ele>17</ele>
        <time>2017-05-23T16:32:15Z</time>
      </trkpt>
      <trkpt lat="49.34532" lon="1.3034">
        <ele>17</ele>
        <time>2017-05-23T16:32:31Z</time>
      </trkpt>
      <trkpt lat="49.34537" lon="1.30347">
        <ele>17</ele>
        <time>2017-05-23T16:32:31Z</time>
      </trkpt>
      <trkpt lat="49.3454" lon="1.30353">
        <ele>17</ele>
        <time>2017-05-23T16:32:31Z</time>
      </trkpt>
      <trkpt lat="49.34543" lon="1.30359">
        <ele>16</ele>
        <time>2017-05-23T16:32:31Z</time>
      </trkpt>
      <trkpt lat="49.34547" lon="1.30364">
        <ele>16</ele>
        <time>2017-05-23T16:32:46Z</time>
      </trkpt>
      <trkpt lat="49.34549" lon="1.30369">
        <ele>16</ele>
        <time>2017-05-23T16:32:46Z</time>
      </trkpt>
      <trkpt lat="49.34552" lon="1.30375">
        <ele>16</ele>
        <time>2017-05-23T16:32:46Z</time>
      </trkpt>
      <trkpt lat="49.34557" lon="1.30382">
        <ele>17</ele>
        <time>2017-05-23T16:32:46Z</time>
      </trkpt>
      <trkpt lat="49.3456" lon="1.30387">
        <ele>17</ele>
        <time>2017-05-23T16:33:03Z</time>
      </trkpt>
      <trkpt lat="49.34563" lon="1.30392">
        <ele>17</ele>
        <time>2017-05-23T16:33:03Z</time>
      </trkpt>
      <trkpt lat="49.34566" lon="1.30399">
        <ele>17</ele>
        <time>2017-05-23T16:33:03Z</time>
      </trkpt>
      <trkpt lat="49.3457" lon="1.30405">
        <ele>17</ele>
        <time>2017-05-23T16:33:03Z</time>
      </trkpt>
      <trkpt lat="49.34577" lon="1.30417">
        <ele>17</ele>
        <time>2017-05-23T16:33:22Z</time>
      </trkpt>
      <trkpt lat="49.34581" lon="1.30424">
        <ele>17</ele>
        <time>2017-05-23T16:33:22Z</time>
      </trkpt>
      <trkpt lat="49.34584" lon="1.3043">
        <ele>17</ele>
        <time>2017-05-23T16:33:22Z</time>
      </trkpt>
      <trkpt lat="49.34587" lon="1.30437">
        <ele>17</ele>
        <time>2017-05-23T16:33:22Z</time>
      </trkpt>
      <trkpt lat="49.3459" lon="1.30443">
        <ele>17</ele>
        <time>2017-05-23T16:33:38Z</time>
      </trkpt>
      <trkpt lat="49.34593" lon="1.30449">
        <ele>17</ele>
        <time>2017-05-23T16:33:38Z</time>
      </trkpt>
      <trkpt lat="49.34594" lon="1.30453">
        <ele>17</ele>
        <time>2017-05-23T16:33:38Z</time>
      </trkpt>
      <trkpt lat="49.34598" lon="1.3046">
        <ele>17</ele>
        <time>2017-05-23T16:33:38Z</time>
      </trkpt>
      <trkpt lat="49.34601" lon="1.30463">
        <ele>17</ele>
        <time>2017-05-23T16:33:54Z</time>
      </trkpt>
      <trkpt lat="49.34605" lon="1.3047">
        <ele>17</ele>
        <time>2017-05-23T16:33:54Z</time>
      </trkpt>
      <trkpt lat="49.34608" lon="1.30475">
        <ele>17</ele>
        <time>2017-05-23T16:33:54Z</time>
      </trkpt>
      <trkpt lat="49.34612" lon="1.30481">
        <ele>17</ele>
        <time>2017-05-23T16:33:54Z</time>
      </trkpt>
      <trkpt lat="49.34615" lon="1.30487">
        <ele>17</ele>
        <time>2017-05-23T16:34:10Z</time>
      </trkpt>
      <trkpt lat="49.34619" lon="1.30493">
        <ele>17</ele>
        <time>2017-05-23T16:34:10Z</time>
      </trkpt>
      <trkpt lat="49.34622" lon="1.30498">
        <ele>17</ele>
        <time>2017-05-23T16:34:10Z</time>
      </trkpt>
      <trkpt lat="49.34625" lon="1.30505">
        <ele>17</ele>
        <time>2017-05-23T16:34:10Z</time>
      </trkpt>
      <trkpt lat="49.34628" lon="1.30509">
        <ele>17</ele>
        <time>2017-05-23T16:34:26Z</time>
      </trkpt>
      <trkpt lat="49.34633" lon="1.30518">
        <ele>17</ele>
        <time>2017-05-23T16:34:26Z</time>
      </trkpt>
      <trkpt lat="49.34635" lon="1.30521">
        <ele>17</ele>
        <time>2017-05-23T16:34:26Z</time>
      </trkpt>
      <trkpt lat="49.34639" lon="1.3053">
        <ele>17</ele>
        <time>2017-05-23T16:34:26Z</time>
      </trkpt>
      <trkpt lat="49.34642" lon="1.30534">
        <ele>17</ele>
        <time>2017-05-23T16:34:42Z</time>
      </trkpt>
      <trkpt lat="49.34647" lon="1.30542">
        <ele>17</ele>
        <time>2017-05-23T16:34:42Z</time>
      </trkpt>
      <trkpt lat="49.34649" lon="1.30545">
        <ele>17</ele>
        <time>2017-05-23T16:34:42Z</time>
      </trkpt>
      <trkpt lat="49.34653" lon="1.30553">
        <ele>17</ele>
        <time>2017-05-23T16:34:42Z</time>
      </trkpt>
      <trkpt lat="49.34657" lon="1.30559">
        <ele>17</ele>
        <time>2017-05-23T16:34:58Z</time>
      </trkpt>
      <trkpt lat="49.34661" lon="1.30565">
        <ele>17</ele>
        <time>2017-05-23T16:34:58Z</time>
      </trkpt>
      <trkpt lat="49.34664" lon="1.3057">
        <ele>17</ele>
        <time>2017-05-23T16:34:58Z</time>
      </trkpt>
      <trkpt lat="49.34667" lon="1.30574">
        <ele>17</ele>
        <time>2017-05-23T16:34:58Z</time>
      </trkpt>
      <trkpt lat="49.3467" lon="1.3058">
        <ele>17</ele>
        <time>2017-05-23T16:35:14Z</time>
      </trkpt>
      <trkpt lat="49.34674" lon="1.30586">
        <ele>17</ele>
        <time>2017-05-23T16:35:14Z</time>
      </trkpt>
      <trkpt lat="49.34677" lon="1.30591">
        <ele>17</ele>
        <time>2017-05-23T16:35:14Z</time>
      </trkpt>
      <trkpt lat="49.3468" lon="1.30597">
        <ele>17</ele>
        <time>2017-05-23T16:35:14Z</time>
      </trkpt>
      <trkpt lat="49.34687" lon="1.30609">
        <ele>17</ele>
        <time>2017-05-23T16:35:35Z</time>
      </trkpt>
      <trkpt lat="49.3469" lon="1.30615">
        <ele>17</ele>
        <time>2017-05-23T16:35:35Z</time>
      </trkpt>
      <trkpt lat="49.34693" lon="1.3062">
        <ele>17</ele>
        <time>2017-05-23T16:35:35Z</time>
      </trkpt>
      <trkpt lat="49.34698" lon="1.30629">
        <ele>17</ele>
        <time>2017-05-23T16:35:35Z</time>
      </trkpt>
      <trkpt lat="49.34701" lon="1.30634">
        <ele>17</ele>
        <time>2017-05-23T16:35:51Z</time>
      </trkpt>
      <trkpt lat="49.34703" lon="1.30639">
        <ele>17</ele>
        <time>2017-05-23T16:35:51Z</time>
      </trkpt>
      <trkpt lat="49.34708" lon="1.30645">
        <ele>17</ele>
        <time>2017-05-23T16:35:51Z</time>
      </trkpt>
      <trkpt lat="49.34712" lon="1.30652">
        <ele>17</ele>
        <time>2017-05-23T16:35:51Z</time>
      </trkpt>
      <trkpt lat="49.34715" lon="1.30657">
        <ele>17</ele>
        <time>2017-05-23T16:36:07Z</time>
      </trkpt>
      <trkpt lat="49.34718" lon="1.30664">
        <ele>17</ele>
        <time>2017-05-23T16:36:07Z</time>
      </trkpt>
      <trkpt lat="49.34722" lon="1.30671">
        <ele>17</ele>
        <time>2017-05-23T16:36:07Z</time>
      </trkpt>
      <trkpt lat="49.34726" lon="1.30676">
        <ele>17</ele>
        <time>2017-05-23T16:36:07Z</time>
      </trkpt>
      <trkpt lat="49.34728" lon="1.30682">
        <ele>17</ele>
        <time>2017-05-23T16:36:22Z</time>
      </trkpt>
      <trkpt lat="49.34732" lon="1.30687">
        <ele>17</ele>
        <time>2017-05-23T16:36:22Z</time>
      </trkpt>
      <trkpt lat="49.34734" lon="1.30693">
        <ele>17</ele>
        <time>2017-05-23T16:36:22Z</time>
      </trkpt>
      <trkpt lat="49.34738" lon="1.30697">
        <ele>17</ele>
        <time>2017-05-23T16:36:22Z</time>
      </trkpt>
      <trkpt lat="49.34745" lon="1.30702">
        <ele>17</ele>
        <time>2017-05-23T16:36:38Z</time>
      </trkpt>
      <trkpt lat="49.34746" lon="1.30707">
        <ele>17</ele>
        <time>2017-05-23T16:36:38Z</time>
      </trkpt>
      <trkpt lat="49.34748" lon="1.30714">
        <ele>19</ele>
        <time>2017-05-23T16:36:38Z</time>
      </trkpt>
      <trkpt lat="49.34749" lon="1.30719">
        <ele>19</ele>
        <time>2017-05-23T16:36:38Z</time>
      </trkpt>
      <trkpt lat="49.34752" lon="1.30727">
        <ele>19</ele>
        <time>2017-05-23T16:36:54Z</time>
      </trkpt>
      <trkpt lat="49.34755" lon="1.30733">
        <ele>19</ele>
        <time>2017-05-23T16:36:54Z</time>
      </trkpt>
      <trkpt lat="49.34759" lon="1.30738">
        <ele>19</ele>
        <time>2017-05-23T16:36:54Z</time>
      </trkpt>
      <trkpt lat="49.34762" lon="1.30745">
        <ele>19</ele>
        <time>2017-05-23T16:36:54Z</time>
      </trkpt>
      <trkpt lat="49.34764" lon="1.30749">
        <ele>19</ele>
        <time>2017-05-23T16:37:12Z</time>
      </trkpt>
      <trkpt lat="49.34769" lon="1.30755">
        <ele>19</ele>
        <time>2017-05-23T16:37:12Z</time>
      </trkpt>
      <trkpt lat="49.34774" lon="1.30761">
        <ele>19</ele>
        <time>2017-05-23T16:37:12Z</time>
      </trkpt>
      <trkpt lat="49.34777" lon="1.30766">
        <ele>19</ele>
        <time>2017-05-23T16:37:12Z</time>
      </trkpt>
      <trkpt lat="49.34782" lon="1.30777">
        <ele>19</ele>
        <time>2017-05-23T16:37:30Z</time>
      </trkpt>
      <trkpt lat="49.34789" lon="1.30785">
        <ele>19</ele>
        <time>2017-05-23T16:37:30Z</time>
      </trkpt>
      <trkpt lat="49.34793" lon="1.30791">
        <ele>22</ele>
        <time>2017-05-23T16:37:30Z</time>
      </trkpt>
      <trkpt lat="49.34795" lon="1.30796">
        <ele>19</ele>
        <time>2017-05-23T16:37:30Z</time>
      </trkpt>
      <trkpt lat="49.34798" lon="1.30801">
        <ele>19</ele>
        <time>2017-05-23T16:37:47Z</time>
      </trkpt>
      <trkpt lat="49.34803" lon="1.30808">
        <ele>19</ele>
        <time>2017-05-23T16:37:47Z</time>
      </trkpt>
      <trkpt lat="49.34808" lon="1.30811">
        <ele>19</ele>
        <time>2017-05-23T16:37:47Z</time>
      </trkpt>
      <trkpt lat="49.34814" lon="1.30813">
        <ele>19</ele>
        <time>2017-05-23T16:37:47Z</time>
      </trkpt>
      <trkpt lat="49.34824" lon="1.30811">
        <ele>19</ele>
        <time>2017-05-23T16:38:06Z</time>
      </trkpt>
      <trkpt lat="49.34828" lon="1.30809">
        <ele>19</ele>
        <time>2017-05-23T16:38:06Z</time>
      </trkpt>
      <trkpt lat="49.34833" lon="1.30805">
        <ele>19</ele>
        <time>2017-05-23T16:38:06Z</time>
      </trkpt>
      <trkpt lat="49.34838" lon="1.308">
        <ele>19</ele>
        <time>2017-05-23T16:38:06Z</time>
      </trkpt>
      <trkpt lat="49.34841" lon="1.30797">
        <ele>19</ele>
        <time>2017-05-23T16:38:22Z</time>
      </trkpt>
      <trkpt lat="49.34847" lon="1.30795">
        <ele>19</ele>
        <time>2017-05-23T16:38:22Z</time>
      </trkpt>
      <trkpt lat="49.34849" lon="1.30792">
        <ele>19</ele>
        <time>2017-05-23T16:38:22Z</time>
      </trkpt>
      <trkpt lat="49.34854" lon="1.30788">
        <ele>22</ele>
        <time>2017-05-23T16:38:22Z</time>
      </trkpt>
      <trkpt lat="49.34856" lon="1.30785">
        <ele>22</ele>
        <time>2017-05-23T16:38:39Z</time>
      </trkpt>
      <trkpt lat="49.34862" lon="1.30779">
        <ele>22</ele>
        <time>2017-05-23T16:38:39Z</time>
      </trkpt>
      <trkpt lat="49.34865" lon="1.30777">
        <ele>22</ele>
        <time>2017-05-23T16:38:39Z</time>
      </trkpt>
      <trkpt lat="49.34871" lon="1.30776">
        <ele>22</ele>
        <time>2017-05-23T16:38:39Z</time>
      </trkpt>
      <trkpt lat="49.34874" lon="1.30772">
        <ele>22</ele>
        <time>2017-05-23T16:38:54Z</time>
      </trkpt>
      <trkpt lat="49.34881" lon="1.30763">
        <ele>25</ele>
        <time>2017-05-23T16:38:54Z</time>
      </trkpt>
      <trkpt lat="49.34886" lon="1.30758">
        <ele>25</ele>
        <time>2017-05-23T16:38:54Z</time>
      </trkpt>
      <trkpt lat="49.3489" lon="1.30753">
        <ele>25</ele>
        <time>2017-05-23T16:38:54Z</time>
      </trkpt>
      <trkpt lat="49.34895" lon="1.30752">
        <ele>25</ele>
        <time>2017-05-23T16:39:22Z</time>
      </trkpt>
      <trkpt lat="49.349" lon="1.30752">
        <ele>25</ele>
        <time>2017-05-23T16:39:22Z</time>
      </trkpt>
      <trkpt lat="49.34906" lon="1.30748">
        <ele>25</ele>
        <time>2017-05-23T16:39:22Z</time>
      </trkpt>
      <trkpt lat="49.34908" lon="1.30746">
        <ele>25</ele>
        <time>2017-05-23T16:39:22Z</time>
      </trkpt>
      <trkpt lat="49.34908" lon="1.30748">
        <ele>25</ele>
        <time>2017-05-23T16:39:22Z</time>
      </trkpt>
      <trkpt lat="49.34907" lon="1.30747">
        <ele>25</ele>
        <time>2017-05-23T16:39:38Z</time>
      </trkpt>
      <trkpt lat="49.34906" lon="1.30747">
        <ele>25</ele>
        <time>2017-05-23T16:39:38Z</time>
      </trkpt>
      <trkpt lat="49.3491" lon="1.30745">
        <ele>25</ele>
        <time>2017-05-23T16:39:38Z</time>
      </trkpt>
      <trkpt lat="49.3492" lon="1.30742">
        <ele>25</ele>
        <time>2017-05-23T16:39:38Z</time>
      </trkpt>
      <trkpt lat="49.34932" lon="1.30732">
        <ele>25</ele>
        <time>2017-05-23T16:41:02Z</time>
      </trkpt>
      <trkpt lat="49.34932" lon="1.30732">
        <ele>25</ele>
        <time>2017-05-23T16:41:02Z</time>
      </trkpt>
      <trkpt lat="49.34934" lon="1.30732">
        <ele>25</ele>
        <time>2017-05-23T16:41:02Z</time>
      </trkpt>
      <trkpt lat="49.34937" lon="1.30732">
        <ele>25</ele>
        <time>2017-05-23T16:41:02Z</time>
      </trkpt>
      <trkpt lat="49.34939" lon="1.30732">
        <ele>25</ele>
        <time>2017-05-23T16:41:02Z</time>
      </trkpt>
      <trkpt lat="49.34937" lon="1.3073">
        <ele>25</ele>
        <time>2017-05-23T16:42:30Z</time>
      </trkpt>
      <trkpt lat="49.34941" lon="1.30727">
        <ele>25</ele>
        <time>2017-05-23T16:42:30Z</time>
      </trkpt>
      <trkpt lat="49.34946" lon="1.30725">
        <ele>25</ele>
        <time>2017-05-23T16:42:30Z</time>
      </trkpt>
      <trkpt lat="49.34951" lon="1.3072">
        <ele>25</ele>
        <time>2017-05-23T16:42:30Z</time>
      </trkpt>
      <trkpt lat="49.34954" lon="1.30717">
        <ele>25</ele>
        <time>2017-05-23T16:42:30Z</time>
      </trkpt>
      <trkpt lat="49.3496" lon="1.30712">
        <ele>39</ele>
        <time>2017-05-23T16:42:46Z</time>
      </trkpt>
      <trkpt lat="49.34963" lon="1.30713">
        <ele>39</ele>
        <time>2017-05-23T16:42:46Z</time>
      </trkpt>
      <trkpt lat="49.34971" lon="1.30709">
        <ele>39</ele>
        <time>2017-05-23T16:42:46Z</time>
      </trkpt>
      <trkpt lat="49.34973" lon="1.30708">
        <ele>48</ele>
        <time>2017-05-23T16:42:46Z</time>
      </trkpt>
      <trkpt lat="49.34978" lon="1.30709">
        <ele>39</ele>
        <time>2017-05-23T16:43:06Z</time>
      </trkpt>
      <trkpt lat="49.34982" lon="1.30712">
        <ele>39</ele>
        <time>2017-05-23T16:43:07Z</time>
      </trkpt>
      <trkpt lat="49.34984" lon="1.30713">
        <ele>39</ele>
        <time>2017-05-23T16:43:07Z</time>
      </trkpt>
      <trkpt lat="49.34986" lon="1.30713">
        <ele>39</ele>
        <time>2017-05-23T16:43:07Z</time>
      </trkpt>
      <trkpt lat="49.3499" lon="1.30718">
        <ele>39</ele>
        <time>2017-05-23T16:43:07Z</time>
      </trkpt>
      <trkpt lat="49.34992" lon="1.30721">
        <ele>39</ele>
        <time>2017-05-23T16:43:30Z</time>
      </trkpt>
      <trkpt lat="49.34994" lon="1.3072">
        <ele>39</ele>
        <time>2017-05-23T16:43:30Z</time>
      </trkpt>
      <trkpt lat="49.34996" lon="1.30721">
        <ele>39</ele>
        <time>2017-05-23T16:43:30Z</time>
      </trkpt>
      <trkpt lat="49.34994" lon="1.30729">
        <ele>39</ele>
        <time>2017-05-23T16:43:30Z</time>
      </trkpt>
      <trkpt lat="49.35" lon="1.30734">
        <ele>39</ele>
        <time>2017-05-23T16:43:30Z</time>
      </trkpt>
      <trkpt lat="49.35003" lon="1.30738">
        <ele>39</ele>
        <time>2017-05-23T16:43:47Z</time>
      </trkpt>
      <trkpt lat="49.35005" lon="1.3074">
        <ele>39</ele>
        <time>2017-05-23T16:43:47Z</time>
      </trkpt>
      <trkpt lat="49.35011" lon="1.30744">
        <ele>39</ele>
        <time>2017-05-23T16:43:47Z</time>
      </trkpt>
      <trkpt lat="49.35013" lon="1.3075">
        <ele>39</ele>
        <time>2017-05-23T16:43:47Z</time>
      </trkpt>
      <trkpt lat="49.3502" lon="1.30774">
        <ele>39</ele>
        <time>2017-05-23T16:44:18Z</time>
      </trkpt>
      <trkpt lat="49.35025" lon="1.30783">
        <ele>39</ele>
        <time>2017-05-23T16:44:19Z</time>
      </trkpt>
      <trkpt lat="49.35028" lon="1.30791">
        <ele>39</ele>
        <time>2017-05-23T16:44:19Z</time>
      </trkpt>
      <trkpt lat="49.35037" lon="1.30795">
        <ele>32</ele>
        <time>2017-05-23T16:44:19Z</time>
      </trkpt>
      <trkpt lat="49.35036" lon="1.30808">
        <ele>32</ele>
        <time>2017-05-23T16:44:19Z</time>
      </trkpt>
      <trkpt lat="49.35043" lon="1.30819">
        <ele>55</ele>
        <time>2017-05-23T16:44:46Z</time>
      </trkpt>
      <trkpt lat="49.35046" lon="1.30824">
        <ele>55</ele>
        <time>2017-05-23T16:44:46Z</time>
      </trkpt>
      <trkpt lat="49.3505" lon="1.30827">
        <ele>55</ele>
        <time>2017-05-23T16:44:47Z</time>
      </trkpt>
      <trkpt lat="49.3505" lon="1.30831">
        <ele>55</ele>
        <time>2017-05-23T16:44:47Z</time>
      </trkpt>
      <trkpt lat="49.35053" lon="1.30833">
        <ele>55</ele>
        <time>2017-05-23T16:44:48Z</time>
      </trkpt>
      <trkpt lat="49.35068" lon="1.30866">
        <ele>55</ele>
        <time>2017-05-23T16:45:14Z</time>
      </trkpt>
      <trkpt lat="49.35072" lon="1.30867">
        <ele>55</ele>
        <time>2017-05-23T16:45:14Z</time>
      </trkpt>
      <trkpt lat="49.35075" lon="1.3088">
        <ele>48</ele>
        <time>2017-05-23T16:45:14Z</time>
      </trkpt>
      <trkpt lat="49.35073" lon="1.30883">
        <ele>48</ele>
        <time>2017-05-23T16:45:14Z</time>
      </trkpt>
      <trkpt lat="49.35069" lon="1.3087">
        <ele>55</ele>
        <time>2017-05-23T16:45:30Z</time>
      </trkpt>
      <trkpt lat="49.35078" lon="1.30884">
        <ele>48</ele>
        <time>2017-05-23T16:45:30Z</time>
      </trkpt>
      <trkpt lat="49.35077" lon="1.30886">
        <ele>48</ele>
        <time>2017-05-23T16:45:30Z</time>
      </trkpt>
      <trkpt lat="49.35081" lon="1.30899">
        <ele>48</ele>
        <time>2017-05-23T16:45:30Z</time>
      </trkpt>
      <trkpt lat="49.3508" lon="1.30906">
        <ele>48</ele>
        <time>2017-05-23T16:45:47Z</time>
      </trkpt>
      <trkpt lat="49.35078" lon="1.30909">
        <ele>48</ele>
        <time>2017-05-23T16:45:47Z</time>
      </trkpt>
      <trkpt lat="49.35081" lon="1.3092">
        <ele>48</ele>
        <time>2017-05-23T16:45:47Z</time>
      </trkpt>
      <trkpt lat="49.35091" lon="1.30926">
        <ele>48</ele>
        <time>2017-05-23T16:45:47Z</time>
      </trkpt>
      <trkpt lat="49.35081" lon="1.30934">
        <ele>48</ele>
        <time>2017-05-23T16:46:02Z</time>
      </trkpt>
      <trkpt lat="49.35087" lon="1.3095">
        <ele>48</ele>
        <time>2017-05-23T16:46:02Z</time>
      </trkpt>
      <trkpt lat="49.35084" lon="1.30957">
        <ele>48</ele>
        <time>2017-05-23T16:46:02Z</time>
      </trkpt>
      <trkpt lat="49.35083" lon="1.30961">
        <ele>51</ele>
        <time>2017-05-23T16:46:02Z</time>
      </trkpt>
      <trkpt lat="49.35082" lon="1.30983">
        <ele>51</ele>
        <time>2017-05-23T16:46:26Z</time>
      </trkpt>
      <trkpt lat="49.35082" lon="1.30988">
        <ele>51</ele>
        <time>2017-05-23T16:46:26Z</time>
      </trkpt>
      <trkpt lat="49.35081" lon="1.30996">
        <ele>51</ele>
        <time>2017-05-23T16:46:26Z</time>
      </trkpt>
      <trkpt lat="49.35085" lon="1.31007">
        <ele>51</ele>
        <time>2017-05-23T16:46:26Z</time>
      </trkpt>
      <trkpt lat="49.35084" lon="1.31014">
        <ele>51</ele>
        <time>2017-05-23T16:46:42Z</time>
      </trkpt>
      <trkpt lat="49.35084" lon="1.31021">
        <ele>51</ele>
        <time>2017-05-23T16:46:42Z</time>
      </trkpt>
      <trkpt lat="49.35086" lon="1.31031">
        <ele>51</ele>
        <time>2017-05-23T16:46:42Z</time>
      </trkpt>
      <trkpt lat="49.35089" lon="1.31037">
        <ele>51</ele>
        <time>2017-05-23T16:46:42Z</time>
      </trkpt>
      <trkpt lat="49.35089" lon="1.31044">
        <ele>52</ele>
        <time>2017-05-23T16:46:58Z</time>
      </trkpt>
      <trkpt lat="49.35087" lon="1.31053">
        <ele>52</ele>
        <time>2017-05-23T16:46:58Z</time>
      </trkpt>
      <trkpt lat="49.35087" lon="1.31066">
        <ele>52</ele>
        <time>2017-05-23T16:46:58Z</time>
      </trkpt>
      <trkpt lat="49.35088" lon="1.3107">
        <ele>52</ele>
        <time>2017-05-23T16:46:58Z</time>
      </trkpt>
      <trkpt lat="49.35089" lon="1.31074">
        <ele>52</ele>
        <time>2017-05-23T16:47:14Z</time>
      </trkpt>
      <trkpt lat="49.35089" lon="1.31085">
        <ele>52</ele>
        <time>2017-05-23T16:47:14Z</time>
      </trkpt>
      <trkpt lat="49.35094" lon="1.31089">
        <ele>52</ele>
        <time>2017-05-23T16:47:14Z</time>
      </trkpt>
      <trkpt lat="49.35086" lon="1.31097">
        <ele>52</ele>
        <time>2017-05-23T16:47:14Z</time>
      </trkpt>
      <trkpt lat="49.35095" lon="1.31105">
        <ele>52</ele>
        <time>2017-05-23T16:47:30Z</time>
      </trkpt>
      <trkpt lat="49.35098" lon="1.3111">
        <ele>52</ele>
        <time>2017-05-23T16:47:30Z</time>
      </trkpt>
      <trkpt lat="49.3509" lon="1.3112">
        <ele>52</ele>
        <time>2017-05-23T16:47:30Z</time>
      </trkpt>
      <trkpt lat="49.35097" lon="1.31122">
        <ele>52</ele>
        <time>2017-05-23T16:47:30Z</time>
      </trkpt>
      <trkpt lat="49.35107" lon="1.31136">
        <ele>50</ele>
        <time>2017-05-23T16:47:46Z</time>
      </trkpt>
      <trkpt lat="49.35104" lon="1.31142">
        <ele>50</ele>
        <time>2017-05-23T16:47:46Z</time>
      </trkpt>
      <trkpt lat="49.35103" lon="1.31149">
        <ele>50</ele>
        <time>2017-05-23T16:47:46Z</time>
      </trkpt>
      <trkpt lat="49.35102" lon="1.31154">
        <ele>50</ele>
        <time>2017-05-23T16:47:46Z</time>
      </trkpt>
      <trkpt lat="49.35101" lon="1.31164">
        <ele>50</ele>
        <time>2017-05-23T16:48:02Z</time>
      </trkpt>
      <trkpt lat="49.35099" lon="1.31175">
        <ele>50</ele>
        <time>2017-05-23T16:48:02Z</time>
      </trkpt>
      <trkpt lat="49.35097" lon="1.31182">
        <ele>50</ele>
        <time>2017-05-23T16:48:02Z</time>
      </trkpt>
      <trkpt lat="49.35099" lon="1.31186">
        <ele>50</ele>
        <time>2017-05-23T16:48:02Z</time>
      </trkpt>
      <trkpt lat="49.3511" lon="1.31191">
        <ele>50</ele>
        <time>2017-05-23T16:48:18Z</time>
      </trkpt>
      <trkpt lat="49.351" lon="1.31198">
        <ele>50</ele>
        <time>2017-05-23T16:48:18Z</time>
      </trkpt>
      <trkpt lat="49.35103" lon="1.31205">
        <ele>50</ele>
        <time>2017-05-23T16:48:18Z</time>
      </trkpt>
      <trkpt lat="49.35109" lon="1.31211">
        <ele>47</ele>
        <time>2017-05-23T16:48:18Z</time>
      </trkpt>
      <trkpt lat="49.35112" lon="1.3122">
        <ele>47</ele>
        <time>2017-05-23T16:48:34Z</time>
      </trkpt>
      <trkpt lat="49.35112" lon="1.31223">
        <ele>47</ele>
        <time>2017-05-23T16:48:34Z</time>
      </trkpt>
      <trkpt lat="49.35118" lon="1.31229">
        <ele>47</ele>
        <time>2017-05-23T16:48:34Z</time>
      </trkpt>
      <trkpt lat="49.35119" lon="1.31237">
        <ele>47</ele>
        <time>2017-05-23T16:48:34Z</time>
      </trkpt>
      <trkpt lat="49.35123" lon="1.31243">
        <ele>47</ele>
        <time>2017-05-23T16:48:50Z</time>
      </trkpt>
      <trkpt lat="49.35125" lon="1.31254">
        <ele>74</ele>
        <time>2017-05-23T16:48:50Z</time>
      </trkpt>
      <trkpt lat="49.35126" lon="1.3126">
        <ele>74</ele>
        <time>2017-05-23T16:48:50Z</time>
      </trkpt>
      <trkpt lat="49.35124" lon="1.31264">
        <ele>47</ele>
        <time>2017-05-23T16:48:50Z</time>
      </trkpt>
      <trkpt lat="49.35125" lon="1.31273">
        <ele>47</ele>
        <time>2017-05-23T16:49:06Z</time>
      </trkpt>
      <trkpt lat="49.35131" lon="1.31282">
        <ele>74</ele>
        <time>2017-05-23T16:49:06Z</time>
      </trkpt>
      <trkpt lat="49.35136" lon="1.31289">
        <ele>74</ele>
        <time>2017-05-23T16:49:06Z</time>
      </trkpt>
      <trkpt lat="49.35144" lon="1.31287">
        <ele>74</ele>
        <time>2017-05-23T16:49:06Z</time>
      </trkpt>
      <trkpt lat="49.3514" lon="1.31307">
        <ele>70</ele>
        <time>2017-05-23T16:49:22Z</time>
      </trkpt>
      <trkpt lat="49.35142" lon="1.31315">
        <ele>70</ele>
        <time>2017-05-23T16:49:22Z</time>
      </trkpt>
      <trkpt lat="49.3514" lon="1.31318">
        <ele>70</ele>
        <time>2017-05-23T16:49:22Z</time>
      </trkpt>
      <trkpt lat="49.35146" lon="1.31331">
        <ele>70</ele>
        <time>2017-05-23T16:49:22Z</time>
      </trkpt>
      <trkpt lat="49.35158" lon="1.31356">
        <ele>70</ele>
        <time>2017-05-23T16:49:55Z</time>
      </trkpt>
      <trkpt lat="49.35157" lon="1.31358">
        <ele>70</ele>
        <time>2017-05-23T16:49:55Z</time>
      </trkpt>
      <trkpt lat="49.35164" lon="1.31366">
        <ele>70</ele>
        <time>2017-05-23T16:49:55Z</time>
      </trkpt>
      <trkpt lat="49.35165" lon="1.31369">
        <ele>70</ele>
        <time>2017-05-23T16:49:55Z</time>
      </trkpt>
      <trkpt lat="49.35166" lon="1.31374">
        <ele>70</ele>
        <time>2017-05-23T16:49:55Z</time>
      </trkpt>
      <trkpt lat="49.35169" lon="1.31376">
        <ele>71</ele>
        <time>2017-05-23T16:50:11Z</time>
      </trkpt>
      <trkpt lat="49.35172" lon="1.31381">
        <ele>71</ele>
        <time>2017-05-23T16:50:11Z</time>
      </trkpt>
      <trkpt lat="49.35172" lon="1.31386">
        <ele>71</ele>
        <time>2017-05-23T16:50:11Z</time>
      </trkpt>
      <trkpt lat="49.35176" lon="1.31394">
        <ele>71</ele>
        <time>2017-05-23T16:50:11Z</time>
      </trkpt>
      <trkpt lat="49.35177" lon="1.31397">
        <ele>71</ele>
        <time>2017-05-23T16:50:27Z</time>
      </trkpt>
      <trkpt lat="49.35183" lon="1.31401">
        <ele>71</ele>
        <time>2017-05-23T16:50:27Z</time>
      </trkpt>
      <trkpt lat="49.35192" lon="1.31402">
        <ele>71</ele>
        <time>2017-05-23T16:50:27Z</time>
      </trkpt>
      <trkpt lat="49.35201" lon="1.31407">
        <ele>71</ele>
        <time>2017-05-23T16:50:27Z</time>
      </trkpt>
      <trkpt lat="49.35203" lon="1.31405">
        <ele>71</ele>
        <time>2017-05-23T16:50:42Z</time>
      </trkpt>
      <trkpt lat="49.35207" lon="1.31395">
        <ele>71</ele>
        <time>2017-05-23T16:50:42Z</time>
      </trkpt>
      <trkpt lat="49.35209" lon="1.31384">
        <ele>74</ele>
        <time>2017-05-23T16:50:42Z</time>
      </trkpt>
      <trkpt lat="49.35212" lon="1.31378">
        <ele>74</ele>
        <time>2017-05-23T16:50:42Z</time>
      </trkpt>
      <trkpt lat="49.35215" lon="1.31382">
        <ele>74</ele>
        <time>2017-05-23T16:50:58Z</time>
      </trkpt>
      <trkpt lat="49.35218" lon="1.31379">
        <ele>74</ele>
        <time>2017-05-23T16:50:58Z</time>
      </trkpt>
      <trkpt lat="49.35221" lon="1.31376">
        <ele>74</ele>
        <time>2017-05-23T16:50:58Z</time>
      </trkpt>
      <trkpt lat="49.35225" lon="1.31369">
        <ele>76</ele>
        <time>2017-05-23T16:50:58Z</time>
      </trkpt>
      <trkpt lat="49.35228" lon="1.31364">
        <ele>76</ele>
        <time>2017-05-23T16:51:14Z</time>
      </trkpt>
      <trkpt lat="49.35229" lon="1.31359">
        <ele>76</ele>
        <time>2017-05-23T16:51:14Z</time>
      </trkpt>
      <trkpt lat="49.35232" lon="1.31353">
        <ele>76</ele>
        <time>2017-05-23T16:51:14Z</time>
      </trkpt>
      <trkpt lat="49.35234" lon="1.3135">
        <ele>76</ele>
        <time>2017-05-23T16:51:15Z</time>
      </trkpt>
      <trkpt lat="49.35232" lon="1.31344">
        <ele>76</ele>
        <time>2017-05-23T16:54:58Z</time>
      </trkpt>
      <trkpt lat="49.35232" lon="1.31344">
        <ele>76</ele>
        <time>2017-05-23T16:54:58Z</time>
      </trkpt>
      <trkpt lat="49.35236" lon="1.31335">
        <ele>76</ele>
        <time>2017-05-23T16:54:58Z</time>
      </trkpt>
      <trkpt lat="49.35239" lon="1.31322">
        <ele>76</ele>
        <time>2017-05-23T16:54:58Z</time>
      </trkpt>
      <trkpt lat="49.3524" lon="1.31311">
        <ele>76</ele>
        <time>2017-05-23T16:54:58Z</time>
      </trkpt>
      <trkpt lat="49.35241" lon="1.31295">
        <ele>76</ele>
        <time>2017-05-23T16:55:14Z</time>
      </trkpt>
      <trkpt lat="49.35243" lon="1.31292">
        <ele>76</ele>
        <time>2017-05-23T16:55:14Z</time>
      </trkpt>
      <trkpt lat="49.35246" lon="1.31289">
        <ele>81</ele>
        <time>2017-05-23T16:55:14Z</time>
      </trkpt>
      <trkpt lat="49.3525" lon="1.31284">
        <ele>81</ele>
        <time>2017-05-23T16:55:14Z</time>
      </trkpt>
      <trkpt lat="49.35255" lon="1.31266">
        <ele>81</ele>
        <time>2017-05-23T16:55:35Z</time>
      </trkpt>
      <trkpt lat="49.3526" lon="1.31265">
        <ele>81</ele>
        <time>2017-05-23T16:55:35Z</time>
      </trkpt>
      <trkpt lat="49.35265" lon="1.31265">
        <ele>81</ele>
        <time>2017-05-23T16:55:35Z</time>
      </trkpt>
      <trkpt lat="49.35274" lon="1.31253">
        <ele>81</ele>
        <time>2017-05-23T16:55:35Z</time>
      </trkpt>
      <trkpt lat="49.35274" lon="1.31241">
        <ele>81</ele>
        <time>2017-05-23T16:55:50Z</time>
      </trkpt>
      <trkpt lat="49.35275" lon="1.31237">
        <ele>81</ele>
        <time>2017-05-23T16:55:50Z</time>
      </trkpt>
      <trkpt lat="49.35278" lon="1.31235">
        <ele>81</ele>
        <time>2017-05-23T16:55:50Z</time>
      </trkpt>
      <trkpt lat="49.35281" lon="1.31232">
        <ele>81</ele>
        <time>2017-05-23T16:55:50Z</time>
      </trkpt>
      <trkpt lat="49.35308" lon="1.3125">
        <ele>66</ele>
        <time>2017-05-23T16:56:22Z</time>
      </trkpt>
      <trkpt lat="49.35308" lon="1.31257">
        <ele>66</ele>
        <time>2017-05-23T16:56:22Z</time>
      </trkpt>
      <trkpt lat="49.35316" lon="1.31265">
        <ele>66</ele>
        <time>2017-05-23T16:56:22Z</time>
      </trkpt>
      <trkpt lat="49.35319" lon="1.31276">
        <ele>66</ele>
        <time>2017-05-23T16:56:22Z</time>
      </trkpt>
      <trkpt lat="49.35322" lon="1.31281">
        <ele>66</ele>
        <time>2017-05-23T16:56:22Z</time>
      </trkpt>
      <trkpt lat="49.35323" lon="1.31291">
        <ele>66</ele>
        <time>2017-05-23T16:56:38Z</time>
      </trkpt>
      <trkpt lat="49.35316" lon="1.31298">
        <ele>65</ele>
        <time>2017-05-23T16:56:38Z</time>
      </trkpt>
      <trkpt lat="49.35317" lon="1.31304">
        <ele>65</ele>
        <time>2017-05-23T16:56:38Z</time>
      </trkpt>
      <trkpt lat="49.35318" lon="1.31309">
        <ele>65</ele>
        <time>2017-05-23T16:56:38Z</time>
      </trkpt>
      <trkpt lat="49.35321" lon="1.31314">
        <ele>65</ele>
        <time>2017-05-23T16:56:54Z</time>
      </trkpt>
      <trkpt lat="49.35318" lon="1.31318">
        <ele>65</ele>
        <time>2017-05-23T16:56:54Z</time>
      </trkpt>
      <trkpt lat="49.35315" lon="1.31324">
        <ele>65</ele>
        <time>2017-05-23T16:56:54Z</time>
      </trkpt>
      <trkpt lat="49.35317" lon="1.31333">
        <ele>65</ele>
        <time>2017-05-23T16:56:54Z</time>
      </trkpt>
      <trkpt lat="49.35324" lon="1.31343">
        <ele>65</ele>
        <time>2017-05-23T16:57:11Z</time>
      </trkpt>
      <trkpt lat="49.35327" lon="1.31351">
        <ele>65</ele>
        <time>2017-05-23T16:57:11Z</time>
      </trkpt>
      <trkpt lat="49.35329" lon="1.31359">
        <ele>65</ele>
        <time>2017-05-23T16:57:11Z</time>
      </trkpt>
      <trkpt lat="49.3533" lon="1.31367">
        <ele>65</ele>
        <time>2017-05-23T16:57:11Z</time>
      </trkpt>
      <trkpt lat="49.35335" lon="1.31379">
        <ele>63</ele>
        <time>2017-05-23T16:57:27Z</time>
      </trkpt>
      <trkpt lat="49.35333" lon="1.31382">
        <ele>63</ele>
        <time>2017-05-23T16:57:27Z</time>
      </trkpt>
      <trkpt lat="49.35338" lon="1.31391">
        <ele>63</ele>
        <time>2017-05-23T16:57:27Z</time>
      </trkpt>
      <trkpt lat="49.35339" lon="1.31401">
        <ele>63</ele>
        <time>2017-05-23T16:57:27Z</time>
      </trkpt>
      <trkpt lat="49.35337" lon="1.31404">
        <ele>63</ele>
        <time>2017-05-23T16:57:42Z</time>
      </trkpt>
      <trkpt lat="49.35336" lon="1.31412">
        <ele>63</ele>
        <time>2017-05-23T16:57:42Z</time>
      </trkpt>
      <trkpt lat="49.3533" lon="1.31419">
        <ele>63</ele>
        <time>2017-05-23T16:57:42Z</time>
      </trkpt>
      <trkpt lat="49.35332" lon="1.31425">
        <ele>63</ele>
        <time>2017-05-23T16:57:42Z</time>
      </trkpt>
      <trkpt lat="49.3533" lon="1.31434">
        <ele>63</ele>
        <time>2017-05-23T16:57:59Z</time>
      </trkpt>
      <trkpt lat="49.3533" lon="1.31437">
        <ele>63</ele>
        <time>2017-05-23T16:57:59Z</time>
      </trkpt>
      <trkpt lat="49.35331" lon="1.31437">
        <ele>63</ele>
        <time>2017-05-23T16:57:59Z</time>
      </trkpt>
      <trkpt lat="49.35334" lon="1.31452">
        <ele>63</ele>
        <time>2017-05-23T16:57:59Z</time>
      </trkpt>
      <trkpt lat="49.35338" lon="1.31465">
        <ele>62</ele>
        <time>2017-05-23T16:58:14Z</time>
      </trkpt>
      <trkpt lat="49.35332" lon="1.31475">
        <ele>62</ele>
        <time>2017-05-23T16:58:14Z</time>
      </trkpt>
      <trkpt lat="49.35334" lon="1.31481">
        <ele>62</ele>
        <time>2017-05-23T16:58:14Z</time>
      </trkpt>
      <trkpt lat="49.35338" lon="1.31487">
        <ele>62</ele>
        <time>2017-05-23T16:58:14Z</time>
      </trkpt>
      <trkpt lat="49.35344" lon="1.31499">
        <ele>62</ele>
        <time>2017-05-23T16:58:30Z</time>
      </trkpt>
      <trkpt lat="49.35346" lon="1.31497">
        <ele>62</ele>
        <time>2017-05-23T16:58:30Z</time>
      </trkpt>
      <trkpt lat="49.35343" lon="1.31503">
        <ele>62</ele>
        <time>2017-05-23T16:58:30Z</time>
      </trkpt>
      <trkpt lat="49.35342" lon="1.31513">
        <ele>62</ele>
        <time>2017-05-23T16:58:30Z</time>
      </trkpt>
      <trkpt lat="49.35348" lon="1.31539">
        <ele>62</ele>
        <time>2017-05-23T16:59:03Z</time>
      </trkpt>
      <trkpt lat="49.3534" lon="1.31545">
        <ele>60</ele>
        <time>2017-05-23T16:59:03Z</time>
      </trkpt>
      <trkpt lat="49.35348" lon="1.31551">
        <ele>60</ele>
        <time>2017-05-23T16:59:03Z</time>
      </trkpt>
      <trkpt lat="49.35349" lon="1.31555">
        <ele>60</ele>
        <time>2017-05-23T16:59:03Z</time>
      </trkpt>
      <trkpt lat="49.35353" lon="1.31564">
        <ele>60</ele>
        <time>2017-05-23T16:59:03Z</time>
      </trkpt>
      <trkpt lat="49.35357" lon="1.31581">
        <ele>60</ele>
        <time>2017-05-23T16:59:23Z</time>
      </trkpt>
      <trkpt lat="49.3536" lon="1.31585">
        <ele>60</ele>
        <time>2017-05-23T16:59:23Z</time>
      </trkpt>
      <trkpt lat="49.35364" lon="1.31592">
        <ele>60</ele>
        <time>2017-05-23T16:59:23Z</time>
      </trkpt>
      <trkpt lat="49.35365" lon="1.31592">
        <ele>60</ele>
        <time>2017-05-23T16:59:23Z</time>
      </trkpt>
      <trkpt lat="49.35356" lon="1.31597">
        <ele>60</ele>
        <time>2017-05-23T16:59:38Z</time>
      </trkpt>
      <trkpt lat="49.35354" lon="1.31604">
        <ele>60</ele>
        <time>2017-05-23T16:59:38Z</time>
      </trkpt>
      <trkpt lat="49.35359" lon="1.31614">
        <ele>60</ele>
        <time>2017-05-23T16:59:38Z</time>
      </trkpt>
      <trkpt lat="49.35366" lon="1.31622">
        <ele>60</ele>
        <time>2017-05-23T16:59:38Z</time>
      </trkpt>
      <trkpt lat="49.35361" lon="1.31632">
        <ele>60</ele>
        <time>2017-05-23T16:59:54Z</time>
      </trkpt>
      <trkpt lat="49.35366" lon="1.31628">
        <ele>60</ele>
        <time>2017-05-23T16:59:54Z</time>
      </trkpt>
      <trkpt lat="49.35369" lon="1.31632">
        <ele>60</ele>
        <time>2017-05-23T16:59:54Z</time>
      </trkpt>
      <trkpt lat="49.35374" lon="1.31641">
        <ele>60</ele>
        <time>2017-05-23T16:59:54Z</time>
      </trkpt>
      <trkpt lat="49.3538" lon="1.31662">
        <ele>54</ele>
        <time>2017-05-23T17:00:22Z</time>
      </trkpt>
      <trkpt lat="49.35379" lon="1.31669">
        <ele>54</ele>
        <time>2017-05-23T17:00:22Z</time>
      </trkpt>
      <trkpt lat="49.35379" lon="1.31673">
        <ele>54</ele>
        <time>2017-05-23T17:00:22Z</time>
      </trkpt>
      <trkpt lat="49.35377" lon="1.31675">
        <ele>54</ele>
        <time>2017-05-23T17:00:22Z</time>
      </trkpt>
      <trkpt lat="49.35367" lon="1.31695">
        <ele>60</ele>
        <time>2017-05-23T17:00:22Z</time>
      </trkpt>
      <trkpt lat="49.3537" lon="1.31697">
        <ele>60</ele>
        <time>2017-05-23T17:00:38Z</time>
      </trkpt>
      <trkpt lat="49.35373" lon="1.31703">
        <ele>60</ele>
        <time>2017-05-23T17:00:38Z</time>
      </trkpt>
      <trkpt lat="49.35375" lon="1.31713">
        <ele>50</ele>
        <time>2017-05-23T17:00:38Z</time>
      </trkpt>
      <trkpt lat="49.35373" lon="1.31727">
        <ele>59</ele>
        <time>2017-05-23T17:00:38Z</time>
      </trkpt>
      <trkpt lat="49.35379" lon="1.31738">
        <ele>50</ele>
        <time>2017-05-23T17:00:54Z</time>
      </trkpt>
      <trkpt lat="49.35382" lon="1.31739">
        <ele>50</ele>
        <time>2017-05-23T17:00:55Z</time>
      </trkpt>
      <trkpt lat="49.35368" lon="1.31749">
        <ele>59</ele>
        <time>2017-05-23T17:00:55Z</time>
      </trkpt>
      <trkpt lat="49.35368" lon="1.31764">
        <ele>59</ele>
        <time>2017-05-23T17:00:55Z</time>
      </trkpt>
      <trkpt lat="49.35367" lon="1.31763">
        <ele>59</ele>
        <time>2017-05-23T17:01:11Z</time>
      </trkpt>
      <trkpt lat="49.35374" lon="1.31766">
        <ele>59</ele>
        <time>2017-05-23T17:01:11Z</time>
      </trkpt>
      <trkpt lat="49.35375" lon="1.31771">
        <ele>59</ele>
        <time>2017-05-23T17:01:11Z</time>
      </trkpt>
      <trkpt lat="49.35377" lon="1.31777">
        <ele>50</ele>
        <time>2017-05-23T17:01:11Z</time>
      </trkpt>
      <trkpt lat="49.35383" lon="1.31803">
        <ele>51</ele>
        <time>2017-05-23T17:01:42Z</time>
      </trkpt>
      <trkpt lat="49.3538" lon="1.31813">
        <ele>51</ele>
        <time>2017-05-23T17:01:42Z</time>
      </trkpt>
      <trkpt lat="49.3537" lon="1.31823">
        <ele>58</ele>
        <time>2017-05-23T17:01:42Z</time>
      </trkpt>
      <trkpt lat="49.35375" lon="1.31826">
        <ele>58</ele>
        <time>2017-05-23T17:01:42Z</time>
      </trkpt>
      <trkpt lat="49.35378" lon="1.31833">
        <ele>51</ele>
        <time>2017-05-23T17:01:42Z</time>
      </trkpt>
      <trkpt lat="49.35383" lon="1.31835">
        <ele>51</ele>
        <time>2017-05-23T17:01:58Z</time>
      </trkpt>
      <trkpt lat="49.35387" lon="1.3185">
        <ele>51</ele>
        <time>2017-05-23T17:01:58Z</time>
      </trkpt>
      <trkpt lat="49.35387" lon="1.31862">
        <ele>51</ele>
        <time>2017-05-23T17:01:58Z</time>
      </trkpt>
      <trkpt lat="49.35389" lon="1.31862">
        <ele>51</ele>
        <time>2017-05-23T17:01:58Z</time>
      </trkpt>
      <trkpt lat="49.354" lon="1.3187">
        <ele>51</ele>
        <time>2017-05-23T17:02:14Z</time>
      </trkpt>
      <trkpt lat="49.35403" lon="1.31874">
        <ele>51</ele>
        <time>2017-05-23T17:02:14Z</time>
      </trkpt>
      <trkpt lat="49.354" lon="1.31889">
        <ele>50</ele>
        <time>2017-05-23T17:02:14Z</time>
      </trkpt>
      <trkpt lat="49.35401" lon="1.31892">
        <ele>50</ele>
        <time>2017-05-23T17:02:14Z</time>
      </trkpt>
      <trkpt lat="49.35402" lon="1.31898">
        <ele>50</ele>
        <time>2017-05-23T17:02:42Z</time>
      </trkpt>
      <trkpt lat="49.35401" lon="1.31926">
        <ele>50</ele>
        <time>2017-05-23T17:02:42Z</time>
      </trkpt>
      <trkpt lat="49.35396" lon="1.31933">
        <ele>50</ele>
        <time>2017-05-23T17:02:42Z</time>
      </trkpt>
      <trkpt lat="49.35397" lon="1.31941">
        <ele>50</ele>
        <time>2017-05-23T17:02:42Z</time>
      </trkpt>
      <trkpt lat="49.35408" lon="1.31957">
        <ele>50</ele>
        <time>2017-05-23T17:02:58Z</time>
      </trkpt>
      <trkpt lat="49.35414" lon="1.3197">
        <ele>45</ele>
        <time>2017-05-23T17:02:58Z</time>
      </trkpt>
      <trkpt lat="49.354" lon="1.31985">
        <ele>45</ele>
        <time>2017-05-23T17:02:58Z</time>
      </trkpt>
      <trkpt lat="49.35396" lon="1.3199">
        <ele>45</ele>
        <time>2017-05-23T17:02:58Z</time>
      </trkpt>
      <trkpt lat="49.35399" lon="1.3198">
        <ele>45</ele>
        <time>2017-05-23T17:03:15Z</time>
      </trkpt>
      <trkpt lat="49.35402" lon="1.31977">
        <ele>45</ele>
        <time>2017-05-23T17:03:15Z</time>
      </trkpt>
      <trkpt lat="49.3541" lon="1.31972">
        <ele>45</ele>
        <time>2017-05-23T17:03:15Z</time>
      </trkpt>
      <trkpt lat="49.35416" lon="1.31978">
        <ele>45</ele>
        <time>2017-05-23T17:03:15Z</time>
      </trkpt>
      <trkpt lat="49.35414" lon="1.31991">
        <ele>45</ele>
        <time>2017-05-23T17:03:38Z</time>
      </trkpt>
      <trkpt lat="49.35406" lon="1.31996">
        <ele>45</ele>
        <time>2017-05-23T17:03:38Z</time>
      </trkpt>
      <trkpt lat="49.35406" lon="1.31985">
        <ele>45</ele>
        <time>2017-05-23T17:03:38Z</time>
      </trkpt>
      <trkpt lat="49.35415" lon="1.31971">
        <ele>45</ele>
        <time>2017-05-23T17:03:38Z</time>
      </trkpt>
      <trkpt lat="49.35427" lon="1.32014">
        <ele>45</ele>
        <time>2017-05-23T17:04:35Z</time>
      </trkpt>
      <trkpt lat="49.35432" lon="1.32026">
        <ele>45</ele>
        <time>2017-05-23T17:04:35Z</time>
      </trkpt>
      <trkpt lat="49.35439" lon="1.32032">
        <ele>45</ele>
        <time>2017-05-23T17:04:35Z</time>
      </trkpt>
      <trkpt lat="49.35442" lon="1.3204">
        <ele>45</ele>
        <time>2017-05-23T17:04:35Z</time>
      </trkpt>
      <trkpt lat="49.35449" lon="1.32047">
        <ele>41</ele>
        <time>2017-05-23T17:04:35Z</time>
      </trkpt>
      <trkpt lat="49.35447" lon="1.32053">
        <ele>41</ele>
        <time>2017-05-23T17:04:56Z</time>
      </trkpt>
      <trkpt lat="49.35452" lon="1.32068">
        <ele>41</ele>
        <time>2017-05-23T17:04:56Z</time>
      </trkpt>
      <trkpt lat="49.35459" lon="1.32076">
        <ele>57</ele>
        <time>2017-05-23T17:04:56Z</time>
      </trkpt>
      <trkpt lat="49.35464" lon="1.32082">
        <ele>57</ele>
        <time>2017-05-23T17:04:56Z</time>
      </trkpt>
      <trkpt lat="49.35457" lon="1.32115">
        <ele>41</ele>
        <time>2017-05-23T17:05:26Z</time>
      </trkpt>
      <trkpt lat="49.35459" lon="1.32121">
        <ele>57</ele>
        <time>2017-05-23T17:05:26Z</time>
      </trkpt>
      <trkpt lat="49.35463" lon="1.32127">
        <ele>46</ele>
        <time>2017-05-23T17:05:26Z</time>
      </trkpt>
      <trkpt lat="49.35465" lon="1.32134">
        <ele>46</ele>
        <time>2017-05-23T17:05:26Z</time>
      </trkpt>
      <trkpt lat="49.3547" lon="1.3214">
        <ele>46</ele>
        <time>2017-05-23T17:05:26Z</time>
      </trkpt>
      <trkpt lat="49.35472" lon="1.32144">
        <ele>46</ele>
        <time>2017-05-23T17:05:42Z</time>
      </trkpt>
      <trkpt lat="49.35466" lon="1.32154">
        <ele>46</ele>
        <time>2017-05-23T17:05:42Z</time>
      </trkpt>
      <trkpt lat="49.35463" lon="1.32169">
        <ele>46</ele>
        <time>2017-05-23T17:05:42Z</time>
      </trkpt>
      <trkpt lat="49.35469" lon="1.32173">
        <ele>46</ele>
        <time>2017-05-23T17:05:42Z</time>
      </trkpt>
      <trkpt lat="49.35481" lon="1.32177">
        <ele>46</ele>
        <time>2017-05-23T17:05:58Z</time>
      </trkpt>
      <trkpt lat="49.35479" lon="1.32177">
        <ele>46</ele>
        <time>2017-05-23T17:05:58Z</time>
      </trkpt>
      <trkpt lat="49.3548" lon="1.32173">
        <ele>46</ele>
        <time>2017-05-23T17:05:58Z</time>
      </trkpt>
      <trkpt lat="49.35487" lon="1.32191">
        <ele>46</ele>
        <time>2017-05-23T17:05:58Z</time>
      </trkpt>
      <trkpt lat="49.35476" lon="1.32201">
        <ele>46</ele>
        <time>2017-05-23T17:06:15Z</time>
      </trkpt>
      <trkpt lat="49.35478" lon="1.32206">
        <ele>46</ele>
        <time>2017-05-23T17:06:15Z</time>
      </trkpt>
      <trkpt lat="49.35478" lon="1.32219">
        <ele>41</ele>
        <time>2017-05-23T17:06:15Z</time>
      </trkpt>
      <trkpt lat="49.35477" lon="1.32225">
        <ele>41</ele>
        <time>2017-05-23T17:06:15Z</time>
      </trkpt>
      <trkpt lat="49.35478" lon="1.32231">
        <ele>41</ele>
        <time>2017-05-23T17:06:35Z</time>
      </trkpt>
      <trkpt lat="49.35481" lon="1.3224">
        <ele>41</ele>
        <time>2017-05-23T17:06:35Z</time>
      </trkpt>
      <trkpt lat="49.35484" lon="1.32246">
        <ele>41</ele>
        <time>2017-05-23T17:06:35Z</time>
      </trkpt>
      <trkpt lat="49.35488" lon="1.32255">
        <ele>41</ele>
        <time>2017-05-23T17:06:35Z</time>
      </trkpt>
      <trkpt lat="49.35487" lon="1.32261">
        <ele>41</ele>
        <time>2017-05-23T17:06:50Z</time>
      </trkpt>
      <trkpt lat="49.35489" lon="1.32266">
        <ele>41</ele>
        <time>2017-05-23T17:06:50Z</time>
      </trkpt>
      <trkpt lat="49.35492" lon="1.32273">
        <ele>41</ele>
        <time>2017-05-23T17:06:50Z</time>
      </trkpt>
      <trkpt lat="49.35494" lon="1.32276">
        <ele>41</ele>
        <time>2017-05-23T17:06:50Z</time>
      </trkpt>
      <trkpt lat="49.35499" lon="1.32283">
        <ele>41</ele>
        <time>2017-05-23T17:07:11Z</time>
      </trkpt>
      <trkpt lat="49.35504" lon="1.32277">
        <ele>41</ele>
        <time>2017-05-23T17:07:11Z</time>
      </trkpt>
      <trkpt lat="49.35505" lon="1.32281">
        <ele>41</ele>
        <time>2017-05-23T17:07:11Z</time>
      </trkpt>
      <trkpt lat="49.35508" lon="1.32287">
        <ele>41</ele>
        <time>2017-05-23T17:07:11Z</time>
      </trkpt>
      <trkpt lat="49.3551" lon="1.32289">
        <ele>41</ele>
        <time>2017-05-23T17:07:26Z</time>
      </trkpt>
      <trkpt lat="49.35513" lon="1.32293">
        <ele>36</ele>
        <time>2017-05-23T17:07:26Z</time>
      </trkpt>
      <trkpt lat="49.35514" lon="1.323">
        <ele>36</ele>
        <time>2017-05-23T17:07:26Z</time>
      </trkpt>
      <trkpt lat="49.35516" lon="1.32306">
        <ele>36</ele>
        <time>2017-05-23T17:07:26Z</time>
      </trkpt>
      <trkpt lat="49.35512" lon="1.3231">
        <ele>36</ele>
        <time>2017-05-23T17:08:27Z</time>
      </trkpt>
      <trkpt lat="49.35516" lon="1.32316">
        <ele>36</ele>
        <time>2017-05-23T17:08:27Z</time>
      </trkpt>
      <trkpt lat="49.35522" lon="1.32326">
        <ele>36</ele>
        <time>2017-05-23T17:08:27Z</time>
      </trkpt>
      <trkpt lat="49.35528" lon="1.32325">
        <ele>36</ele>
        <time>2017-05-23T17:08:27Z</time>
      </trkpt>
      <trkpt lat="49.35531" lon="1.3233">
        <ele>36</ele>
        <time>2017-05-23T17:08:27Z</time>
      </trkpt>
      <trkpt lat="49.3553" lon="1.32336">
        <ele>36</ele>
        <time>2017-05-23T17:08:54Z</time>
      </trkpt>
      <trkpt lat="49.3553" lon="1.32336">
        <ele>36</ele>
        <time>2017-05-23T17:08:54Z</time>
      </trkpt>
      <trkpt lat="49.3553" lon="1.32337">
        <ele>36</ele>
        <time>2017-05-23T17:08:54Z</time>
      </trkpt>
      <trkpt lat="49.35535" lon="1.32345">
        <ele>36</ele>
        <time>2017-05-23T17:08:54Z</time>
      </trkpt>
      <trkpt lat="49.35538" lon="1.32354">
        <ele>36</ele>
        <time>2017-05-23T17:08:54Z</time>
      </trkpt>
      <trkpt lat="49.35538" lon="1.32361">
        <ele>36</ele>
        <time>2017-05-23T17:09:10Z</time>
      </trkpt>
      <trkpt lat="49.35542" lon="1.32372">
        <ele>48</ele>
        <time>2017-05-23T17:09:10Z</time>
      </trkpt>
      <trkpt lat="49.35543" lon="1.32379">
        <ele>43</ele>
        <time>2017-05-23T17:09:10Z</time>
      </trkpt>
      <trkpt lat="49.35546" lon="1.32385">
        <ele>43</ele>
        <time>2017-05-23T17:09:10Z</time>
      </trkpt>
      <trkpt lat="49.3555" lon="1.3239">
        <ele>43</ele>
        <time>2017-05-23T17:09:27Z</time>
      </trkpt>
      <trkpt lat="49.35551" lon="1.32397">
        <ele>43</ele>
        <time>2017-05-23T17:09:28Z</time>
      </trkpt>
      <trkpt lat="49.35552" lon="1.32402">
        <ele>43</ele>
        <time>2017-05-23T17:09:28Z</time>
      </trkpt>
      <trkpt lat="49.35555" lon="1.32412">
        <ele>43</ele>
        <time>2017-05-23T17:09:28Z</time>
      </trkpt>
      <trkpt lat="49.35559" lon="1.3242">
        <ele>43</ele>
        <time>2017-05-23T17:09:50Z</time>
      </trkpt>
      <trkpt lat="49.35559" lon="1.3242">
        <ele>43</ele>
        <time>2017-05-23T17:09:50Z</time>
      </trkpt>
      <trkpt lat="49.35559" lon="1.32421">
        <ele>43</ele>
        <time>2017-05-23T17:09:50Z</time>
      </trkpt>
      <trkpt lat="49.35562" lon="1.32427">
        <ele>43</ele>
        <time>2017-05-23T17:09:50Z</time>
      </trkpt>
      <trkpt lat="49.35565" lon="1.32432">
        <ele>43</ele>
        <time>2017-05-23T17:09:50Z</time>
      </trkpt>
      <trkpt lat="49.35567" lon="1.32439">
        <ele>43</ele>
        <time>2017-05-23T17:10:07Z</time>
      </trkpt>
      <trkpt lat="49.3557" lon="1.3244">
        <ele>43</ele>
        <time>2017-05-23T17:10:07Z</time>
      </trkpt>
      <trkpt lat="49.35572" lon="1.32445">
        <ele>43</ele>
        <time>2017-05-23T17:10:07Z</time>
      </trkpt>
      <trkpt lat="49.35575" lon="1.3245">
        <ele>43</ele>
        <time>2017-05-23T17:10:07Z</time>
      </trkpt>
      <trkpt lat="49.35578" lon="1.32454">
        <ele>43</ele>
        <time>2017-05-23T17:10:22Z</time>
      </trkpt>
      <trkpt lat="49.3558" lon="1.32458">
        <ele>43</ele>
        <time>2017-05-23T17:10:22Z</time>
      </trkpt>
      <trkpt lat="49.35584" lon="1.32466">
        <ele>37</ele>
        <time>2017-05-23T17:10:22Z</time>
      </trkpt>
      <trkpt lat="49.35589" lon="1.32473">
        <ele>37</ele>
        <time>2017-05-23T17:10:22Z</time>
      </trkpt>
      <trkpt lat="49.35591" lon="1.32476">
        <ele>37</ele>
        <time>2017-05-23T17:10:42Z</time>
      </trkpt>
      <trkpt lat="49.35592" lon="1.32478">
        <ele>37</ele>
        <time>2017-05-23T17:10:42Z</time>
      </trkpt>
      <trkpt lat="49.35594" lon="1.32481">
        <ele>37</ele>
        <time>2017-05-23T17:10:42Z</time>
      </trkpt>
      <trkpt lat="49.35595" lon="1.32486">
        <ele>37</ele>
        <time>2017-05-23T17:10:42Z</time>
      </trkpt>
      <trkpt lat="49.35597" lon="1.3249">
        <ele>37</ele>
        <time>2017-05-23T17:10:42Z</time>
      </trkpt>
      <trkpt lat="49.35603" lon="1.32499">
        <ele>37</ele>
        <time>2017-05-23T17:10:58Z</time>
      </trkpt>
      <trkpt lat="49.3561" lon="1.32506">
        <ele>37</ele>
        <time>2017-05-23T17:10:58Z</time>
      </trkpt>
      <trkpt lat="49.35614" lon="1.32512">
        <ele>37</ele>
        <time>2017-05-23T17:10:58Z</time>
      </trkpt>
      <trkpt lat="49.35614" lon="1.32514">
        <ele>37</ele>
        <time>2017-05-23T17:10:58Z</time>
      </trkpt>
      <trkpt lat="49.3561" lon="1.32511">
        <ele>37</ele>
        <time>2017-05-23T17:13:23Z</time>
      </trkpt>
      <trkpt lat="49.35617" lon="1.32513">
        <ele>37</ele>
        <time>2017-05-23T17:13:23Z</time>
      </trkpt>
      <trkpt lat="49.35621" lon="1.32516">
        <ele>37</ele>
        <time>2017-05-23T17:13:23Z</time>
      </trkpt>
      <trkpt lat="49.35626" lon="1.32516">
        <ele>45</ele>
        <time>2017-05-23T17:13:23Z</time>
      </trkpt>
      <trkpt lat="49.35629" lon="1.32513">
        <ele>45</ele>
        <time>2017-05-23T17:13:24Z</time>
      </trkpt>
      <trkpt lat="49.35637" lon="1.32511">
        <ele>45</ele>
        <time>2017-05-23T17:13:42Z</time>
      </trkpt>
      <trkpt lat="49.35642" lon="1.32511">
        <ele>45</ele>
        <time>2017-05-23T17:13:43Z</time>
      </trkpt>
      <trkpt lat="49.35647" lon="1.32514">
        <ele>45</ele>
        <time>2017-05-23T17:13:43Z</time>
      </trkpt>
      <trkpt lat="49.35653" lon="1.32514">
        <ele>45</ele>
        <time>2017-05-23T17:13:43Z</time>
      </trkpt>
      <trkpt lat="49.35657" lon="1.32514">
        <ele>45</ele>
        <time>2017-05-23T17:13:58Z</time>
      </trkpt>
      <trkpt lat="49.35658" lon="1.32514">
        <ele>45</ele>
        <time>2017-05-23T17:13:58Z</time>
      </trkpt>
      <trkpt lat="49.35662" lon="1.32514">
        <ele>45</ele>
        <time>2017-05-23T17:13:58Z</time>
      </trkpt>
      <trkpt lat="49.35666" lon="1.32515">
        <ele>45</ele>
        <time>2017-05-23T17:13:58Z</time>
      </trkpt>
      <trkpt lat="49.35671" lon="1.32517">
        <ele>45</ele>
        <time>2017-05-23T17:14:14Z</time>
      </trkpt>
      <trkpt lat="49.35675" lon="1.32521">
        <ele>45</ele>
        <time>2017-05-23T17:14:14Z</time>
      </trkpt>
      <trkpt lat="49.3568" lon="1.32525">
        <ele>45</ele>
        <time>2017-05-23T17:14:14Z</time>
      </trkpt>
      <trkpt lat="49.35684" lon="1.3253">
        <ele>45</ele>
        <time>2017-05-23T17:14:14Z</time>
      </trkpt>
      <trkpt lat="49.35687" lon="1.32534">
        <ele>45</ele>
        <time>2017-05-23T17:14:30Z</time>
      </trkpt>
      <trkpt lat="49.35691" lon="1.32539">
        <ele>45</ele>
        <time>2017-05-23T17:14:30Z</time>
      </trkpt>
      <trkpt lat="49.35694" lon="1.32544">
        <ele>42</ele>
        <time>2017-05-23T17:14:30Z</time>
      </trkpt>
      <trkpt lat="49.35697" lon="1.32547">
        <ele>42</ele>
        <time>2017-05-23T17:14:30Z</time>
      </trkpt>
      <trkpt lat="49.35698" lon="1.32553">
        <ele>42</ele>
        <time>2017-05-23T17:14:46Z</time>
      </trkpt>
      <trkpt lat="49.35701" lon="1.32557">
        <ele>42</ele>
        <time>2017-05-23T17:14:46Z</time>
      </trkpt>
      <trkpt lat="49.35705" lon="1.32562">
        <ele>42</ele>
        <time>2017-05-23T17:14:46Z</time>
      </trkpt>
      <trkpt lat="49.35708" lon="1.3257">
        <ele>42</ele>
        <time>2017-05-23T17:14:46Z</time>
      </trkpt>
      <trkpt lat="49.35712" lon="1.32576">
        <ele>46</ele>
        <time>2017-05-23T17:15:02Z</time>
      </trkpt>
      <trkpt lat="49.35716" lon="1.3258">
        <ele>46</ele>
        <time>2017-05-23T17:15:02Z</time>
      </trkpt>
      <trkpt lat="49.35719" lon="1.32586">
        <ele>46</ele>
        <time>2017-05-23T17:15:02Z</time>
      </trkpt>
      <trkpt lat="49.35723" lon="1.32592">
        <ele>46</ele>
        <time>2017-05-23T17:15:02Z</time>
      </trkpt>
      <trkpt lat="49.35736" lon="1.32611">
        <ele>46</ele>
        <time>2017-05-23T17:15:27Z</time>
      </trkpt>
      <trkpt lat="49.35739" lon="1.32615">
        <ele>46</ele>
        <time>2017-05-23T17:15:27Z</time>
      </trkpt>
      <trkpt lat="49.35743" lon="1.3262">
        <ele>46</ele>
        <time>2017-05-23T17:15:27Z</time>
      </trkpt>
      <trkpt lat="49.35744" lon="1.32623">
        <ele>46</ele>
        <time>2017-05-23T17:15:27Z</time>
      </trkpt>
      <trkpt lat="49.35744" lon="1.32628">
        <ele>44</ele>
        <time>2017-05-23T17:15:43Z</time>
      </trkpt>
      <trkpt lat="49.35748" lon="1.32633">
        <ele>44</ele>
        <time>2017-05-23T17:15:43Z</time>
      </trkpt>
      <trkpt lat="49.35751" lon="1.32638">
        <ele>44</ele>
        <time>2017-05-23T17:15:43Z</time>
      </trkpt>
      <trkpt lat="49.35755" lon="1.32642">
        <ele>44</ele>
        <time>2017-05-23T17:15:43Z</time>
      </trkpt>
      <trkpt lat="49.35761" lon="1.32655">
        <ele>44</ele>
        <time>2017-05-23T17:16:02Z</time>
      </trkpt>
      <trkpt lat="49.35765" lon="1.32659">
        <ele>44</ele>
        <time>2017-05-23T17:16:02Z</time>
      </trkpt>
      <trkpt lat="49.35767" lon="1.32665">
        <ele>44</ele>
        <time>2017-05-23T17:16:03Z</time>
      </trkpt>
      <trkpt lat="49.3577" lon="1.3267">
        <ele>44</ele>
        <time>2017-05-23T17:16:03Z</time>
      </trkpt>
      <trkpt lat="49.35775" lon="1.32676">
        <ele>44</ele>
        <time>2017-05-23T17:16:18Z</time>
      </trkpt>
      <trkpt lat="49.35778" lon="1.32681">
        <ele>44</ele>
        <time>2017-05-23T17:16:18Z</time>
      </trkpt>
      <trkpt lat="49.35783" lon="1.32688">
        <ele>44</ele>
        <time>2017-05-23T17:16:18Z</time>
      </trkpt>
      <trkpt lat="49.35786" lon="1.32695">
        <ele>44</ele>
        <time>2017-05-23T17:16:18Z</time>
      </trkpt>
      <trkpt lat="49.35787" lon="1.32697">
        <ele>44</ele>
        <time>2017-05-23T17:16:36Z</time>
      </trkpt>
      <trkpt lat="49.35791" lon="1.32704">
        <ele>44</ele>
        <time>2017-05-23T17:16:36Z</time>
      </trkpt>
      <trkpt lat="49.35797" lon="1.32712">
        <ele>46</ele>
        <time>2017-05-23T17:16:36Z</time>
      </trkpt>
      <trkpt lat="49.35797" lon="1.32716">
        <ele>46</ele>
        <time>2017-05-23T17:16:36Z</time>
      </trkpt>
      <trkpt lat="49.35806" lon="1.32726">
        <ele>46</ele>
        <time>2017-05-23T17:16:54Z</time>
      </trkpt>
      <trkpt lat="49.35805" lon="1.3273">
        <ele>46</ele>
        <time>2017-05-23T17:16:54Z</time>
      </trkpt>
      <trkpt lat="49.35807" lon="1.32735">
        <ele>46</ele>
        <time>2017-05-23T17:16:54Z</time>
      </trkpt>
      <trkpt lat="49.35811" lon="1.3274">
        <ele>46</ele>
        <time>2017-05-23T17:16:54Z</time>
      </trkpt>
      <trkpt lat="49.35821" lon="1.32749">
        <ele>46</ele>
        <time>2017-05-23T17:17:15Z</time>
      </trkpt>
      <trkpt lat="49.35824" lon="1.32755">
        <ele>46</ele>
        <time>2017-05-23T17:17:15Z</time>
      </trkpt>
      <trkpt lat="49.35826" lon="1.32761">
        <ele>46</ele>
        <time>2017-05-23T17:17:15Z</time>
      </trkpt>
      <trkpt lat="49.35829" lon="1.32764">
        <ele>46</ele>
        <time>2017-05-23T17:17:15Z</time>
      </trkpt>
      <trkpt lat="49.35835" lon="1.32771">
        <ele>46</ele>
        <time>2017-05-23T17:17:35Z</time>
      </trkpt>
      <trkpt lat="49.35836" lon="1.32775">
        <ele>46</ele>
        <time>2017-05-23T17:17:35Z</time>
      </trkpt>
      <trkpt lat="49.35842" lon="1.32784">
        <ele>46</ele>
        <time>2017-05-23T17:17:35Z</time>
      </trkpt>
      <trkpt lat="49.35846" lon="1.32789">
        <ele>46</ele>
        <time>2017-05-23T17:17:35Z</time>
      </trkpt>
      <trkpt lat="49.35851" lon="1.32794">
        <ele>45</ele>
        <time>2017-05-23T17:17:50Z</time>
      </trkpt>
      <trkpt lat="49.35855" lon="1.328">
        <ele>45</ele>
        <time>2017-05-23T17:17:51Z</time>
      </trkpt>
      <trkpt lat="49.35857" lon="1.32803">
        <ele>45</ele>
        <time>2017-05-23T17:17:52Z</time>
      </trkpt>
      <trkpt lat="49.35865" lon="1.32811">
        <ele>45</ele>
        <time>2017-05-23T17:17:52Z</time>
      </trkpt>
      <trkpt lat="49.35866" lon="1.32814">
        <ele>45</ele>
        <time>2017-05-23T17:18:07Z</time>
      </trkpt>
      <trkpt lat="49.35866" lon="1.32819">
        <ele>45</ele>
        <time>2017-05-23T17:18:07Z</time>
      </trkpt>
      <trkpt lat="49.35871" lon="1.32825">
        <ele>45</ele>
        <time>2017-05-23T17:18:07Z</time>
      </trkpt>
      <trkpt lat="49.35875" lon="1.32829">
        <ele>45</ele>
        <time>2017-05-23T17:18:07Z</time>
      </trkpt>
      <trkpt lat="49.35879" lon="1.32833">
        <ele>50</ele>
        <time>2017-05-23T17:18:22Z</time>
      </trkpt>
      <trkpt lat="49.35884" lon="1.32838">
        <ele>50</ele>
        <time>2017-05-23T17:18:22Z</time>
      </trkpt>
      <trkpt lat="49.35887" lon="1.32843">
        <ele>50</ele>
        <time>2017-05-23T17:18:22Z</time>
      </trkpt>
      <trkpt lat="49.35891" lon="1.3285">
        <ele>50</ele>
        <time>2017-05-23T17:18:22Z</time>
      </trkpt>
      <trkpt lat="49.35895" lon="1.32855">
        <ele>50</ele>
        <time>2017-05-23T17:18:39Z</time>
      </trkpt>
      <trkpt lat="49.35898" lon="1.32859">
        <ele>50</ele>
        <time>2017-05-23T17:18:39Z</time>
      </trkpt>
      <trkpt lat="49.359" lon="1.32864">
        <ele>50</ele>
        <time>2017-05-23T17:18:39Z</time>
      </trkpt>
      <trkpt lat="49.35903" lon="1.32872">
        <ele>50</ele>
        <time>2017-05-23T17:18:39Z</time>
      </trkpt>
      <trkpt lat="49.35904" lon="1.32877">
        <ele>48</ele>
        <time>2017-05-23T17:18:54Z</time>
      </trkpt>
      <trkpt lat="49.35907" lon="1.32883">
        <ele>48</ele>
        <time>2017-05-23T17:18:54Z</time>
      </trkpt>
      <trkpt lat="49.35911" lon="1.32886">
        <ele>48</ele>
        <time>2017-05-23T17:18:54Z</time>
      </trkpt>
      <trkpt lat="49.35912" lon="1.32891">
        <ele>48</ele>
        <time>2017-05-23T17:18:54Z</time>
      </trkpt>
      <trkpt lat="49.35916" lon="1.32895">
        <ele>48</ele>
        <time>2017-05-23T17:19:10Z</time>
      </trkpt>
      <trkpt lat="49.35918" lon="1.32899">
        <ele>48</ele>
        <time>2017-05-23T17:19:10Z</time>
      </trkpt>
      <trkpt lat="49.35922" lon="1.32904">
        <ele>48</ele>
        <time>2017-05-23T17:19:10Z</time>
      </trkpt>
      <trkpt lat="49.35924" lon="1.32909">
        <ele>48</ele>
        <time>2017-05-23T17:19:10Z</time>
      </trkpt>
      <trkpt lat="49.35929" lon="1.32915">
        <ele>48</ele>
        <time>2017-05-23T17:19:27Z</time>
      </trkpt>
      <trkpt lat="49.35933" lon="1.3292">
        <ele>48</ele>
        <time>2017-05-23T17:19:27Z</time>
      </trkpt>
      <trkpt lat="49.35936" lon="1.32927">
        <ele>48</ele>
        <time>2017-05-23T17:19:27Z</time>
      </trkpt>
      <trkpt lat="49.35938" lon="1.32933">
        <ele>48</ele>
        <time>2017-05-23T17:19:27Z</time>
      </trkpt>
      <trkpt lat="49.35942" lon="1.32937">
        <ele>48</ele>
        <time>2017-05-23T17:19:42Z</time>
      </trkpt>
      <trkpt lat="49.35948" lon="1.32945">
        <ele>48</ele>
        <time>2017-05-23T17:19:42Z</time>
      </trkpt>
      <trkpt lat="49.35952" lon="1.32948">
        <ele>48</ele>
        <time>2017-05-23T17:19:42Z</time>
      </trkpt>
      <trkpt lat="49.35956" lon="1.32953">
        <ele>48</ele>
        <time>2017-05-23T17:19:42Z</time>
      </trkpt>
      <trkpt lat="49.35961" lon="1.32957">
        <ele>51</ele>
        <time>2017-05-23T17:19:58Z</time>
      </trkpt>
      <trkpt lat="49.35965" lon="1.32961">
        <ele>48</ele>
        <time>2017-05-23T17:19:59Z</time>
      </trkpt>
      <trkpt lat="49.35969" lon="1.32966">
        <ele>48</ele>
        <time>2017-05-23T17:19:59Z</time>
      </trkpt>
      <trkpt lat="49.35971" lon="1.3297">
        <ele>48</ele>
        <time>2017-05-23T17:19:59Z</time>
      </trkpt>
      <trkpt lat="49.35973" lon="1.32975">
        <ele>48</ele>
        <time>2017-05-23T17:20:15Z</time>
      </trkpt>
      <trkpt lat="49.35975" lon="1.32982">
        <ele>48</ele>
        <time>2017-05-23T17:20:15Z</time>
      </trkpt>
      <trkpt lat="49.35977" lon="1.32986">
        <ele>48</ele>
        <time>2017-05-23T17:20:15Z</time>
      </trkpt>
      <trkpt lat="49.35982" lon="1.32991">
        <ele>48</ele>
        <time>2017-05-23T17:20:15Z</time>
      </trkpt>
      <trkpt lat="49.35985" lon="1.32996">
        <ele>48</ele>
        <time>2017-05-23T17:20:30Z</time>
      </trkpt>
      <trkpt lat="49.35989" lon="1.33001">
        <ele>48</ele>
        <time>2017-05-23T17:20:30Z</time>
      </trkpt>
      <trkpt lat="49.35994" lon="1.3301">
        <ele>48</ele>
        <time>2017-05-23T17:20:30Z</time>
      </trkpt>
      <trkpt lat="49.35997" lon="1.33014">
        <ele>48</ele>
        <time>2017-05-23T17:20:30Z</time>
      </trkpt>
      <trkpt lat="49.35998" lon="1.33015">
        <ele>48</ele>
        <time>2017-05-23T17:20:47Z</time>
      </trkpt>
      <trkpt lat="49.36006" lon="1.33025">
        <ele>48</ele>
        <time>2017-05-23T17:20:47Z</time>
      </trkpt>
      <trkpt lat="49.36009" lon="1.33031">
        <ele>48</ele>
        <time>2017-05-23T17:20:47Z</time>
      </trkpt>
      <trkpt lat="49.36013" lon="1.33037">
        <ele>48</ele>
        <time>2017-05-23T17:20:47Z</time>
      </trkpt>
      <trkpt lat="49.36017" lon="1.33043">
        <ele>46</ele>
        <time>2017-05-23T17:21:03Z</time>
      </trkpt>
      <trkpt lat="49.36018" lon="1.33047">
        <ele>46</ele>
        <time>2017-05-23T17:21:03Z</time>
      </trkpt>
      <trkpt lat="49.36021" lon="1.33052">
        <ele>46</ele>
        <time>2017-05-23T17:21:03Z</time>
      </trkpt>
      <trkpt lat="49.36022" lon="1.33056">
        <ele>46</ele>
        <time>2017-05-23T17:21:03Z</time>
      </trkpt>
      <trkpt lat="49.36023" lon="1.33058">
        <ele>46</ele>
        <time>2017-05-23T17:21:18Z</time>
      </trkpt>
      <trkpt lat="49.36028" lon="1.33069">
        <ele>46</ele>
        <time>2017-05-23T17:21:18Z</time>
      </trkpt>
      <trkpt lat="49.36032" lon="1.33073">
        <ele>46</ele>
        <time>2017-05-23T17:21:18Z</time>
      </trkpt>
      <trkpt lat="49.36035" lon="1.33078">
        <ele>46</ele>
        <time>2017-05-23T17:21:18Z</time>
      </trkpt>
      <trkpt lat="49.36039" lon="1.33083">
        <ele>46</ele>
        <time>2017-05-23T17:21:34Z</time>
      </trkpt>
      <trkpt lat="49.36042" lon="1.33087">
        <ele>51</ele>
        <time>2017-05-23T17:21:34Z</time>
      </trkpt>
      <trkpt lat="49.36046" lon="1.33091">
        <ele>51</ele>
        <time>2017-05-23T17:21:34Z</time>
      </trkpt>
      <trkpt lat="49.36048" lon="1.33094">
        <ele>51</ele>
        <time>2017-05-23T17:21:34Z</time>
      </trkpt>
      <trkpt lat="49.36054" lon="1.33103">
        <ele>51</ele>
        <time>2017-05-23T17:21:50Z</time>
      </trkpt>
      <trkpt lat="49.36058" lon="1.33108">
        <ele>51</ele>
        <time>2017-05-23T17:21:50Z</time>
      </trkpt>
      <trkpt lat="49.36062" lon="1.33114">
        <ele>51</ele>
        <time>2017-05-23T17:21:50Z</time>
      </trkpt>
      <trkpt lat="49.36063" lon="1.33118">
        <ele>51</ele>
        <time>2017-05-23T17:21:50Z</time>
      </trkpt>
      <trkpt lat="49.36066" lon="1.33123">
        <ele>51</ele>
        <time>2017-05-23T17:22:06Z</time>
      </trkpt>
      <trkpt lat="49.36068" lon="1.33126">
        <ele>49</ele>
        <time>2017-05-23T17:22:06Z</time>
      </trkpt>
      <trkpt lat="49.36072" lon="1.33132">
        <ele>49</ele>
        <time>2017-05-23T17:22:06Z</time>
      </trkpt>
      <trkpt lat="49.36077" lon="1.33138">
        <ele>49</ele>
        <time>2017-05-23T17:22:06Z</time>
      </trkpt>
      <trkpt lat="49.36086" lon="1.33151">
        <ele>49</ele>
        <time>2017-05-23T17:22:31Z</time>
      </trkpt>
      <trkpt lat="49.36097" lon="1.33159">
        <ele>49</ele>
        <time>2017-05-23T17:22:31Z</time>
      </trkpt>
      <trkpt lat="49.36101" lon="1.33164">
        <ele>49</ele>
        <time>2017-05-23T17:22:31Z</time>
      </trkpt>
      <trkpt lat="49.361" lon="1.33167">
        <ele>49</ele>
        <time>2017-05-23T17:22:31Z</time>
      </trkpt>
      <trkpt lat="49.36115" lon="1.33196">
        <ele>49</ele>
        <time>2017-05-23T17:23:04Z</time>
      </trkpt>
      <trkpt lat="49.36117" lon="1.33203">
        <ele>49</ele>
        <time>2017-05-23T17:23:04Z</time>
      </trkpt>
      <trkpt lat="49.36122" lon="1.33209">
        <ele>46</ele>
        <time>2017-05-23T17:23:04Z</time>
      </trkpt>
      <trkpt lat="49.36124" lon="1.33212">
        <ele>46</ele>
        <time>2017-05-23T17:23:04Z</time>
      </trkpt>
      <trkpt lat="49.36135" lon="1.3323">
        <ele>52</ele>
        <time>2017-05-23T17:23:27Z</time>
      </trkpt>
      <trkpt lat="49.36138" lon="1.33235">
        <ele>52</ele>
        <time>2017-05-23T17:23:27Z</time>
      </trkpt>
      <trkpt lat="49.36141" lon="1.33238">
        <ele>52</ele>
        <time>2017-05-23T17:23:27Z</time>
      </trkpt>
      <trkpt lat="49.36144" lon="1.33247">
        <ele>52</ele>
        <time>2017-05-23T17:23:27Z</time>
      </trkpt>
      <trkpt lat="49.36144" lon="1.33251">
        <ele>52</ele>
        <time>2017-05-23T17:23:42Z</time>
      </trkpt>
      <trkpt lat="49.36146" lon="1.33257">
        <ele>52</ele>
        <time>2017-05-23T17:23:42Z</time>
      </trkpt>
      <trkpt lat="49.36146" lon="1.33264">
        <ele>52</ele>
        <time>2017-05-23T17:23:42Z</time>
      </trkpt>
      <trkpt lat="49.36152" lon="1.33265">
        <ele>52</ele>
        <time>2017-05-23T17:23:42Z</time>
      </trkpt>
      <trkpt lat="49.36157" lon="1.33275">
        <ele>52</ele>
        <time>2017-05-23T17:23:59Z</time>
      </trkpt>
      <trkpt lat="49.36159" lon="1.33279">
        <ele>52</ele>
        <time>2017-05-23T17:23:59Z</time>
      </trkpt>
      <trkpt lat="49.36162" lon="1.33285">
        <ele>52</ele>
        <time>2017-05-23T17:23:59Z</time>
      </trkpt>
      <trkpt lat="49.36164" lon="1.33291">
        <ele>52</ele>
        <time>2017-05-23T17:23:59Z</time>
      </trkpt>
      <trkpt lat="49.36167" lon="1.33295">
        <ele>51</ele>
        <time>2017-05-23T17:24:14Z</time>
      </trkpt>
      <trkpt lat="49.3617" lon="1.33301">
        <ele>51</ele>
        <time>2017-05-23T17:24:15Z</time>
      </trkpt>
      <trkpt lat="49.36175" lon="1.3331">
        <ele>51</ele>
        <time>2017-05-23T17:24:15Z</time>
      </trkpt>
      <trkpt lat="49.36177" lon="1.33315">
        <ele>51</ele>
        <time>2017-05-23T17:24:15Z</time>
      </trkpt>
      <trkpt lat="49.36192" lon="1.33335">
        <ele>51</ele>
        <time>2017-05-23T17:24:47Z</time>
      </trkpt>
      <trkpt lat="49.36195" lon="1.33338">
        <ele>51</ele>
        <time>2017-05-23T17:24:47Z</time>
      </trkpt>
      <trkpt lat="49.36198" lon="1.33341">
        <ele>51</ele>
        <time>2017-05-23T17:24:47Z</time>
      </trkpt>
      <trkpt lat="49.36203" lon="1.33345">
        <ele>51</ele>
        <time>2017-05-23T17:24:47Z</time>
      </trkpt>
      <trkpt lat="49.36206" lon="1.33347">
        <ele>51</ele>
        <time>2017-05-23T17:25:02Z</time>
      </trkpt>
      <trkpt lat="49.3621" lon="1.33351">
        <ele>63</ele>
        <time>2017-05-23T17:25:02Z</time>
      </trkpt>
      <trkpt lat="49.36213" lon="1.33353">
        <ele>63</ele>
        <time>2017-05-23T17:25:02Z</time>
      </trkpt>
      <trkpt lat="49.36217" lon="1.33356">
        <ele>63</ele>
        <time>2017-05-23T17:25:02Z</time>
      </trkpt>
      <trkpt lat="49.36219" lon="1.33357">
        <ele>63</ele>
        <time>2017-05-23T17:25:18Z</time>
      </trkpt>
      <trkpt lat="49.36224" lon="1.3336">
        <ele>63</ele>
        <time>2017-05-23T17:25:18Z</time>
      </trkpt>
      <trkpt lat="49.36227" lon="1.33363">
        <ele>63</ele>
        <time>2017-05-23T17:25:18Z</time>
      </trkpt>
      <trkpt lat="49.36232" lon="1.33366">
        <ele>63</ele>
        <time>2017-05-23T17:25:18Z</time>
      </trkpt>
      <trkpt lat="49.36236" lon="1.33369">
        <ele>63</ele>
        <time>2017-05-23T17:25:35Z</time>
      </trkpt>
      <trkpt lat="49.3624" lon="1.33372">
        <ele>63</ele>
        <time>2017-05-23T17:25:35Z</time>
      </trkpt>
      <trkpt lat="49.3624" lon="1.33374">
        <ele>63</ele>
        <time>2017-05-23T17:25:35Z</time>
      </trkpt>
      <trkpt lat="49.36246" lon="1.33382">
        <ele>61</ele>
        <time>2017-05-23T17:25:35Z</time>
      </trkpt>
      <trkpt lat="49.3626" lon="1.33388">
        <ele>61</ele>
        <time>2017-05-23T17:26:03Z</time>
      </trkpt>
      <trkpt lat="49.36264" lon="1.33392">
        <ele>61</ele>
        <time>2017-05-23T17:26:04Z</time>
      </trkpt>
      <trkpt lat="49.36265" lon="1.33393">
        <ele>61</ele>
        <time>2017-05-23T17:26:04Z</time>
      </trkpt>
      <trkpt lat="49.3627" lon="1.33396">
        <ele>61</ele>
        <time>2017-05-23T17:26:04Z</time>
      </trkpt>
      <trkpt lat="49.36273" lon="1.33398">
        <ele>61</ele>
        <time>2017-05-23T17:26:18Z</time>
      </trkpt>
      <trkpt lat="49.36277" lon="1.33402">
        <ele>61</ele>
        <time>2017-05-23T17:26:18Z</time>
      </trkpt>
      <trkpt lat="49.36281" lon="1.33405">
        <ele>61</ele>
        <time>2017-05-23T17:26:18Z</time>
      </trkpt>
      <trkpt lat="49.36285" lon="1.33408">
        <ele>61</ele>
        <time>2017-05-23T17:26:18Z</time>
      </trkpt>
      <trkpt lat="49.36287" lon="1.33419">
        <ele>61</ele>
        <time>2017-05-23T17:27:22Z</time>
      </trkpt>
      <trkpt lat="49.36286" lon="1.3342">
        <ele>61</ele>
        <time>2017-05-23T17:27:22Z</time>
      </trkpt>
      <trkpt lat="49.36286" lon="1.3342">
        <ele>61</ele>
        <time>2017-05-23T17:27:22Z</time>
      </trkpt>
      <trkpt lat="49.36284" lon="1.33423">
        <ele>61</ele>
        <time>2017-05-23T17:27:22Z</time>
      </trkpt>
      <trkpt lat="49.3628" lon="1.33424">
        <ele>61</ele>
        <time>2017-05-23T17:27:22Z</time>
      </trkpt>
      <trkpt lat="49.36278" lon="1.33425">
        <ele>61</ele>
        <time>2017-05-23T17:27:42Z</time>
      </trkpt>
      <trkpt lat="49.36277" lon="1.33426">
        <ele>61</ele>
        <time>2017-05-23T17:27:44Z</time>
      </trkpt>
      <trkpt lat="49.36274" lon="1.33427">
        <ele>61</ele>
        <time>2017-05-23T17:27:44Z</time>
      </trkpt>
      <trkpt lat="49.36271" lon="1.3343">
        <ele>61</ele>
        <time>2017-05-23T17:27:44Z</time>
      </trkpt>
      <trkpt lat="49.36269" lon="1.33432">
        <ele>61</ele>
        <time>2017-05-23T17:27:44Z</time>
      </trkpt>
      <trkpt lat="49.36265" lon="1.33436">
        <ele>61</ele>
        <time>2017-05-23T17:27:58Z</time>
      </trkpt>
      <trkpt lat="49.36258" lon="1.3344">
        <ele>61</ele>
        <time>2017-05-23T17:27:58Z</time>
      </trkpt>
      <trkpt lat="49.36255" lon="1.33444">
        <ele>61</ele>
        <time>2017-05-23T17:27:58Z</time>
      </trkpt>
      <trkpt lat="49.36252" lon="1.33447">
        <ele>61</ele>
        <time>2017-05-23T17:27:58Z</time>
      </trkpt>
      <trkpt lat="49.36246" lon="1.33449">
        <ele>61</ele>
        <time>2017-05-23T17:28:14Z</time>
      </trkpt>
      <trkpt lat="49.36242" lon="1.33452">
        <ele>61</ele>
        <time>2017-05-23T17:28:14Z</time>
      </trkpt>
      <trkpt lat="49.3624" lon="1.33453">
        <ele>61</ele>
        <time>2017-05-23T17:28:14Z</time>
      </trkpt>
      <trkpt lat="49.36235" lon="1.33457">
        <ele>61</ele>
        <time>2017-05-23T17:28:14Z</time>
      </trkpt>
      <trkpt lat="49.36232" lon="1.3346">
        <ele>58</ele>
        <time>2017-05-23T17:28:31Z</time>
      </trkpt>
      <trkpt lat="49.3623" lon="1.33461">
        <ele>58</ele>
        <time>2017-05-23T17:28:31Z</time>
      </trkpt>
      <trkpt lat="49.36224" lon="1.33465">
        <ele>58</ele>
        <time>2017-05-23T17:28:31Z</time>
      </trkpt>
      <trkpt lat="49.36219" lon="1.3347">
        <ele>58</ele>
        <time>2017-05-23T17:28:31Z</time>
      </trkpt>
      <trkpt lat="49.36216" lon="1.33472">
        <ele>58</ele>
        <time>2017-05-23T17:28:46Z</time>
      </trkpt>
      <trkpt lat="49.36214" lon="1.33473">
        <ele>58</ele>
        <time>2017-05-23T17:28:46Z</time>
      </trkpt>
      <trkpt lat="49.36208" lon="1.33476">
        <ele>50</ele>
        <time>2017-05-23T17:28:46Z</time>
      </trkpt>
      <trkpt lat="49.36201" lon="1.33482">
        <ele>50</ele>
        <time>2017-05-23T17:28:46Z</time>
      </trkpt>
      <trkpt lat="49.36197" lon="1.33485">
        <ele>50</ele>
        <time>2017-05-23T17:29:02Z</time>
      </trkpt>
      <trkpt lat="49.36193" lon="1.33487">
        <ele>50</ele>
        <time>2017-05-23T17:29:02Z</time>
      </trkpt>
      <trkpt lat="49.3619" lon="1.33489">
        <ele>50</ele>
        <time>2017-05-23T17:29:02Z</time>
      </trkpt>
      <trkpt lat="49.36187" lon="1.33492">
        <ele>50</ele>
        <time>2017-05-23T17:29:02Z</time>
      </trkpt>
      <trkpt lat="49.36161" lon="1.33505">
        <ele>50</ele>
        <time>2017-05-23T17:29:43Z</time>
      </trkpt>
      <trkpt lat="49.36157" lon="1.33506">
        <ele>50</ele>
        <time>2017-05-23T17:29:43Z</time>
      </trkpt>
      <trkpt lat="49.36152" lon="1.33508">
        <ele>50</ele>
        <time>2017-05-23T17:29:43Z</time>
      </trkpt>
      <trkpt lat="49.3615" lon="1.33511">
        <ele>50</ele>
        <time>2017-05-23T17:29:43Z</time>
      </trkpt>
      <trkpt lat="49.36145" lon="1.33513">
        <ele>50</ele>
        <time>2017-05-23T17:29:43Z</time>
      </trkpt>
      <trkpt lat="49.36142" lon="1.33513">
        <ele>50</ele>
        <time>2017-05-23T17:29:58Z</time>
      </trkpt>
      <trkpt lat="49.36137" lon="1.3351">
        <ele>50</ele>
        <time>2017-05-23T17:29:58Z</time>
      </trkpt>
      <trkpt lat="49.36132" lon="1.3351">
        <ele>50</ele>
        <time>2017-05-23T17:29:58Z</time>
      </trkpt>
      <trkpt lat="49.36129" lon="1.33509">
        <ele>50</ele>
        <time>2017-05-23T17:29:58Z</time>
      </trkpt>
      <trkpt lat="49.36123" lon="1.33512">
        <ele>42</ele>
        <time>2017-05-23T17:30:14Z</time>
      </trkpt>
      <trkpt lat="49.36116" lon="1.33514">
        <ele>42</ele>
        <time>2017-05-23T17:30:14Z</time>
      </trkpt>
      <trkpt lat="49.36112" lon="1.33515">
        <ele>42</ele>
        <time>2017-05-23T17:30:14Z</time>
      </trkpt>
      <trkpt lat="49.36109" lon="1.33517">
        <ele>42</ele>
        <time>2017-05-23T17:30:14Z</time>
      </trkpt>
      <trkpt lat="49.36105" lon="1.3352">
        <ele>42</ele>
        <time>2017-05-23T17:30:31Z</time>
      </trkpt>
      <trkpt lat="49.361" lon="1.33521">
        <ele>42</ele>
        <time>2017-05-23T17:30:31Z</time>
      </trkpt>
      <trkpt lat="49.36096" lon="1.33524">
        <ele>42</ele>
        <time>2017-05-23T17:30:31Z</time>
      </trkpt>
      <trkpt lat="49.3609" lon="1.33527">
        <ele>42</ele>
        <time>2017-05-23T17:30:31Z</time>
      </trkpt>
      <trkpt lat="49.36087" lon="1.33529">
        <ele>42</ele>
        <time>2017-05-23T17:30:50Z</time>
      </trkpt>
      <trkpt lat="49.36084" lon="1.33531">
        <ele>42</ele>
        <time>2017-05-23T17:30:50Z</time>
      </trkpt>
      <trkpt lat="49.36083" lon="1.33532">
        <ele>42</ele>
        <time>2017-05-23T17:30:50Z</time>
      </trkpt>
      <trkpt lat="49.3608" lon="1.33534">
        <ele>42</ele>
        <time>2017-05-23T17:30:50Z</time>
      </trkpt>
      <trkpt lat="49.36077" lon="1.33535">
        <ele>42</ele>
        <time>2017-05-23T17:30:50Z</time>
      </trkpt>
      <trkpt lat="49.36072" lon="1.33537">
        <ele>42</ele>
        <time>2017-05-23T17:31:07Z</time>
      </trkpt>
      <trkpt lat="49.36069" lon="1.33537">
        <ele>42</ele>
        <time>2017-05-23T17:31:07Z</time>
      </trkpt>
      <trkpt lat="49.36062" lon="1.33539">
        <ele>42</ele>
        <time>2017-05-23T17:31:07Z</time>
      </trkpt>
      <trkpt lat="49.36058" lon="1.3354">
        <ele>42</ele>
        <time>2017-05-23T17:31:07Z</time>
      </trkpt>
      <trkpt lat="49.36037" lon="1.33545">
        <ele>31</ele>
        <time>2017-05-23T17:31:38Z</time>
      </trkpt>
      <trkpt lat="49.36034" lon="1.33546">
        <ele>31</ele>
        <time>2017-05-23T17:31:38Z</time>
      </trkpt>
      <trkpt lat="49.36031" lon="1.33547">
        <ele>31</ele>
        <time>2017-05-23T17:31:38Z</time>
      </trkpt>
      <trkpt lat="49.36026" lon="1.33547">
        <ele>31</ele>
        <time>2017-05-23T17:31:38Z</time>
      </trkpt>
      <trkpt lat="49.36018" lon="1.33558">
        <ele>31</ele>
        <time>2017-05-23T17:31:58Z</time>
      </trkpt>
      <trkpt lat="49.36011" lon="1.33562">
        <ele>31</ele>
        <time>2017-05-23T17:31:58Z</time>
      </trkpt>
      <trkpt lat="49.3601" lon="1.33562">
        <ele>31</ele>
        <time>2017-05-23T17:31:58Z</time>
      </trkpt>
      <trkpt lat="49.36007" lon="1.33563">
        <ele>31</ele>
        <time>2017-05-23T17:31:58Z</time>
      </trkpt>
      <trkpt lat="49.35998" lon="1.33567">
        <ele>31</ele>
        <time>2017-05-23T17:32:23Z</time>
      </trkpt>
      <trkpt lat="49.35998" lon="1.33569">
        <ele>31</ele>
        <time>2017-05-23T17:32:23Z</time>
      </trkpt>
      <trkpt lat="49.35996" lon="1.3357">
        <ele>31</ele>
        <time>2017-05-23T17:32:23Z</time>
      </trkpt>
      <trkpt lat="49.35993" lon="1.33574">
        <ele>31</ele>
        <time>2017-05-23T17:32:23Z</time>
      </trkpt>
      <trkpt lat="49.3599" lon="1.33575">
        <ele>31</ele>
        <time>2017-05-23T17:32:23Z</time>
      </trkpt>
      <trkpt lat="49.35988" lon="1.33578">
        <ele>31</ele>
        <time>2017-05-23T17:32:39Z</time>
      </trkpt>
      <trkpt lat="49.35987" lon="1.3358">
        <ele>31</ele>
        <time>2017-05-23T17:32:39Z</time>
      </trkpt>
      <trkpt lat="49.3598" lon="1.33582">
        <ele>31</ele>
        <time>2017-05-23T17:32:39Z</time>
      </trkpt>
      <trkpt lat="49.35974" lon="1.33586">
        <ele>31</ele>
        <time>2017-05-23T17:32:39Z</time>
      </trkpt>
      <trkpt lat="49.35968" lon="1.33592">
        <ele>31</ele>
        <time>2017-05-23T17:32:54Z</time>
      </trkpt>
      <trkpt lat="49.35965" lon="1.33598">
        <ele>31</ele>
        <time>2017-05-23T17:32:54Z</time>
      </trkpt>
      <trkpt lat="49.35962" lon="1.33605">
        <ele>31</ele>
        <time>2017-05-23T17:32:54Z</time>
      </trkpt>
      <trkpt lat="49.35961" lon="1.33607">
        <ele>31</ele>
        <time>2017-05-23T17:32:54Z</time>
      </trkpt>
      <trkpt lat="49.3596" lon="1.33618">
        <ele>31</ele>
        <time>2017-05-23T17:33:10Z</time>
      </trkpt>
      <trkpt lat="49.35959" lon="1.33626">
        <ele>31</ele>
        <time>2017-05-23T17:33:10Z</time>
      </trkpt>
      <trkpt lat="49.35958" lon="1.33631">
        <ele>28</ele>
        <time>2017-05-23T17:33:10Z</time>
      </trkpt>
      <trkpt lat="49.35956" lon="1.33637">
        <ele>28</ele>
        <time>2017-05-23T17:33:10Z</time>
      </trkpt>
      <trkpt lat="49.35954" lon="1.33646">
        <ele>28</ele>
        <time>2017-05-23T17:33:27Z</time>
      </trkpt>
      <trkpt lat="49.35951" lon="1.33657">
        <ele>28</ele>
        <time>2017-05-23T17:33:27Z</time>
      </trkpt>
      <trkpt lat="49.3595" lon="1.3366">
        <ele>28</ele>
        <time>2017-05-23T17:33:27Z</time>
      </trkpt>
      <trkpt lat="49.35949" lon="1.33667">
        <ele>28</ele>
        <time>2017-05-23T17:33:27Z</time>
      </trkpt>
      <trkpt lat="49.35948" lon="1.33674">
        <ele>28</ele>
        <time>2017-05-23T17:33:42Z</time>
      </trkpt>
      <trkpt lat="49.35948" lon="1.33677">
        <ele>28</ele>
        <time>2017-05-23T17:33:42Z</time>
      </trkpt>
      <trkpt lat="49.35946" lon="1.33686">
        <ele>28</ele>
        <time>2017-05-23T17:33:42Z</time>
      </trkpt>
      <trkpt lat="49.35946" lon="1.3369">
        <ele>28</ele>
        <time>2017-05-23T17:33:42Z</time>
      </trkpt>
      <trkpt lat="49.35937" lon="1.3369">
        <ele>28</ele>
        <time>2017-05-23T17:34:51Z</time>
      </trkpt>
      <trkpt lat="49.35937" lon="1.3369">
        <ele>28</ele>
        <time>2017-05-23T17:34:51Z</time>
      </trkpt>
      <trkpt lat="49.35937" lon="1.3369">
        <ele>28</ele>
        <time>2017-05-23T17:34:51Z</time>
      </trkpt>
      <trkpt lat="49.35938" lon="1.33686">
        <ele>28</ele>
        <time>2017-05-23T17:34:51Z</time>
      </trkpt>
      <trkpt lat="49.35935" lon="1.33688">
        <ele>28</ele>
        <time>2017-05-23T17:34:51Z</time>
      </trkpt>
      <trkpt lat="49.35934" lon="1.33684">
        <ele>28</ele>
        <time>2017-05-23T17:35:22Z</time>
      </trkpt>
      <trkpt lat="49.35932" lon="1.33683">
        <ele>28</ele>
        <time>2017-05-23T17:35:22Z</time>
      </trkpt>
      <trkpt lat="49.3593" lon="1.33677">
        <ele>28</ele>
        <time>2017-05-23T17:35:22Z</time>
      </trkpt>
      <trkpt lat="49.35927" lon="1.33673">
        <ele>28</ele>
        <time>2017-05-23T17:35:22Z</time>
      </trkpt>
      <trkpt lat="49.35928" lon="1.33666">
        <ele>28</ele>
        <time>2017-05-23T17:35:22Z</time>
      </trkpt>
      <trkpt lat="49.3593" lon="1.33661">
        <ele>28</ele>
        <time>2017-05-23T17:35:39Z</time>
      </trkpt>
      <trkpt lat="49.35924" lon="1.33659">
        <ele>28</ele>
        <time>2017-05-23T17:35:39Z</time>
      </trkpt>
      <trkpt lat="49.35921" lon="1.33652">
        <ele>28</ele>
        <time>2017-05-23T17:35:39Z</time>
      </trkpt>
      <trkpt lat="49.35921" lon="1.33651">
        <ele>28</ele>
        <time>2017-05-23T17:35:39Z</time>
      </trkpt>
      <trkpt lat="49.3592" lon="1.33653">
        <ele>28</ele>
        <time>2017-05-23T17:35:54Z</time>
      </trkpt>
      <trkpt lat="49.35918" lon="1.33648">
        <ele>28</ele>
        <time>2017-05-23T17:35:54Z</time>
      </trkpt>
      <trkpt lat="49.35917" lon="1.33644">
        <ele>28</ele>
        <time>2017-05-23T17:35:54Z</time>
      </trkpt>
      <trkpt lat="49.35916" lon="1.33637">
        <ele>28</ele>
        <time>2017-05-23T17:35:54Z</time>
      </trkpt>
      <trkpt lat="49.35913" lon="1.33631">
        <ele>28</ele>
        <time>2017-05-23T17:36:11Z</time>
      </trkpt>
      <trkpt lat="49.35911" lon="1.33624">
        <ele>27</ele>
        <time>2017-05-23T17:36:11Z</time>
      </trkpt>
      <trkpt lat="49.35908" lon="1.33619">
        <ele>27</ele>
        <time>2017-05-23T17:36:11Z</time>
      </trkpt>
      <trkpt lat="49.35904" lon="1.33612">
        <ele>27</ele>
        <time>2017-05-23T17:36:11Z</time>
      </trkpt>
      <trkpt lat="49.35901" lon="1.33605">
        <ele>27</ele>
        <time>2017-05-23T17:36:26Z</time>
      </trkpt>
      <trkpt lat="49.35898" lon="1.33598">
        <ele>27</ele>
        <time>2017-05-23T17:36:26Z</time>
      </trkpt>
      <trkpt lat="49.35897" lon="1.33593">
        <ele>27</ele>
        <time>2017-05-23T17:36:26Z</time>
      </trkpt>
      <trkpt lat="49.35897" lon="1.33591">
        <ele>27</ele>
        <time>2017-05-23T17:36:26Z</time>
      </trkpt>
      <trkpt lat="49.35894" lon="1.33583">
        <ele>27</ele>
        <time>2017-05-23T17:36:42Z</time>
      </trkpt>
      <trkpt lat="49.35892" lon="1.33577">
        <ele>27</ele>
        <time>2017-05-23T17:36:42Z</time>
      </trkpt>
      <trkpt lat="49.3589" lon="1.33572">
        <ele>27</ele>
        <time>2017-05-23T17:36:42Z</time>
      </trkpt>
      <trkpt lat="49.35889" lon="1.33568">
        <ele>27</ele>
        <time>2017-05-23T17:36:42Z</time>
      </trkpt>
      <trkpt lat="49.35886" lon="1.33558">
        <ele>27</ele>
        <time>2017-05-23T17:36:58Z</time>
      </trkpt>
      <trkpt lat="49.35884" lon="1.33551">
        <ele>27</ele>
        <time>2017-05-23T17:36:58Z</time>
      </trkpt>
      <trkpt lat="49.35881" lon="1.33544">
        <ele>27</ele>
        <time>2017-05-23T17:36:58Z</time>
      </trkpt>
      <trkpt lat="49.35878" lon="1.33537">
        <ele>25</ele>
        <time>2017-05-23T17:36:58Z</time>
      </trkpt>
      <trkpt lat="49.35875" lon="1.3353">
        <ele>25</ele>
        <time>2017-05-23T17:37:15Z</time>
      </trkpt>
      <trkpt lat="49.35874" lon="1.33525">
        <ele>24</ele>
        <time>2017-05-23T17:37:15Z</time>
      </trkpt>
      <trkpt lat="49.3587" lon="1.33519">
        <ele>24</ele>
        <time>2017-05-23T17:37:15Z</time>
      </trkpt>
      <trkpt lat="49.35865" lon="1.33512">
        <ele>24</ele>
        <time>2017-05-23T17:37:15Z</time>
      </trkpt>
      <trkpt lat="49.35858" lon="1.33502">
        <ele>24</ele>
        <time>2017-05-23T17:37:35Z</time>
      </trkpt>
      <trkpt lat="49.35852" lon="1.33492">
        <ele>24</ele>
        <time>2017-05-23T17:37:35Z</time>
      </trkpt>
      <trkpt lat="49.3585" lon="1.33489">
        <ele>24</ele>
        <time>2017-05-23T17:37:35Z</time>
      </trkpt>
      <trkpt lat="49.35849" lon="1.33482">
        <ele>24</ele>
        <time>2017-05-23T17:37:35Z</time>
      </trkpt>
      <trkpt lat="49.35847" lon="1.3348">
        <ele>24</ele>
        <time>2017-05-23T17:37:50Z</time>
      </trkpt>
      <trkpt lat="49.35844" lon="1.33476">
        <ele>24</ele>
        <time>2017-05-23T17:37:50Z</time>
      </trkpt>
      <trkpt lat="49.35842" lon="1.33471">
        <ele>24</ele>
        <time>2017-05-23T17:37:50Z</time>
      </trkpt>
      <trkpt lat="49.35838" lon="1.33464">
        <ele>24</ele>
        <time>2017-05-23T17:37:50Z</time>
      </trkpt>
      <trkpt lat="49.35835" lon="1.33456">
        <ele>23</ele>
        <time>2017-05-23T17:38:06Z</time>
      </trkpt>
      <trkpt lat="49.3583" lon="1.3345">
        <ele>23</ele>
        <time>2017-05-23T17:38:06Z</time>
      </trkpt>
      <trkpt lat="49.35824" lon="1.33443">
        <ele>23</ele>
        <time>2017-05-23T17:38:06Z</time>
      </trkpt>
      <trkpt lat="49.35822" lon="1.33435">
        <ele>23</ele>
        <time>2017-05-23T17:38:06Z</time>
      </trkpt>
      <trkpt lat="49.35824" lon="1.33429">
        <ele>23</ele>
        <time>2017-05-23T17:38:22Z</time>
      </trkpt>
      <trkpt lat="49.35817" lon="1.33423">
        <ele>23</ele>
        <time>2017-05-23T17:38:22Z</time>
      </trkpt>
      <trkpt lat="49.35811" lon="1.33415">
        <ele>23</ele>
        <time>2017-05-23T17:38:22Z</time>
      </trkpt>
      <trkpt lat="49.35808" lon="1.33409">
        <ele>23</ele>
        <time>2017-05-23T17:38:22Z</time>
      </trkpt>
      <trkpt lat="49.35808" lon="1.33403">
        <ele>23</ele>
        <time>2017-05-23T17:38:39Z</time>
      </trkpt>
      <trkpt lat="49.35808" lon="1.33401">
        <ele>23</ele>
        <time>2017-05-23T17:38:39Z</time>
      </trkpt>
      <trkpt lat="49.35805" lon="1.33392">
        <ele>23</ele>
        <time>2017-05-23T17:38:39Z</time>
      </trkpt>
      <trkpt lat="49.358" lon="1.33384">
        <ele>23</ele>
        <time>2017-05-23T17:38:39Z</time>
      </trkpt>
      <trkpt lat="49.35797" lon="1.33378">
        <ele>23</ele>
        <time>2017-05-23T17:38:54Z</time>
      </trkpt>
      <trkpt lat="49.35793" lon="1.33371">
        <ele>24</ele>
        <time>2017-05-23T17:38:54Z</time>
      </trkpt>
      <trkpt lat="49.35789" lon="1.33363">
        <ele>23</ele>
        <time>2017-05-23T17:38:54Z</time>
      </trkpt>
      <trkpt lat="49.35789" lon="1.33358">
        <ele>23</ele>
        <time>2017-05-23T17:38:54Z</time>
      </trkpt>
      <trkpt lat="49.35789" lon="1.33346">
        <ele>23</ele>
        <time>2017-05-23T17:39:22Z</time>
      </trkpt>
      <trkpt lat="49.35784" lon="1.33342">
        <ele>23</ele>
        <time>2017-05-23T17:39:22Z</time>
      </trkpt>
      <trkpt lat="49.35781" lon="1.33335">
        <ele>23</ele>
        <time>2017-05-23T17:39:22Z</time>
      </trkpt>
      <trkpt lat="49.3578" lon="1.33331">
        <ele>23</ele>
        <time>2017-05-23T17:39:22Z</time>
      </trkpt>
      <trkpt lat="49.35778" lon="1.33317">
        <ele>23</ele>
        <time>2017-05-23T17:39:22Z</time>
      </trkpt>
      <trkpt lat="49.35774" lon="1.33315">
        <ele>23</ele>
        <time>2017-05-23T17:39:38Z</time>
      </trkpt>
      <trkpt lat="49.3577" lon="1.33308">
        <ele>23</ele>
        <time>2017-05-23T17:39:39Z</time>
      </trkpt>
      <trkpt lat="49.35766" lon="1.333">
        <ele>23</ele>
        <time>2017-05-23T17:39:39Z</time>
      </trkpt>
      <trkpt lat="49.35765" lon="1.33294">
        <ele>23</ele>
        <time>2017-05-23T17:39:39Z</time>
      </trkpt>
      <trkpt lat="49.35762" lon="1.3329">
        <ele>24</ele>
        <time>2017-05-23T17:39:54Z</time>
      </trkpt>
      <trkpt lat="49.35756" lon="1.33286">
        <ele>24</ele>
        <time>2017-05-23T17:39:54Z</time>
      </trkpt>
      <trkpt lat="49.35752" lon="1.33282">
        <ele>24</ele>
        <time>2017-05-23T17:39:54Z</time>
      </trkpt>
      <trkpt lat="49.35752" lon="1.3328">
        <ele>24</ele>
        <time>2017-05-23T17:39:54Z</time>
      </trkpt>
      <trkpt lat="49.35751" lon="1.33272">
        <ele>24</ele>
        <time>2017-05-23T17:40:11Z</time>
      </trkpt>
      <trkpt lat="49.3575" lon="1.33266">
        <ele>24</ele>
        <time>2017-05-23T17:40:12Z</time>
      </trkpt>
      <trkpt lat="49.35747" lon="1.33259">
        <ele>24</ele>
        <time>2017-05-23T17:40:12Z</time>
      </trkpt>
      <trkpt lat="49.35743" lon="1.33254">
        <ele>24</ele>
        <time>2017-05-23T17:40:12Z</time>
      </trkpt>
      <trkpt lat="49.35743" lon="1.33252">
        <ele>24</ele>
        <time>2017-05-23T17:40:26Z</time>
      </trkpt>
      <trkpt lat="49.3574" lon="1.33247">
        <ele>24</ele>
        <time>2017-05-23T17:40:26Z</time>
      </trkpt>
      <trkpt lat="49.3574" lon="1.33243">
        <ele>24</ele>
        <time>2017-05-23T17:40:26Z</time>
      </trkpt>
      <trkpt lat="49.35737" lon="1.33239">
        <ele>24</ele>
        <time>2017-05-23T17:40:26Z</time>
      </trkpt>
      <trkpt lat="49.35723" lon="1.33209">
        <ele>24</ele>
        <time>2017-05-23T17:40:50Z</time>
      </trkpt>
      <trkpt lat="49.35718" lon="1.33202">
        <ele>23</ele>
        <time>2017-05-23T17:40:50Z</time>
      </trkpt>
      <trkpt lat="49.35716" lon="1.33196">
        <ele>23</ele>
        <time>2017-05-23T17:40:50Z</time>
      </trkpt>
      <trkpt lat="49.35716" lon="1.33195">
        <ele>23</ele>
        <time>2017-05-23T17:40:50Z</time>
      </trkpt>
      <trkpt lat="49.35712" lon="1.3319">
        <ele>23</ele>
        <time>2017-05-23T17:41:07Z</time>
      </trkpt>
      <trkpt lat="49.35709" lon="1.33184">
        <ele>23</ele>
        <time>2017-05-23T17:41:07Z</time>
      </trkpt>
      <trkpt lat="49.35707" lon="1.3318">
        <ele>23</ele>
        <time>2017-05-23T17:41:07Z</time>
      </trkpt>
      <trkpt lat="49.35705" lon="1.33175">
        <ele>23</ele>
        <time>2017-05-23T17:41:07Z</time>
      </trkpt>
      <trkpt lat="49.35703" lon="1.33172">
        <ele>23</ele>
        <time>2017-05-23T17:41:24Z</time>
      </trkpt>
      <trkpt lat="49.35701" lon="1.33165">
        <ele>23</ele>
        <time>2017-05-23T17:41:24Z</time>
      </trkpt>
      <trkpt lat="49.35699" lon="1.33162">
        <ele>23</ele>
        <time>2017-05-23T17:41:24Z</time>
      </trkpt>
      <trkpt lat="49.35694" lon="1.33149">
        <ele>23</ele>
        <time>2017-05-23T17:41:24Z</time>
      </trkpt>
      <trkpt lat="49.35693" lon="1.33144">
        <ele>23</ele>
        <time>2017-05-23T17:41:38Z</time>
      </trkpt>
      <trkpt lat="49.35692" lon="1.33139">
        <ele>23</ele>
        <time>2017-05-23T17:41:38Z</time>
      </trkpt>
      <trkpt lat="49.35685" lon="1.33123">
        <ele>24</ele>
        <time>2017-05-23T17:41:38Z</time>
      </trkpt>
      <trkpt lat="49.35685" lon="1.3312">
        <ele>24</ele>
        <time>2017-05-23T17:41:38Z</time>
      </trkpt>
      <trkpt lat="49.35676" lon="1.33099">
        <ele>24</ele>
        <time>2017-05-23T17:42:02Z</time>
      </trkpt>
      <trkpt lat="49.35672" lon="1.33096">
        <ele>24</ele>
        <time>2017-05-23T17:42:02Z</time>
      </trkpt>
      <trkpt lat="49.35671" lon="1.3309">
        <ele>24</ele>
        <time>2017-05-23T17:42:02Z</time>
      </trkpt>
      <trkpt lat="49.35666" lon="1.33084">
        <ele>24</ele>
        <time>2017-05-23T17:42:02Z</time>
      </trkpt>
      <trkpt lat="49.35664" lon="1.33078">
        <ele>24</ele>
        <time>2017-05-23T17:42:18Z</time>
      </trkpt>
      <trkpt lat="49.35661" lon="1.33073">
        <ele>24</ele>
        <time>2017-05-23T17:42:18Z</time>
      </trkpt>
      <trkpt lat="49.35657" lon="1.33069">
        <ele>24</ele>
        <time>2017-05-23T17:42:18Z</time>
      </trkpt>
      <trkpt lat="49.35656" lon="1.33065">
        <ele>24</ele>
        <time>2017-05-23T17:42:18Z</time>
      </trkpt>
      <trkpt lat="49.35653" lon="1.33061">
        <ele>24</ele>
        <time>2017-05-23T17:42:34Z</time>
      </trkpt>
      <trkpt lat="49.3565" lon="1.33055">
        <ele>24</ele>
        <time>2017-05-23T17:42:34Z</time>
      </trkpt>
      <trkpt lat="49.35649" lon="1.33048">
        <ele>24</ele>
        <time>2017-05-23T17:42:34Z</time>
      </trkpt>
      <trkpt lat="49.35648" lon="1.33043">
        <ele>24</ele>
        <time>2017-05-23T17:42:34Z</time>
      </trkpt>
      <trkpt lat="49.35644" lon="1.33034">
        <ele>23</ele>
        <time>2017-05-23T17:42:51Z</time>
      </trkpt>
      <trkpt lat="49.35644" lon="1.33029">
        <ele>23</ele>
        <time>2017-05-23T17:42:51Z</time>
      </trkpt>
      <trkpt lat="49.35643" lon="1.3302">
        <ele>23</ele>
        <time>2017-05-23T17:42:51Z</time>
      </trkpt>
      <trkpt lat="49.35641" lon="1.33016">
        <ele>23</ele>
        <time>2017-05-23T17:42:51Z</time>
      </trkpt>
      <trkpt lat="49.35639" lon="1.3301">
        <ele>23</ele>
        <time>2017-05-23T17:43:38Z</time>
      </trkpt>
      <trkpt lat="49.35637" lon="1.33006">
        <ele>23</ele>
        <time>2017-05-23T17:43:38Z</time>
      </trkpt>
      <trkpt lat="49.35636" lon="1.33004">
        <ele>23</ele>
        <time>2017-05-23T17:43:39Z</time>
      </trkpt>
      <trkpt lat="49.35636" lon="1.33003">
        <ele>23</ele>
        <time>2017-05-23T17:43:39Z</time>
      </trkpt>
      <trkpt lat="49.35635" lon="1.33">
        <ele>23</ele>
        <time>2017-05-23T17:43:39Z</time>
      </trkpt>
      <trkpt lat="49.35635" lon="1.33">
        <ele>23</ele>
        <time>2017-05-23T17:43:59Z</time>
      </trkpt>
      <trkpt lat="49.35635" lon="1.33">
        <ele>23</ele>
        <time>2017-05-23T17:43:59Z</time>
      </trkpt>
      <trkpt lat="49.35632" lon="1.32997">
        <ele>23</ele>
        <time>2017-05-23T17:43:59Z</time>
      </trkpt>
      <trkpt lat="49.35627" lon="1.32996">
        <ele>23</ele>
        <time>2017-05-23T17:43:59Z</time>
      </trkpt>
      <trkpt lat="49.35624" lon="1.32991">
        <ele>23</ele>
        <time>2017-05-23T17:43:59Z</time>
      </trkpt>
      <trkpt lat="49.35619" lon="1.32979">
        <ele>23</ele>
        <time>2017-05-23T17:44:18Z</time>
      </trkpt>
      <trkpt lat="49.35616" lon="1.3297">
        <ele>23</ele>
        <time>2017-05-23T17:44:18Z</time>
      </trkpt>
      <trkpt lat="49.35612" lon="1.32962">
        <ele>23</ele>
        <time>2017-05-23T17:44:18Z</time>
      </trkpt>
      <trkpt lat="49.3561" lon="1.32958">
        <ele>23</ele>
        <time>2017-05-23T17:44:19Z</time>
      </trkpt>
      <trkpt lat="49.35607" lon="1.32953">
        <ele>23</ele>
        <time>2017-05-23T17:44:35Z</time>
      </trkpt>
      <trkpt lat="49.35605" lon="1.32945">
        <ele>23</ele>
        <time>2017-05-23T17:44:35Z</time>
      </trkpt>
      <trkpt lat="49.35602" lon="1.32938">
        <ele>23</ele>
        <time>2017-05-23T17:44:36Z</time>
      </trkpt>
      <trkpt lat="49.356" lon="1.32934">
        <ele>23</ele>
        <time>2017-05-23T17:44:36Z</time>
      </trkpt>
      <trkpt lat="49.35598" lon="1.32929">
        <ele>23</ele>
        <time>2017-05-23T17:44:50Z</time>
      </trkpt>
      <trkpt lat="49.35595" lon="1.32923">
        <ele>23</ele>
        <time>2017-05-23T17:44:50Z</time>
      </trkpt>
      <trkpt lat="49.35593" lon="1.3292">
        <ele>23</ele>
        <time>2017-05-23T17:44:50Z</time>
      </trkpt>
      <trkpt lat="49.3559" lon="1.32916">
        <ele>23</ele>
        <time>2017-05-23T17:44:50Z</time>
      </trkpt>
      <trkpt lat="49.35588" lon="1.32911">
        <ele>23</ele>
        <time>2017-05-23T17:45:06Z</time>
      </trkpt>
      <trkpt lat="49.35585" lon="1.32904">
        <ele>23</ele>
        <time>2017-05-23T17:45:06Z</time>
      </trkpt>
      <trkpt lat="49.35582" lon="1.32898">
        <ele>23</ele>
        <time>2017-05-23T17:45:06Z</time>
      </trkpt>
      <trkpt lat="49.35578" lon="1.32891">
        <ele>23</ele>
        <time>2017-05-23T17:45:06Z</time>
      </trkpt>
      <trkpt lat="49.35574" lon="1.32883">
        <ele>23</ele>
        <time>2017-05-23T17:45:42Z</time>
      </trkpt>
      <trkpt lat="49.35575" lon="1.32883">
        <ele>23</ele>
        <time>2017-05-23T17:45:42Z</time>
      </trkpt>
      <trkpt lat="49.35575" lon="1.32882">
        <ele>23</ele>
        <time>2017-05-23T17:45:43Z</time>
      </trkpt>
      <trkpt lat="49.35574" lon="1.32879">
        <ele>23</ele>
        <time>2017-05-23T17:45:43Z</time>
      </trkpt>
      <trkpt lat="49.35567" lon="1.32868">
        <ele>25</ele>
        <time>2017-05-23T17:45:43Z</time>
      </trkpt>
      <trkpt lat="49.35563" lon="1.32863">
        <ele>25</ele>
        <time>2017-05-23T17:46:02Z</time>
      </trkpt>
      <trkpt lat="49.35559" lon="1.32858">
        <ele>25</ele>
        <time>2017-05-23T17:46:02Z</time>
      </trkpt>
      <trkpt lat="49.35557" lon="1.32852">
        <ele>25</ele>
        <time>2017-05-23T17:46:02Z</time>
      </trkpt>
      <trkpt lat="49.35554" lon="1.32845">
        <ele>25</ele>
        <time>2017-05-23T17:46:02Z</time>
      </trkpt>
      <trkpt lat="49.35551" lon="1.3284">
        <ele>25</ele>
        <time>2017-05-23T17:46:19Z</time>
      </trkpt>
      <trkpt lat="49.35548" lon="1.32836">
        <ele>25</ele>
        <time>2017-05-23T17:46:19Z</time>
      </trkpt>
      <trkpt lat="49.35544" lon="1.3283">
        <ele>25</ele>
        <time>2017-05-23T17:46:19Z</time>
      </trkpt>
      <trkpt lat="49.3554" lon="1.32823">
        <ele>23</ele>
        <time>2017-05-23T17:46:19Z</time>
      </trkpt>
      <trkpt lat="49.35536" lon="1.32816">
        <ele>23</ele>
        <time>2017-05-23T17:46:34Z</time>
      </trkpt>
      <trkpt lat="49.35534" lon="1.32809">
        <ele>23</ele>
        <time>2017-05-23T17:46:34Z</time>
      </trkpt>
      <trkpt lat="49.3553" lon="1.32802">
        <ele>23</ele>
        <time>2017-05-23T17:46:34Z</time>
      </trkpt>
      <trkpt lat="49.35528" lon="1.32799">
        <ele>23</ele>
        <time>2017-05-23T17:46:34Z</time>
      </trkpt>
      <trkpt lat="49.35523" lon="1.32789">
        <ele>23</ele>
        <time>2017-05-23T17:46:51Z</time>
      </trkpt>
      <trkpt lat="49.35519" lon="1.32781">
        <ele>23</ele>
        <time>2017-05-23T17:46:51Z</time>
      </trkpt>
      <trkpt lat="49.35516" lon="1.32776">
        <ele>23</ele>
        <time>2017-05-23T17:46:51Z</time>
      </trkpt>
      <trkpt lat="49.35514" lon="1.32771">
        <ele>23</ele>
        <time>2017-05-23T17:46:51Z</time>
      </trkpt>
      <trkpt lat="49.35507" lon="1.3276">
        <ele>23</ele>
        <time>2017-05-23T17:47:11Z</time>
      </trkpt>
      <trkpt lat="49.35502" lon="1.32749">
        <ele>23</ele>
        <time>2017-05-23T17:47:11Z</time>
      </trkpt>
      <trkpt lat="49.355" lon="1.32746">
        <ele>23</ele>
        <time>2017-05-23T17:47:11Z</time>
      </trkpt>
      <trkpt lat="49.35497" lon="1.32739">
        <ele>23</ele>
        <time>2017-05-23T17:47:11Z</time>
      </trkpt>
      <trkpt lat="49.35492" lon="1.32733">
        <ele>23</ele>
        <time>2017-05-23T17:47:26Z</time>
      </trkpt>
      <trkpt lat="49.35489" lon="1.32728">
        <ele>23</ele>
        <time>2017-05-23T17:47:26Z</time>
      </trkpt>
      <trkpt lat="49.35487" lon="1.32723">
        <ele>23</ele>
        <time>2017-05-23T17:47:26Z</time>
      </trkpt>
      <trkpt lat="49.35483" lon="1.32715">
        <ele>23</ele>
        <time>2017-05-23T17:47:26Z</time>
      </trkpt>
      <trkpt lat="49.35482" lon="1.32711">
        <ele>23</ele>
        <time>2017-05-23T17:47:47Z</time>
      </trkpt>
      <trkpt lat="49.3548" lon="1.32709">
        <ele>23</ele>
        <time>2017-05-23T17:47:47Z</time>
      </trkpt>
      <trkpt lat="49.3548" lon="1.32701">
        <ele>24</ele>
        <time>2017-05-23T17:47:47Z</time>
      </trkpt>
      <trkpt lat="49.35477" lon="1.32704">
        <ele>24</ele>
        <time>2017-05-23T17:47:47Z</time>
      </trkpt>
      <trkpt lat="49.35476" lon="1.32696">
        <ele>24</ele>
        <time>2017-05-23T17:47:47Z</time>
      </trkpt>
      <trkpt lat="49.35472" lon="1.32694">
        <ele>24</ele>
        <time>2017-05-23T17:48:02Z</time>
      </trkpt>
      <trkpt lat="49.35471" lon="1.32692">
        <ele>24</ele>
        <time>2017-05-23T17:48:02Z</time>
      </trkpt>
      <trkpt lat="49.35468" lon="1.32683">
        <ele>24</ele>
        <time>2017-05-23T17:48:02Z</time>
      </trkpt>
      <trkpt lat="49.35465" lon="1.32679">
        <ele>24</ele>
        <time>2017-05-23T17:48:02Z</time>
      </trkpt>
      <trkpt lat="49.35461" lon="1.32675">
        <ele>24</ele>
        <time>2017-05-23T17:48:18Z</time>
      </trkpt>
      <trkpt lat="49.35456" lon="1.32671">
        <ele>24</ele>
        <time>2017-05-23T17:48:18Z</time>
      </trkpt>
      <trkpt lat="49.35453" lon="1.32666">
        <ele>24</ele>
        <time>2017-05-23T17:48:18Z</time>
      </trkpt>
      <trkpt lat="49.35451" lon="1.3266">
        <ele>24</ele>
        <time>2017-05-23T17:48:18Z</time>
      </trkpt>
      <trkpt lat="49.35447" lon="1.32651">
        <ele>24</ele>
        <time>2017-05-23T17:48:36Z</time>
      </trkpt>
      <trkpt lat="49.35444" lon="1.32644">
        <ele>24</ele>
        <time>2017-05-23T17:48:36Z</time>
      </trkpt>
      <trkpt lat="49.35442" lon="1.32641">
        <ele>24</ele>
        <time>2017-05-23T17:48:36Z</time>
      </trkpt>
      <trkpt lat="49.35437" lon="1.32632">
        <ele>24</ele>
        <time>2017-05-23T17:48:36Z</time>
      </trkpt>
      <trkpt lat="49.35436" lon="1.32629">
        <ele>24</ele>
        <time>2017-05-23T17:48:50Z</time>
      </trkpt>
      <trkpt lat="49.35431" lon="1.3262">
        <ele>25</ele>
        <time>2017-05-23T17:48:50Z</time>
      </trkpt>
      <trkpt lat="49.35427" lon="1.32617">
        <ele>25</ele>
        <time>2017-05-23T17:48:50Z</time>
      </trkpt>
      <trkpt lat="49.35423" lon="1.3261">
        <ele>25</ele>
        <time>2017-05-23T17:48:50Z</time>
      </trkpt>
      <trkpt lat="49.35414" lon="1.32591">
        <ele>25</ele>
        <time>2017-05-23T17:49:26Z</time>
      </trkpt>
      <trkpt lat="49.35414" lon="1.32591">
        <ele>25</ele>
        <time>2017-05-23T17:49:26Z</time>
      </trkpt>
      <trkpt lat="49.35414" lon="1.32591">
        <ele>25</ele>
        <time>2017-05-23T17:49:26Z</time>
      </trkpt>
      <trkpt lat="49.35414" lon="1.32589">
        <ele>25</ele>
        <time>2017-05-23T17:49:26Z</time>
      </trkpt>
      <trkpt lat="49.35413" lon="1.32583">
        <ele>25</ele>
        <time>2017-05-23T17:49:26Z</time>
      </trkpt>
      <trkpt lat="49.35418" lon="1.32576">
        <ele>25</ele>
        <time>2017-05-23T17:49:43Z</time>
      </trkpt>
      <trkpt lat="49.35421" lon="1.32569">
        <ele>25</ele>
        <time>2017-05-23T17:49:43Z</time>
      </trkpt>
      <trkpt lat="49.35423" lon="1.32568">
        <ele>25</ele>
        <time>2017-05-23T17:49:43Z</time>
      </trkpt>
      <trkpt lat="49.35428" lon="1.32561">
        <ele>25</ele>
        <time>2017-05-23T17:49:43Z</time>
      </trkpt>
      <trkpt lat="49.35426" lon="1.32546">
        <ele>25</ele>
        <time>2017-05-23T17:50:10Z</time>
      </trkpt>
      <trkpt lat="49.35431" lon="1.32549">
        <ele>25</ele>
        <time>2017-05-23T17:50:10Z</time>
      </trkpt>
      <trkpt lat="49.35436" lon="1.32547">
        <ele>25</ele>
        <time>2017-05-23T17:50:10Z</time>
      </trkpt>
      <trkpt lat="49.35438" lon="1.3255">
        <ele>25</ele>
        <time>2017-05-23T17:50:11Z</time>
      </trkpt>
      <trkpt lat="49.35439" lon="1.32554">
        <ele>25</ele>
        <time>2017-05-23T17:50:54Z</time>
      </trkpt>
      <trkpt lat="49.35443" lon="1.32545">
        <ele>25</ele>
        <time>2017-05-23T17:50:54Z</time>
      </trkpt>
      <trkpt lat="49.35446" lon="1.32539">
        <ele>29</ele>
        <time>2017-05-23T17:50:55Z</time>
      </trkpt>
      <trkpt lat="49.35453" lon="1.3253">
        <ele>29</ele>
        <time>2017-05-23T17:50:55Z</time>
      </trkpt>
      <trkpt lat="49.35456" lon="1.32527">
        <ele>29</ele>
        <time>2017-05-23T17:50:55Z</time>
      </trkpt>
      <trkpt lat="49.35461" lon="1.32516">
        <ele>30</ele>
        <time>2017-05-23T17:51:22Z</time>
      </trkpt>
      <trkpt lat="49.35462" lon="1.32515">
        <ele>30</ele>
        <time>2017-05-23T17:51:22Z</time>
      </trkpt>
      <trkpt lat="49.35462" lon="1.32514">
        <ele>30</ele>
        <time>2017-05-23T17:51:22Z</time>
      </trkpt>
      <trkpt lat="49.35462" lon="1.32513">
        <ele>30</ele>
        <time>2017-05-23T17:51:22Z</time>
      </trkpt>
      <trkpt lat="49.35469" lon="1.32507">
        <ele>30</ele>
        <time>2017-05-23T17:51:22Z</time>
      </trkpt>
      <trkpt lat="49.35474" lon="1.32505">
        <ele>30</ele>
        <time>2017-05-23T17:51:38Z</time>
      </trkpt>
      <trkpt lat="49.35479" lon="1.32504">
        <ele>30</ele>
        <time>2017-05-23T17:51:38Z</time>
      </trkpt>
      <trkpt lat="49.35484" lon="1.32503">
        <ele>30</ele>
        <time>2017-05-23T17:51:38Z</time>
      </trkpt>
      <trkpt lat="49.3549" lon="1.32499">
        <ele>30</ele>
        <time>2017-05-23T17:51:38Z</time>
      </trkpt>
      <trkpt lat="49.3549" lon="1.32493">
        <ele>30</ele>
        <time>2017-05-23T17:51:55Z</time>
      </trkpt>
      <trkpt lat="49.35495" lon="1.32492">
        <ele>30</ele>
        <time>2017-05-23T17:51:55Z</time>
      </trkpt>
      <trkpt lat="49.35499" lon="1.32489">
        <ele>30</ele>
        <time>2017-05-23T17:51:55Z</time>
      </trkpt>
      <trkpt lat="49.35505" lon="1.32487">
        <ele>30</ele>
        <time>2017-05-23T17:51:55Z</time>
      </trkpt>
      <trkpt lat="49.35509" lon="1.3248">
        <ele>30</ele>
        <time>2017-05-23T17:52:18Z</time>
      </trkpt>
      <trkpt lat="49.35517" lon="1.32476">
        <ele>30</ele>
        <time>2017-05-23T17:52:18Z</time>
      </trkpt>
      <trkpt lat="49.3553" lon="1.32475">
        <ele>30</ele>
        <time>2017-05-23T17:52:18Z</time>
      </trkpt>
      <trkpt lat="49.35536" lon="1.32476">
        <ele>30</ele>
        <time>2017-05-23T17:52:18Z</time>
      </trkpt>
      <trkpt lat="49.35539" lon="1.32478">
        <ele>30</ele>
        <time>2017-05-23T17:52:34Z</time>
      </trkpt>
      <trkpt lat="49.35542" lon="1.32479">
        <ele>37</ele>
        <time>2017-05-23T17:52:34Z</time>
      </trkpt>
      <trkpt lat="49.35548" lon="1.32485">
        <ele>37</ele>
        <time>2017-05-23T17:52:34Z</time>
      </trkpt>
      <trkpt lat="49.3555" lon="1.32485">
        <ele>37</ele>
        <time>2017-05-23T17:52:34Z</time>
      </trkpt>
      <trkpt lat="49.3555" lon="1.3249">
        <ele>37</ele>
        <time>2017-05-23T17:52:50Z</time>
      </trkpt>
      <trkpt lat="49.35554" lon="1.32496">
        <ele>37</ele>
        <time>2017-05-23T17:52:50Z</time>
      </trkpt>
      <trkpt lat="49.35554" lon="1.32502">
        <ele>37</ele>
        <time>2017-05-23T17:52:50Z</time>
      </trkpt>
      <trkpt lat="49.35555" lon="1.32507">
        <ele>37</ele>
        <time>2017-05-23T17:52:50Z</time>
      </trkpt>
    </trkseg>
  </trk>
</gpx>